     2.10           OBSERVATION DATA    G (GPS)             RINEX VERSION / TYPE
teqc 2003Nov3 GPS Data Processor 20031211 22:27:04UTC       PGM / RUN BY / DATE
Solaris 2.7|Ultra 2|cc SC5.0|=+-|*Sparc                     COMMENT
2 OBSERVATION DATA                                          COMMENT
ASRINEXO V2.2.0 UX USGS 17-OCT-94 16:18                     COMMENT
HI'S ARE VERT TO BASE OF ANTENNA                            COMMENT
bear Bear_Ridge_2_1957_1981_NGS                             MARKER NAME
                                                            MARKER NUMBER
TNP USGS                                                    OBSERVER / AGENCY
765 ASHTECH L-XII 6b                                        REC # / TYPE / VERS
1058 ASH700228D NONE                                        ANT # / TYPE
 -2736969.0000 -4013076.0000  4120634.0000                  APPROX POSITION XYZ
        1.1739        0.0000        0.0000                  ANTENNA: DELTA H/E/N
     1     1                                                WAVELENGTH FACT L1/2
     3    L1    L2    C1                                    # / TYPES OF OBSERV
    30.0000                                                 INTERVAL
                                                            COMMENT
Receiver type modified to reflect codeless receiver         COMMENT
Original receiver designation: ASHTECH LM-XII3              COMMENT
                                                            COMMENT
                                                            COMMENT
  1992     5     7     0     4   30.0000000     GPS         TIME OF FIRST OBS
                                                            END OF HEADER
 92  5  7  0  4 30.0000000  0  4G 2G12G13G24
     13762.124 5     10723.66221  33703619.066
    -50730.165 9    -39529.84728  30614029.642
     33272.914 9     25926.95227  29941109.197
    -36658.917 7    -28565.49125  32029409.805
 92  5  7  0  5  0.0000000  0  4G 2G12G13G24
     81061.144 5     63164.31323  24425743.401
    -51029.362 8    -39763.02327  21310587.086
     33025.255 9     25734.10127  20653933.979
    -98601.924 7    -76833.01525  22716764.214
 92  5  7  0  5 30.0000000  0  4G 2G12G13G24
    163281.686 5    127232.53122  24441382.687
   -102695.039 9    -80021.96928  21300757.187
     66707.156 9     51979.72927  20660342.938
   -198766.232 7   -154882.98625  22697702.207
 92  5  7  0  6  0.0000000  0  4G 2G12G13G24
    245585.976 5    191365.61422  24457042.338
   -153965.445 9   -119972.91728  21290999.548
    100738.452 9     78497.61527  20666819.656
   -298723.834 7   -232771.89425  22678682.168
 92  5  7  0  6 30.0000000  0  4G 2G12G13G24
    328240.921 5    255772.00724  24472781.754
   -204578.853 9   -159411.91428  21281370.222
    135375.840 9    105487.77927  20673411.197
   -398207.470 7   -310291.46825  22659748.786
 92  5  7  0  7  0.0000000  0  4G 2G12G13G24
    411359.629 5    320539.65122  24488595.194
   -254419.952 9   -198249.11228  21271885.086
    170730.417 9    133036.78027  20680139.442
   -497105.524 7   -387354.75025  22640928.709
 92  5  7  0  7 30.0000000  0  4G 2G12G13G24
    494971.929 5    385691.90223  24504503.092
   -303453.198 9   -236456.81628  21262554.943
    206833.281 9    161168.87926  20687008.878
   -595383.618 7   -463934.95723  22622228.550
 92  5  7  0  8  0.0000000  0  4G 2G12G13G24
    579061.241 5    451215.93922  24520509.897
   -351693.287 9   -274046.47628  21253376.495
    243665.305 9    189869.13626  20694016.833
   -693041.383 7   -540031.79125  22603645.621
 92  5  7  0  8 30.0000000  0  4G 2G12G13G24
    663593.763 4    517085.30322  24536588.371
   -399172.519 9   -311043.25428  21244339.847
    281190.135 9    219109.26326  20701157.584
   -790106.105 6   -615666.49524  22585172.419
 92  5  7  0  9  0.0000000  0  4G 2G12G13G24
    748548.228 4    583283.3792   24552764.583
   -445904.452 9   -347457.72528  21235446.798
    319389.696 9    248875.13327  20708426.350
   -886606.190 6   -690861.23125  22566812.818
 92  5  7  0  9 30.0000000  0  4G 2G12G13G24
    833916.376 4    649803.85422  24569008.834
   -491888.850 9   -383289.70528  21226696.770
    358260.233 9    279163.84927  20715823.742
   -982546.681 6   -765619.93024  22548550.956
 92  5  7  0 10  0.0000000  0  4G 2G12G13G24
    919696.552 4    716645.43522  24585321.437
   -537124.651 9   -418538.35829  21218089.118
    397798.183 9    309972.63526  20723347.333
  -1077928.669 6   -839943.41424  22530399.431
 92  5  7  0 10 30.0000000  0  4G 2G12G13G24
   1005865.906 4    783790.19522  24601727.276
   -581630.274 9   -453218.05129  21209620.877
    437980.761 9    341283.72127  20730994.437
  -1172775.976 6   -913850.26725  22512351.927
 92  5  7  0 11  0.0000000  0  4G 2G12G13G24
   1092388.314 4    851210.07022  24618193.075
   -625429.378 9   -487347.19928  21201284.855
    478779.444 9    373074.88428  20738757.254
  -1267107.720 6   -987355.36824  22494400.644
 92  5  7  0 11 30.0000000  0  4G 2G12G13G24
   1179239.328 4    918886.00522  24634717.646
   -668539.957 9   -520939.83429  21193080.444
    520172.017 9    405328.80527  20746635.801
  -1360938.345 6  -1060469.99525  22476545.913
 92  5  7  0 12  0.0000000  0  4G 2G12G13G24
   1266403.766 4    986806.14121  24651296.470
   -710974.322 9   -554005.55929  21185004.919
    562141.670 9    438032.41927  20754620.479
  -1454279.884 7  -1133203.52125  22458784.401
 92  5  7  0 12 30.0000000  0  3G12G13G24
   -752736.650 9   -586547.60829  21177057.130
    604679.854 9    471179.04326  20762715.775
  -1547128.188 7  -1205552.70725  22441117.643
 92  5  7  0 13  0.0000000  0  3G12G13G24
   -793849.128 9   -618583.30428  21169235.541
    647760.603 9    504748.45827  20770914.794
  -1639505.161 7  -1277534.63623  22423537.508
 92  5  7  0 13 30.0000000  0  3G12G13G24
   -834339.836 9   -650134.46028  21161531.183
    691351.650 9    538715.46727  20779209.459
  -1731439.053 7  -1349171.30425  22406043.718
 92  5  7  0 14  0.0000000  0  3G12G13G24
   -874223.833 9   -681212.88428  21153941.036
    735433.382 9    573064.85127  20787599.750
  -1822933.030 7  -1420465.19225  22388633.880
 92  5  7  0 14 30.0000000  0  3G12G13G24
   -913498.516 9   -711816.51829  21146466.602
    780004.244 9    607795.37526  20796082.074
  -1913970.975 7  -1491403.72526  22371310.961
 92  5  7  0 15  0.0000000  0  3G12G13G24
   -952156.929 9   -741939.94229  21139110.602
    825066.627 9    642908.90826  20804654.633
  -2004545.132 7  -1561980.87425  22354069.308
 92  5  7  0 15 30.0000000  0  3G12G13G24
   -990189.391 9   -771575.61328  21131872.112
    870625.970 9    678409.66626  20813325.228
  -2094650.932 7  -1632193.04225  22336926.564
 92  5  7  0 16  0.0000000  0  3G12G13G24
  -1027569.180 9   -800702.71429  21124758.042
    916704.913 9    714315.30526  20822092.671
  -2184271.971 7  -1702027.48826  22319871.977
 92  5  7  0 16 30.0000000  0  3G12G13G24
  -1064292.841 9   -829318.54028  21117770.766
    963302.477 9    750625.07226  20830961.430
  -2273418.367 7  -1771492.09124  22302908.219
 92  5  7  0 17  0.0000000  0  3G12G13G24
  -1100389.755 9   -857445.98928  21110901.924
   1010384.790 9    787312.58026  20839918.330
  -2362139.035 7  -1840624.97824  22286025.709
 92  5  7  0 17 30.0000000  0  3G12G13G24
  -1135855.321 8   -885081.48628  21104153.000
   1057952.558 9    824378.36327  20848971.451
  -2450450.010 7  -1909438.60125  22269219.335
 92  5  7  0 18  0.0000000  0  3G12G13G24
  -1170690.600 9   -912225.84928  21097524.587
   1106000.600 9    861818.36127  20858114.527
  -2538341.353 7  -1977925.24224  22252493.912
 92  5  7  0 18 30.0000000  0  3G12G13G24
  -1204930.658 9   -938906.40029  21091010.403
   1154489.075 9    899601.55527  20867343.337
  -2625832.770 7  -2046100.24825  22235844.345
 92  5  7  0 19  0.0000000  0  3G12G13G24
  -1238603.786 9   -965145.18828  21084601.130
   1203386.213 9    937703.20026  20876647.391
  -2712944.087 7  -2113979.09524  22219267.930
 92  5  7  0 19 30.0000000  0  3G12G13G24
  -1271700.154 8   -990934.54927  21078302.788
   1252697.480 9    976127.55226  20886030.304
  -2799644.813 7  -2181537.99325  22202768.539
 92  5  7  0 20  0.0000000  0  3G12G13G24
  -1304205.323 8  -1016263.24428  21072116.878
   1302432.929 9   1014882.41526  20895495.057
  -2885889.466 7  -2248741.51225  22186359.698
 92  5  7  0 20 30.0000000  0  3G12G13G24
  -1336117.408 9  -1041129.78629  21066044.289
   1352590.192 9   1053965.95127  20905038.651
  -2971685.270 7  -2315595.27625  22170031.215
 92  5  7  0 21  0.0000000  0  3G12G13G24
  -1367443.531 9  -1065539.72829  21060083.208
   1403158.247 9   1093369.61426  20914661.679
  -3057049.482 7  -2382112.74725  22153787.558
 92  5  7  0 21 30.0000000  0  3G12G13G24
  -1398187.835 9  -1089496.31428  21054235.448
   1454128.749 9   1133086.87626  20924362.359
  -3141994.556 7  -2448303.62825  22137619.146
 92  5  7  0 22  0.0000000  0  3G12G13G24
  -1428357.673 8  -1113005.26128  21048492.633
   1505490.228 9   1173108.78726  20934135.005
  -3226532.583 7  -2514177.31624  22121534.687
 92  5  7  0 22 30.0000000  0  3G12G13G24
  -1457953.618 9  -1136067.02828  21042859.232
   1557238.307 9   1213431.93127  20943982.581
  -3310678.290 7  -2579745.30526  22105521.564
 92  5  7  0 23  0.0000000  0  3G12G13G24
  -1486974.993 9  -1158681.07128  21037337.355
   1609369.190 9   1254053.37826  20953902.716
  -3394420.416 7  -2644998.82326  22089586.095
 92  5  7  0 23 30.0000000  0  3G12G13G24
  -1515418.201 8  -1180844.59028  21031925.798
   1661882.765 9   1294973.03826  20963896.595
  -3477742.732 7  -2709925.22225  22073728.873
 92  5  7  0 24  0.0000000  0  3G12G13G24
  -1543265.018 8  -1202543.39328  21026624.876
   1714792.904 9   1336201.72026  20973964.219
  -3560617.750 7  -2774503.06626  22057959.199
 92  5  7  0 24 30.0000000  0  3G12G13G24
  -1570491.964 8  -1223759.19129  21021444.464
   1768119.119 9   1377754.58926  20984112.202
  -3643030.418 7  -2838720.64625  22042276.147
 92  5  7  0 25  0.0000000  0  3G12G13G24
  -1597085.584 8  -1244481.48429  21016383.360
   1821870.917 9   1419639.08425  20994339.617
  -3724963.752 7  -2902564.71525  22026685.145
 92  5  7  0 25 30.0000000  0  3G12G13G24
  -1623064.818 8  -1264725.03528  21011439.783
   1876025.168 9   1461837.20725  21004645.279
  -3806438.699 7  -2966051.59625  22011181.674
 92  5  7  0 26  0.0000000  0  3G12G13G24
  -1648447.906 8  -1284504.06928  21006610.418
   1930560.162 9   1504332.01126  21015021.406
  -3887481.297 7  -3029201.58625  21995760.655
 92  5  7  0 26 30.0000000  0  3G12G13G24
  -1673259.013 8  -1303837.39227  21001886.889
   1985447.571 9   1547101.38927  21025467.979
  -3968113.354 7  -3092031.67025  21980414.584
 92  5  7  0 27  0.0000000  0  3G12G13G24
  -1697500.137 8  -1322726.56328  20997275.197
   2040681.981 9   1590141.17826  21035978.088
  -4048332.303 7  -3154539.85326  21965150.634
 92  5  7  0 27 30.0000000  0  3G12G13G24
  -1721179.155 8  -1341177.74528  20992769.604
   2096250.877 9   1633441.61326  21046552.379
  -4128150.877 7  -3216736.05325  21949961.965
 92  5  7  0 28  0.0000000  0  3G12G13G24
  -1744275.142 8  -1359174.60528  20988375.551
   2152171.295 9   1677015.95326  21057194.708
  -4207565.569 7  -3278617.54426  21934848.820
 92  5  7  0 28 30.0000000  0  3G12G13G24
  -1766756.246 8  -1376692.34229  20984096.915
   2208471.470 9   1720886.19427  21067906.891
  -4286541.622 7  -3340157.23026  21919820.832
 92  5  7  0 29  0.0000000  0  3G12G13G24
  -1788583.892 8  -1393700.89929  20979941.791
   2265186.054 9   1765079.33625  21078700.915
  -4365039.613 7  -3401324.41526  21904884.266
 92  5  7  0 29 30.0000000  0  3G12G13G24
  -1809747.559 8  -1410192.05628  20975914.683
   2322321.207 9   1809600.23526  21089574.983
  -4443048.514 7  -3462110.47226  21890038.545
 92  5  7  0 30  0.0000000  0  3G12G13G24
  -1830242.981 8  -1426162.51328  20972014.681
   2379877.874 9   1854449.57126  21100528.206
  -4520552.183 8  -3522502.85425  21875290.843
 92  5  7  0 30 30.0000000  0  3G12G13G24
  -1850093.270 8  -1441630.26428  20968238.192
   2437829.454 9   1899606.62026  21111553.969
  -4597549.811 7  -3582500.93126  21860636.098
 92  5  7  0 31  0.0000000  0  3G12G13G24
  -1869302.497 8  -1456598.48629  20964582.214
   2496167.766 9   1945065.00326  21122654.087
  -4674056.256 8  -3642116.25726  21846078.480
 92  5  7  0 31 30.0000000  0  3G12G13G24
  -1887879.302 8  -1471073.91528  20961046.765
   2554880.685 9   1990815.32225  21133827.950
  -4750089.738 7  -3701363.06226  21831608.097
 92  5  7  0 32  0.0000000  0  3G12G13G24
  -1905827.671 8  -1485059.66028  20957629.437
   2613960.297 9   2036851.37826  21145069.572
  -4825647.722 7  -3760239.33826  21817231.839
 92  5  7  0 32 30.0000000  0  3G12G13G24
  -1923152.906 8  -1498559.82928  20954334.714
   2673397.285 9   2083165.89926  21156381.048
  -4900742.025 8  -3818754.30126  21802943.130
 92  5  7  0 33  0.0000000  0  3G12G13G24
  -1939869.590 8  -1511585.80629  20951152.422
   2733173.249 9   2129744.51626  21167756.670
  -4975398.154 8  -3876927.83026  21788735.669
 92  5  7  0 33 30.0000000  0  3G12G13G24
  -1955977.925 8  -1524137.75628  20948089.141
   2793285.292 9   2176585.03025  21179194.956
  -5049598.701 7  -3934746.37626  21774614.848
 92  5  7  0 34  0.0000000  0  3G12G13G24
  -1971478.755 8  -1536216.31028  20945140.089
   2853728.461 9   2223683.58625  21190694.685
  -5123334.378 7  -3992202.67426  21760581.854
 92  5  7  0 34 30.0000000  0  3G12G13G24
  -1986385.773 8  -1547832.16729  20942301.654
   2914484.817 9   2271026.18225  21202258.578
  -5196626.260 8  -4049313.18126  21746637.612
 92  5  7  0 35  0.0000000  0  3G12G13G24
  -2000700.530 8  -1558986.51628  20939578.338
   2975549.976 9   2318609.38026  21213878.538
  -5269474.940 7  -4106078.32226  21732772.821
 92  5  7  0 35 30.0000000  0  3G12G13G24
  -2014409.191 8  -1569668.58028  20936969.531
   3036933.789 9   2366440.88425  21225560.255
  -5341857.027 7  -4162479.88026  21718998.247
 92  5  7  0 36  0.0000000  0  3G12G13G24
  -2027516.899 8  -1579882.36428  20934475.563
   3098628.147 9   2414514.38925  21237300.430
  -5413780.508 7  -4218524.07926  21705313.332
 92  5  7  0 36 30.0000000  0  3G12G13G24
  -2040035.722 8  -1589637.28628  20932092.212
   3160617.356 9   2462817.64925  21249096.358
  -5485252.977 8  -4274216.84627  21691713.837
 92  5  7  0 37  0.0000000  0  3G12G13G24
  -2051964.473 8  -1598932.40228  20929824.277
   3222898.869 9   2511348.67226  21260947.761
  -5556263.798 8  -4329549.87526  21678199.498
 92  5  7  0 37 30.0000000  0  3G12G13G24
  -2063327.592 8  -1607786.77628  20927662.178
   3285444.638 9   2560085.58326  21272849.507
  -5626832.446 8  -4384538.37526  21664771.782
 92  5  7  0 38  0.0000000  0  3G12G13G24
  -2074172.551 8  -1616237.37828  20925597.503
   3348203.680 9   2608988.69725  21284791.441
  -5697010.678 8  -4439222.65126  21651416.328
 92  5  7  0 38 30.0000000  0  4G12G13G20G24
  -2084508.928 8  -1624291.68728  20923627.880
   3411163.232 9   2658048.09124  21296772.953
  -1557446.772 5  -1213594.85822  24841172.114
  -5766817.391 8  -4493617.43726  21638132.524
 92  5  7  0 39  0.0000000  0  4G12G13G20G24
  -2094326.488 8  -1631941.72628  20921763.167
   3474330.255 9   2707269.13925  21308793.431
  -1653370.266 4  -1288340.24722  24822925.853
  -5836257.127 8  -4547726.25826  21624917.684
 92  5  7  0 39 30.0000000  0  4G12G13G20G24
  -2103620.915 8  -1639184.13028  20919994.081
   3537705.575 9   2756652.47425  21320854.376
  -1749361.562 4  -1363138.60822  24804661.896
  -5905330.569 8  -4601549.65826  21611775.087
 92  5  7  0 40  0.0000000  0  3G12G13G24
  -2112363.149 8  -1645996.25729  20918326.346
   3601314.788 9   2806218.05924  21332958.196
  -5974014.660 8  -4655069.66426  21598708.626
 92  5  7  0 40 30.0000000  0  3G12G13G24
  -2120563.612 8  -1652386.20728  20916769.525
   3665144.405 9   2855955.41424  21345103.093
  -6042313.928 8  -4708289.81426  21585704.828
 92  5  7  0 41  0.0000000  0  3G12G13G24
  -2128226.025 8  -1658356.91128  20915310.425
   3729187.399 9   2905859.05225  21357292.053
  -6110220.525 8  -4761203.98026  21572784.966
 92  5  7  0 41 30.0000000  0  3G12G13G24
  -2135325.012 8  -1663888.58728  20913959.272
   3793465.831 9   2955946.10125  21369522.980
  -6177689.311 8  -4813776.99926  21559947.853
 92  5  7  0 42  0.0000000  0  3G12G13G24
  -2141869.108 8  -1668987.87928  20912713.030
   3857968.347 9   3006207.76225  21381797.394
  -6244721.801 8  -4866010.04226  21547189.598
 92  5  7  0 42 30.0000000  0  3G12G13G24
  -2147852.482 8  -1673650.25028  20911577.108
   3922697.045 8   3056645.69425  21394113.164
  -6311310.512 7  -4917897.28327  21534516.464
 92  5  7  0 43  0.0000000  0  4G12G13G20G24
  -2153274.787 8  -1677875.41828  20910542.241
   3987649.043 9   3107257.62124  21406477.499
    -93049.19715    -72505.53821  24676574.960
  -6377459.175 8  -4969441.63426  21521930.285
 92  5  7  0 43 30.0000000  0  4G12G13G20G24
  -2158140.507 8  -1681666.88027  20909618.880
   4052816.306 8   3158037.26926  21418875.128
   -189338.261 5   -147535.82623  24658251.952
  -6443178.274 8  -5020651.26226  21509424.727
 92  5  7  0 44  0.0000000  0  4G12G13G20G24
  -2162441.285 8  -1685018.13628  20908801.337
   4118204.565 8   3208989.11225  21431320.414
   -285652.711 5   -222585.90522  24639927.740
  -6508471.130 8  -5071528.74827  21497000.730
 92  5  7  0 44 30.0000000  0  4G12G13G20G24
  -2166179.216 8  -1687930.80728  20908089.037
   4183809.221 8   3260109.60025  21443801.961
   -381994.418 5   -297657.22022  24621590.022
  -6573345.166 8  -5122079.88826  21484654.683
 92  5  7  0 45  0.0000000  0  4G12G13G20G24
  -2169352.020 8  -1690403.11828  20907485.556
   4249628.664 8   3311397.46625  21456328.792
   -478360.890 5   -372747.80423  24603253.525
  -6637792.023 8  -5172298.14726  21472390.182
 92  5  7  0 45 30.0000000  0  4G12G13G20G24
  -2171951.161 8  -1692428.42928  20906989.987
   4315668.899 8   3362857.35426  21468895.200
   -574742.736 6   -447850.35722  24584903.521
  -6701804.064 8  -5222177.59927  21460209.005
 92  5  7  0 46  0.0000000  0  4G12G13G20G24
  -2173968.326 8  -1694000.25128  20906607.461
   4381934.770 8   3414493.04525  21481507.170
   -671131.560 5   -522958.33922  24566564.913
  -6765371.907 8  -5271710.92526  21448111.484
 92  5  7  0 46 30.0000000  0  4G12G13G20G24
  -2175408.919 8  -1695122.79729  20906332.253
   4448418.596 8   3466298.58125  21494155.105
   -767532.597 6   -598075.91423  24548220.319
  -6828508.509 8  -5320908.22127  21436097.603
 92  5  7  0 47  0.0000000  0  4G12G13G20G24
  -2176263.606 8  -1695788.78628  20906171.258
   4515125.974 8   3518278.33023  21506849.214
   -863935.999 6   -673195.25722  24529878.116
  -6891208.395 8  -5369765.22827  21424166.749
 92  5  7  0 47 30.0000000  0  4G12G13G20G24
  -2176517.223 8  -1695986.44628  20906118.802
   4582069.396 8   3570442.00425  21519591.904
   -960326.284 6   -748304.41622  24511541.009
  -6953457.193 8  -5418270.71826  21412321.053
 92  5  7  0 48  0.0000000  0  4G12G13G20G24
  -2176154.417 8  -1695703.73028  20906190.139
   4649261.873 8   3622799.73725  21532375.654
  -1056687.229 6   -823390.76322  24493201.510
  -7015226.955 8  -5466402.94827  21400568.296
 92  5  7  0 48 30.0000000  0  4G12G13G20G24
  -2175169.211 8  -1694936.02928  20906376.612
   4716706.150 8   3675353.66825  21545211.563
  -1153012.674 6   -898449.37422  24474868.905
  -7076499.326 8  -5514147.60027  21388906.368
 92  5  7  0 49  0.0000000  0  4G12G13G20G24
  -2173569.363 8  -1693689.39728  20906680.612
   4784391.687 8   3728095.61124  21558091.848
  -1249309.794 6   -973485.99321  24456544.693
  -7137255.146 8  -5561489.75027  21377346.367
 92  5  7  0 49 30.0000000  0  4G12G13G20G24
  -2171344.012 8  -1691955.35529  20907106.014
   4852326.414 8   3781031.72524  21571019.790
  -1345566.874 5  -1048491.40621  24438226.170
  -7197469.539 8  -5608410.00727  21365887.105
 92  5  7  0 50  0.0000000  0  4G12G13G20G24
  -2168494.689 8  -1689735.10728  20907650.129
   4920505.913 8   3834158.58724  21583991.810
  -1441785.173 5  -1123466.52922  24419911.242
  -7257144.772 8  -5654910.15626  21354529.771
 92  5  7  0 50 30.0000000  0  4G12G13G20G24
  -2165031.749 8  -1687036.70828  20908305.786
   4988917.188 8   3887466.02925  21597012.098
  -1537974.295 5  -1198418.99721  24401612.821
  -7316303.656 8  -5701007.93827  21343273.456
 92  5  7  0 51  0.0000000  0  4G12G13G20G24
  -2160958.773 8  -1683862.96528  20909082.251
   5057553.997 8   3940949.18924  21610070.166
  -1634137.246 5  -1273351.09823  24383311.382
  -7374961.131 8  -5746715.01726  21332113.378
 92  5  7  0 51 30.0000000  0  4G12G13G20G24
  -2156283.008 8  -1680219.51128  20909974.428
   5126406.565 8   3994600.51324  21623172.889
  -1730280.294 5  -1348267.64723  24365021.651
  -7433137.140 8  -5792046.93527  21321041.145
 92  5  7  0 52  0.0000000  0  4G12G13G20G24
  -2151008.002 8  -1676109.11928  20910976.036
   5195468.691 8   4048415.15324  21636315.486
  -1826406.485 5  -1423171.08822  24346727.419
  -7490840.663 8  -5837010.66327  21310060.055
 92  5  7  0 52 30.0000000  0  4G12G13G20G24
  -2145120.618 8  -1671521.55628  20912094.856
   5264750.648 8   4102401.06625  21649499.771
  -1922501.820 4  -1498050.46422  24328439.172
  -7548057.023 8  -5881594.79427  21299171.887
 92  5  7  0 53  0.0000000  0  4G12G13G20G24
  -2138621.650 8  -1666457.42129  20913332.408
   5334248.991 8   4156555.56925  21662723.616
  -2018566.245 4  -1572905.73622  24310157.521
  -7604781.036 8  -5925795.27627  21288380.567
 92  5  7  0 53 30.0000000  0  4G12G13G20G24
  -2131522.033 8  -1660925.26229  20914685.673
   5403950.329 8   4210868.25225  21675987.334
  -2114610.095 4  -1647744.93923  24291873.183
  -7661025.072 8  -5969621.75626  21277674.667
 92  5  7  0 54  0.0000000  0  4G12G13G20G24
  -2123818.186 8  -1654922.27528  20916150.147
   5473856.400 8   4265340.53124  21689292.113
  -2210628.553 4  -1722564.44123  24273607.429
  -7716788.029 8  -6013073.35826  21267063.224
 92  5  7  0 54 30.0000000  0  4G12G13G20G24
  -2115516.133 8  -1648453.14629  20917728.258
   5543957.983 8   4319965.10624  21702631.984
  -2306626.955 5  -1797368.18523  24255345.270
  -7772076.439 8  -6056155.18727  21256544.408
 92  5  7  0 55  0.0000000  0  4G12G13G20G24
  -2106621.025 8  -1641521.91228  20919422.377
   5614247.771 8   4374736.33325  21716007.227
  -2402609.132 5  -1872159.38822  24237080.721
  -7826892.109 8  -6098868.64326  21246111.027
 92  5  7  0 55 30.0000000  0  4G12G13G20G24
  -2097123.911 8  -1634121.57128  20921230.726
   5684732.072 8   4429659.12225  21729417.545
  -2498565.827 5  -1946930.72223  24218817.061
  -7881227.581 8  -6141207.92827  21235772.087
 92  5  7  0 56  0.0000000  0  4G12G13G20G24
  -2087023.921 8  -1626251.47129  20923153.600
   5755409.496 8   4484732.43123  21742868.330
  -2594494.535 5  -2021680.18722  24200556.996
  -7935069.525 8  -6183162.64427  21225526.680
 92  5  7  0 56 30.0000000  0  4G12G13G20G24
  -2076327.058 8  -1617916.26228  20925188.592
   5826271.812 8   4539949.81125  21756353.282
  -2690400.331 5  -2096411.83822  24182311.642
  -7988421.800 8  -6224735.80327  21215373.306
 92  5  7  0 57  0.0000000  0  4G12G13G20G24
  -2065033.968 8  -1609116.45929  20927336.609
   5897316.243 8   4595309.10024  21769873.327
  -2786283.023 6  -2171125.49123  24164066.863
  -8041290.109 8  -6265931.84828  21205311.964
 92  5  7  0 57 30.0000000  0  4G12G13G20G24
  -2053151.313 8  -1599857.25928  20929599.746
   5968533.619 8   4650803.09524  21783427.243
  -2882147.798 6  -2245825.17624  24145823.586
  -8093672.755 8  -6306749.45727  21195344.173
 92  5  7  0 58  0.0000000  0  4G12G13G20G24
  -2040675.755 8  -1590136.04228  20931971.998
   6039925.040 8   4706432.76322  21797011.138
  -2977990.442 6  -2320507.64322  24127586.014
  -8145560.927 8  -6347181.76527  21185470.508
 92  5  7  0 58 30.0000000  0  4G12G13G20G24
  -2027603.173 8  -1579949.62328  20934459.684
   6111492.107 8   4762199.29424  21810627.124
  -3073805.841 6  -2395168.83122  24109350.537
  -8196956.055 8  -6387229.87427  21175691.267
 92  5  7  0 59  0.0000000  0  4G12G13G20G24
  -2013938.415 8  -1569301.76427  20937059.173
   6183228.248 8   4818097.57224  21824277.260
  -3169597.471 6  -2469811.55622  24091125.267
  -8247852.671 8  -6426889.53628  21166007.373
 92  5  7  0 59 30.0000000  0  4G12G13G20G24
  -1999676.486 8  -1558188.58428  20939774.095
   6255136.364 8   4874129.81122  21837963.989
  -3265358.703 6  -2544430.57723  24072900.871
  -8298231.012 8  -6466145.35628  21156420.014
 92  5  7  1  0  0.0000000  0  4G12G13G20G24
  -1984805.161 8  -1546600.54728  20942602.339
   6327226.312 8   4930303.76623  21851682.199
  -3361076.581 6  -2619015.80922  24054686.683
  -8348086.252 8  -6504993.56827  21146930.376
 92  5  7  1  0 30.0000000  0  4G12G13G20G24
  -1969320.253 8  -1534534.38828  20945549.000
   6399499.684 8   4986620.67923  21865436.967
  -3456745.239 6  -2693562.71324  24036478.794
  -8397407.720 8  -6543425.84528  21137548.075
 92  5  7  1  1  0.0000000  0  4G12G13G20G24
  -1953222.050 8  -1521990.34629  20948612.578
   6471954.621 8   5043079.05622  21879223.825
  -3552363.563 6  -2768070.44223  24018284.987
  -8446192.903 8  -6581440.22027  21128262.901
 92  5  7  1  1 30.0000000  0  4G12G13G20G24
  -1936515.546 8  -1508972.30028  20951793.369
   6544584.301 7   5099673.54225  21893042.757
  -3647935.502 6  -2842541.96922  24000099.575
  -8494458.219 8  -6619049.52528  21119079.061
 92  5  7  1  2  0.0000000  0  4G12G13G20G24
  -1919194.955 8  -1495475.73928  20955090.500
   6617392.438 8   5156407.09424  21906896.764
  -3743453.775 6  -2916971.68122  23981917.756
  -8542209.278 8  -6656258.10928  21109990.551
 92  5  7  1  2 30.0000000  0  4G12G13G20G24
  -1901257.328 8  -1481498.37129  20958500.639
   6690379.900 8   5213280.42322  21920786.161
  -3838913.493 6  -2991355.79023  23963756.041
  -8589443.973 8  -6693064.32129  21101005.486
 92  5  7  1  3  0.0000000  0  4G12G13G20G24
  -1882700.472 8  -1467038.50429  20962031.586
   6763546.665 7   5270293.47824  21934708.520
  -3934311.290 6  -3065691.65322  23945604.202
  -8636174.964 8  -6729478.03527  21092110.029
 92  5  7  1  3 30.0000000  0  4G12G13G20G24
  -1863525.979 8  -1452097.35829  20965681.264
   6836889.845 8   5327443.96724  21948668.956
  -4029647.406 6  -3139979.39222  23927461.071
  -8682403.658 8  -6765500.35227  21083312.920
 92  5  7  1  4  0.0000000  0  4G12G13G20G24
  -1843738.248 8  -1436678.35228  20969447.562
   6910402.716 8   5384726.65724  21962657.277
  -4124924.512 5  -3214221.21722  23909330.819
  -8728114.110 8  -6801118.85628  21074614.144
 92  5  7  1  4 30.0000000  0  4G12G13G20G24
  -1823340.695 8  -1420784.17628  20973327.775
   6984080.886 8   5442138.17723  21976677.358
  -4220144.234 5  -3288418.31122  23891211.053
  -8773297.275 8  -6836326.47228  21066016.997
 92  5  7  1  5  0.0000000  0  4G12G13G20G24
  -1802342.692 8  -1404422.10529  20977325.794
   7057912.698 8   5499669.46823  21990727.733
  -4315314.438 5  -3362576.77222  23873099.996
  -8817957.482 8  -6871126.59528  21057517.589
 92  5  7  1  5 30.0000000  0  4G12G13G20G24
  -1780742.460 8  -1387590.77328  20981433.855
   7131897.989 8   5557320.30523  22004805.992
  -4410431.831 5  -3436694.11822  23855000.630
  -8862079.203 8  -6905507.11628  21049122.499
 92  5  7  1  6  0.0000000  0  4G12G13G20G24
  -1758539.785 8  -1370289.99628  20985660.629
   7206035.533 8   5615089.76224  22018913.324
  -4505494.685 6  -3510769.01423  23836911.752
  -8905661.910 8  -6939467.63727  21040827.241
 92  5  7  1  6 30.0000000  0  4G12G13G20G24
  -1735733.315 8  -1352518.73927  20990001.318
   7280324.984 8   5672977.58324  22033052.730
  -4600499.357 6  -3584798.51722  23818833.361
  -8948728.358 8  -6973025.88228  21032632.706
 92  5  7  1  7  0.0000000  0  4G12G13G20G24
  -1712320.627 8  -1334275.09828  20994454.736
   7354767.013 7   5730984.32924  22047217.037
  -4695441.942 6  -3658779.64122  23800764.271
  -8991277.975 8  -7006181.38728  21024536.224
 92  5  7  1  7 30.0000000  0  4G12G13G20G24
  -1688293.479 8  -1315552.66028  20999028.368
   7429368.587 7   5789115.45825  22061412.806
  -4790312.252 6  -3732704.49222  23782710.765
  -9033299.928 8  -7038925.72928  21016539.557
 92  5  7  1  8  0.0000000  0  4G12G13G20G24
  -1663656.091 8  -1296354.70027  21003718.027
   7504123.754 8   5847366.16824  22075637.962
  -4885112.379 6  -3806574.62724  23764669.264
  -9074795.618 8  -7071259.99127  21008643.927
 92  5  7  1  8 30.0000000  0  4G12G13G20G24
  -1638411.940 8  -1276683.94427  21008520.397
   7579027.489 8   5905732.65023  22089893.394
  -4979844.289 6  -3880391.57922  23746643.346
  -9115757.775 8  -7103178.52628  21000848.723
 92  5  7  1  9  0.0000000  0  4G12G13G20G24
  -1612573.229 8  -1256549.89427  21013437.903
   7654065.506 7   5964203.77723  22104171.005
  -5074518.383 6  -3954163.51822  23728626.712
  -9156179.210 8  -7134675.71728  20993155.149
 92  5  7  1  9 30.0000000  0  4G12G13G20G24
  -1586132.899 8  -1235947.06328  21018469.324
   7729243.992 8   6022784.40722  22118477.688
  -5169125.253 6  -4027883.07922  23710625.974
  -9196053.741 8  -7165746.74128  20985569.487
 92  5  7  1 10  0.0000000  0  4G12G13G20G24
  -1559089.272 8  -1214874.12428  21023614.050
   7804563.162 8   6081474.65622  22132809.273
  -5263661.634 6  -4101547.68922  23692638.726
  -9235384.392 8  -7196393.97027  20978082.471
 92  5  7  1 10 30.0000000  0  4G12G13G20G24
  -1531442.026 8  -1193330.82728  21028873.319
   7880021.674 7   6140273.43424  22147169.336
  -5358125.336 6  -4175155.64624  23674658.074
  -9274182.100 8  -7226625.91628  20970701.587
 92  5  7  1 11  0.0000000  0  4G12G13G20G24
  -1503188.953 8  -1171315.46228  21034252.488
   7955620.786 8   6199181.76824  22161554.877
  -5452511.726 6  -4248703.38822  23656698.101
  -9312460.415 8  -7256453.14628  20963416.034
 92  5  7  1 11 30.0000000  0  4G12G13G20G24
  -1474335.062 8  -1148831.90628  21039743.182
   8031354.363 7   6258194.89124  22175968.303
  -5546823.493 6  -4322192.98022  23638748.929
  -9350233.794 8  -7285886.91628  20956228.813
 92  5  7  1 12  0.0000000  0  4G12G13G20G24
  -1444883.456 8  -1125882.62927  21045348.401
   8107217.561 8   6317309.07922  22190406.002
  -5641062.222 6  -4395625.65022  23620816.544
  -9387508.546 8  -7314932.14828  20949133.013
 92  5  7  1 12 30.0000000  0  4G12G13G20G24
  -1414829.862 8  -1102464.25428  21051066.942
   8183213.509 7   6376526.65625  22204866.195
  -5735220.812 6  -4468995.86922  23602900.353
  -9424266.049 8  -7343574.33028  20942139.751
 92  5  7  1 13  0.0000000  0  4G12G13G20G24
  -1384174.987 8  -1078577.36227  21056899.415
   8259340.612 8   6435846.41724  22219351.272
  -5829297.937 6  -4542302.65521  23584997.041
  -9460500.146 8  -7371808.65728  20935242.727
 92  5  7  1 13 30.0000000  0  4G12G13G20G24
  -1352926.667 8  -1054228.03727  21062844.897
   8335588.906 7   6495260.59722  22233861.826
  -5923299.791 6  -4615550.73924  23567107.234
  -9496208.971 8  -7399633.69228  20928450.038
 92  5  7  1 14  0.0000000  0  4G12G13G20G24
  -1321080.480 8  -1029412.83627  21068907.591
   8411962.181 7   6554772.21321  22248393.355
  -6017219.428 6  -4688734.76822  23549235.105
  -9531380.397 8  -7427039.96228  20921757.461
 92  5  7  1 14 30.0000000  0  4G12G13G20G24
  -1288631.905 8  -1004128.25928  21075080.030
   8488464.494 7   6614384.39224  22262953.677
  -6111049.523 6  -4761849.06721  23531382.172
  -9565998.757 8  -7454015.27628  20915170.736
 92  5  7  1 15  0.0000000  0  4G12G13G20G24
  -1255577.922 8   -978371.92427  21081371.479
   8565097.237 7   6674098.16724  22277536.475
  -6204785.257 6  -4834889.80722  23513548.712
  -9600077.725 8  -7480570.28528  20908685.311
 92  5  7  1 15 30.0000000  0  4G12G13G20G24
  -1221921.299 8   -952146.00527  21087774.138
   8641856.768 7   6733910.71222  22292141.766
  -6298426.706 6  -4907857.06422  23495727.241
  -9633601.724 8  -7506692.85928  20902307.535
 92  5  7  1 16  0.0000000  0  4G12G13G20G24
  -1187664.910 8   -925452.72427  21094293.121
   8718738.504 7   6793818.50024  22306774.943
  -6391974.353 6  -4980751.24023  23477926.169
  -9666562.510 8  -7532376.55828  20896031.372
 92  5  7  1 16 30.0000000  0  4G12G13G20G24
  -1152799.972 8   -898285.26727  21100929.630
   8795751.210 7   6853828.34422  22321428.205
  -6485417.161 6  -5053563.76121  23460141.274
  -9698947.203 8  -7557611.34928  20889869.439
 92  5  7  1 17  0.0000000  0  4G12G13G20G24
  -1117334.560 8   -870649.90727  21107677.054
   8872885.445 7   6913932.95822  22336104.536
  -6578761.002 6  -5126299.12021  23442379.779
  -9730766.597 8  -7582405.66328  20883815.138
 92  5  7  1 17 30.0000000  0  4G12G13G20G24
  -1081277.274 8   -842553.34327  21114537.816
   8950131.751 7   6974124.85324  22350804.565
  -6672011.575 6  -5198961.78722  23424631.773
  -9762016.150 8  -7606755.93228  20877869.046
 92  5  7  1 18  0.0000000  0  4G12G13G20G24
  -1044624.710 8   -813992.92227  21121515.774
   9027492.589 7   7034405.96024  22365525.568
  -6765163.104 6  -5271547.32023  23406904.429
  -9792717.826 8  -7630679.29128  20872025.492
 92  5  7  1 18 30.0000000  0  4G12G13G20G24
  -1007383.318 8   -784973.67927  21128599.272
   9104960.551 7   7094770.52225  22380269.362
  -6858219.505 6  -5344058.71923  23389195.703
  -9822892.625 8  -7654192.09928  20866286.272
 92  5  7  1 19  0.0000000  0  4G12G13G20G24
   -969554.895 8   -755497.01328  21135799.388
   9182533.216 7   7155216.74821  22395030.239
  -6951179.555 6  -5416495.01522  23371507.639
  -9852549.715 8  -7677301.50128  20860639.975
 92  5  7  1 19 30.0000000  0  4G12G13G20G24
   -931134.137 8   -725558.78827  21143108.325
   9260214.388 7   7215747.55624  22409813.017
  -7044035.731 6  -5488850.35723  23353839.067
  -9881689.563 8  -7700007.85528  20855096.215
 92  5  7  1 20  0.0000000  0  4G12G13G20G24
   -892121.877 8   -695159.65926  21150534.195
   9338003.578 7   7276362.44423  22424615.565
  -7136785.991 6  -5561123.18622  23336192.691
  -9910313.081 8  -7722311.86728  20849648.397
 92  5  7  1 20 30.0000000  0  4G12G13G20G24
   -852519.224 8   -664300.46626  21158070.072
   9415898.628 7   7337059.79523  22439437.903
  -7229429.305 6  -5633312.66723  23318559.805
  -9938397.946 8  -7744196.15628  20844303.989
 92  5  7  1 21  0.0000000  0  4G12G13G20G24
   -812326.815 8   -632981.73828  21165719.270
   9493899.082 7   7397839.30422  22454283.326
  -7321962.869 6  -5705416.62022  23300952.378
  -9965934.024 8  -7765652.82329  20839065.712
 92  5  7  1 21 30.0000000  0  4G12G13G20G24
   -771547.998 8   -601206.07527  21173477.899
   9572000.292 7   7458697.38521  22469143.443
  -7414387.289 6  -5777435.55722  23283361.459
  -9992909.885 8  -7786672.95129  20833929.974
 92  5  7  1 22  0.0000000  0  4G12G13G20G24
   -730179.795 8   -568971.13427  21181350.460
   9650204.296 7   7519635.57122  22484023.942
  -7506696.850 6  -5849364.96722  23265795.721
 -10019307.410 8  -7807242.42728  20828907.853
 92  5  7  1 22 30.0000000  0  4G12G13G20G24
   -688226.465 8   -536280.25427  21189334.231
   9728506.447 7   7580650.15723  22498925.416
  -7598893.249 6  -5921206.21023  23248253.069
 -10045134.829 8  -7827367.65628  20823993.349
 92  5  7  1 23  0.0000000  0  4G12G13G20G24
   -645691.773 8   -503136.36827  21197427.729
   9806902.813 7   7641738.15923  22513843.991
  -7690977.357 6  -5992959.97723  23230729.299
 -10070409.907 8  -7847062.49829  20819182.289
 92  5  7  1 23 30.0000000  0  4G12G13G20G24
   -602577.144 8   -469540.58727  21205633.642
   9885391.752 7   7702898.31222  22528778.445
  -7782947.488 6  -6064624.92723  23213226.224
 -10095132.523 8  -7866326.85328  20814478.844
 92  5  7  1 24  0.0000000  0  4G12G13G20G24
   -558876.613 8   -435488.26327  21213949.595
   9963978.188 7   7764134.53921  22543734.504
  -7874794.697 6  -6136194.09922  23195748.313
 -10119300.161 8  -7885158.74829  20809879.717
 92  5  7  1 24 30.0000000  0  4G12G13G20G24
   -514581.172 8   -400972.36727  21222377.946
  10042670.639 7   7825453.29224  22558710.333
  -7966507.266 7  -6207658.34222  23178297.397
 -10142911.736 8  -7903557.35228  20805386.722
 92  5  7  1 25  0.0000000  0  4G12G13G20G24
   -469695.864 8   -365996.83227  21230919.635
  10121464.107 7   7886850.71823  22573701.448
  -8058086.779 7  -6279018.92623  23160870.458
 -10165960.118 8  -7921517.10028  20801002.861
 92  5  7  1 25 30.0000000  0  4G12G13G20G24
   -424235.345 8   -330573.07527  21239571.349
  10200343.609 7   7948315.19123  22588713.260
  -8149545.038 6  -6350285.01523  23143468.403
 -10188455.741 8  -7939046.12929  20796720.630
 92  5  7  1 26  0.0000000  0  4G12G13G20G24
   -378201.375 8   -294702.48127  21248330.991
  10279306.886 7   8009844.98323  22603740.358
  -8240881.035 6  -6421455.82924  23126086.451
 -10210409.476 8  -7956152.91128  20792540.622
 92  5  7  1 26 30.0000000  0  4G12G13G20G24
   -331586.615 8   -258379.33626  21257201.251
  10358360.952 7   8071445.59023  22618783.650
  -8332084.078 6  -6492523.08024  23108732.052
 -10231820.676 8  -7972836.95328  20788469.434
 92  5  7  1 27  0.0000000  0  4G12G13G20G24
   -284391.583 8   -221603.99827  21266183.925
  10437504.666 7   8133115.97523  22633844.322
  -8423151.365 6  -6563484.52324  23091403.462
 -10252692.000 8  -7989100.29929  20784495.095
 92  5  7  1 27 30.0000000  0  4G12G13G20G24
   -236619.479 8   -184379.01927  21275271.528
  10516735.230 7   8194853.98622  22648925.673
  -8514083.248 6  -6634340.45023  23074096.738
 -10273027.851 8  -8004946.39029  20780625.980
 92  5  7  1 28  0.0000000  0  4G12G13G20G24
   -188283.729 8   -146714.82527  21284472.172
  10596038.433 7   8256648.63822  22664013.323
  -8604890.086 6  -6705098.92522  23056818.195
 -10292830.316 8  -8020376.86429  20776856.088
 92  5  7  1 28 30.0000000  0  4G12G13G20G24
   -139384.615 8   -108611.63927  21293776.227
  10675414.104 7   8318499.76422  22679119.278
  -8695568.676 6  -6775757.49322  23039562.443
 -10312080.641 8  -8035377.09928  20773195.922
 92  5  7  1 29  0.0000000  0  4G12G13G20G24
    -89919.666 8    -70067.56526  21303189.101
  10754864.816 7   8380409.43721  22694233.313
  -8786113.298 6  -6846311.68322  23022333.372
 -10330767.347 8  -8049938.15129  20769640.981
 92  5  7  1 29 30.0000000  0  4G12G13G20G24
    -39889.724 8    -31083.22426  21312709.312
  10834389.255 7   8442376.47524  22709370.731
  -8876521.553 6  -6916759.61424  23005128.574
 -10348883.071 8  -8064054.28128  20766192.172
 92  5  7  1 30  0.0000000  0  4G12G13G20G24
     10699.991 8      8337.31226  21322338.045
  10913982.754 7   8504397.28724  22724514.152
  -8966794.995 7  -6987102.47523  22987949.881
 -10366440.706 8  -8077735.52328  20762851.869
 92  5  7  1 30 30.0000000  0  4G12G13G20G24
     61855.832 8     48198.98027  21332070.224
  10993651.840 7   8566477.03222  22739671.045
  -9056924.284 7  -7057333.01924  22970798.743
 -10383439.086 8  -8090981.01029  20759618.012
 92  5  7  1 31  0.0000000  0  4G12G13G20G24
    113574.711 8     88499.36527  21341915.096
  11073392.945 7   8628613.00521  22754852.543
  -9146909.123 6  -7127451.01222  22953675.193
 -10399894.275 8  -8103803.20929  20756483.691
 92  5  7  1 31 30.0000000  0  4G12G13G20G24
    165858.370 8    129239.85026  21351860.114
  11153207.984 7   8690806.50723  22770039.136
  -9236744.654 7  -7197452.66323  22936580.733
 -10415805.706 8  -8116201.70428  20753457.876
 92  5  7  1 32  0.0000000  0  4G12G13G20G24
    218699.567 8    170414.78226  21361917.547
  11233089.793 7   8753051.97523  22785238.310
  -9326434.366 7  -7267340.65723  22919510.546
 -10431186.821 8  -8128186.97929  20750528.002
 92  5  7  1 32 30.0000000  0  4G12G13G20G24
    272102.326 8    212027.29326  21372078.111
  11313042.617 7   8815352.79623  22800455.773
  -9415970.830 7  -7337109.26922  22902475.155
 -10446020.365 8  -8139745.55829  20747707.855
 92  5  7  1 33  0.0000000  0  4G12G13G20G24
    326064.623 8    254075.80827  21382348.402
  11393064.675 7   8877707.57622  22815680.128
  -9505352.188 7  -7406757.00723  22885466.428
 -10460311.160 8  -8150881.22429  20744986.947
 92  5  7  1 33 30.0000000  0  4G12G13G20G24
    380585.370 8    296559.46727  21392724.528
  11473154.679 6   8940115.46622  22830920.380
  -9594575.944 7  -7476281.92922  22868487.069
 -10474051.967 8  -8161588.33229  20742373.358
 92  5  7  1 34  0.0000000  0  4G12G13G20G24
    435663.932 8    339477.80326  21403204.379
  11553312.196 6   9002575.77822  22846175.622
  -9683639.618 7  -7545682.11322  22851537.708
 -10487230.137 8  -8171857.01729  20739864.086
 92  5  7  1 34 30.0000000  0  4G12G13G20G24
    491286.734 8    382820.21526  21413788.843
  11633524.584 6   9065078.86622  22861435.052
  -9772553.206 7  -7614965.36523  22834618.326
 -10499853.196 8  -8181693.14828  20737464.245
 92  5  7  1 35  0.0000000  0  4G12G13G20G24
    547448.568 8    426582.66226  21424477.642
  11713787.045 7   9127620.96323  22876711.880
  -9861317.992 7  -7684132.68524  22817725.625
 -10511933.613 8  -8191106.43829  20735166.052
 92  5  7  1 35 30.0000000  0  4G12G13G20G24
    604149.387 8    470765.07727  21435267.182
  11794099.327 7   9190201.89422  22891997.102
  -9949930.339 7  -7753181.20523  22800864.998
 -10523465.481 8  -8200092.29129  20732970.657
 92  5  7  1 36  0.0000000  0  4G12G13G20G24
    661391.479 8    515369.24826  21446159.241
  11874463.610 7   9252823.44922  22907288.920
 -10038384.576 7  -7822106.51122  22784031.052
 -10534451.542 8  -8208652.83629  20730879.912
 92  5  7  1 36 30.0000000  0  4G12G13G20G24
    719168.878 8    560390.56226  21457156.526
  11954875.001 7   9315481.63423  22922588.224
 -10126682.852 7  -7890910.29623  22767227.975
 -10544914.164 8  -8216805.51229  20728888.981
 92  5  7  1 37  0.0000000  0  4G12G13G20G24
    777481.307 8    605828.79225  21468252.439
  12035333.692 7   9378176.63723  22937899.830
 -10214821.391 6  -7959589.62724  22750457.583
 -10554852.379 8  -8224549.56328  20726995.807
 92  5  7  1 37 30.0000000  0  5G12G13G20G24G16
    836332.841 8    651687.10126  21479451.186
  12115844.083 7   9440911.93722  22953220.109
 -10302792.758 6  -8028138.69924  22733714.780
 -10564262.581 8  -8231882.17129  20725208.730
   -431357.741 5   -336122.46922  24986989.065
 92  5  7  1 38  0.0000000  0  5G12G13G20G24G16
    895724.036 8    697965.90326  21490752.470
  12196406.887 7   9503688.0452   22968550.300
 -10390592.433 6  -8096553.98824  22717006.737
 -10573143.525 8  -8238802.37429  20723514.018
   -524213.787 5   -408477.70422  24969321.104
 92  5  7  1 38 30.0000000  0  5G12G13G20G24G16
    955655.054 8    744665.34827  21502155.961
  12277022.827 6   9566505.77021  22983891.275
 -10478216.399 7  -8164832.35422  22700335.288
 -10581486.611 8  -8245303.46228  20721926.903
   -617098.084 5   -480855.26722  24951639.636
 92  5  7  1 39  0.0000000  0  5G12G13G20G24G16
   1016117.595 8    791778.98426  21513662.303
  12357684.415 7   9629358.87822  22999241.254
 -10565669.068 7  -8232977.24624  22683692.910
 -10589290.246 8  -8251384.20629  20720444.140
   -710019.329 5   -553261.17921  24933957.574
 92  5  7  1 39 30.0000000  0  5G12G13G20G24G16
   1077112.531 8    839307.47926  21525268.460
  12438393.052 7   9692248.65322  23014601.721
 -10652945.689 7  -8300984.96024  22667084.701
 -10596544.725 8  -8257037.02828  20719062.991
   -802978.549 5   -625697.19421  24916271.325
 92  5  7  1 40  0.0000000  0  5G12G13G20G24G16
   1138647.312 8    887256.62126  21536976.265
  12519156.819 7   9755181.34921  23029973.286
 -10740034.889 7  -8368846.61523  22650514.567
 -10603229.868 8  -8262246.21629  20717789.474
   -895962.959 5   -698152.80723  24898573.977
 92  5  7  1 40 30.0000000  0  5G12G13G20G24G16
   1200711.056 8    935617.93126  21548789.277
  12599965.728 7   9818149.28821  23045347.539
 -10826943.657 7  -8436567.69024  22633970.836
 -10609357.303 8  -8267020.83529  20716624.183
   -988976.924 5   -770631.01223  24880870.627
 92  5  7  1 41  0.0000000  0  5G12G13G20G24G16
   1263300.887 8    984389.19127  21560697.934
  12680817.113 7   9881150.41822  23060734.094
 -10913670.845 7  -8504147.29324  22617468.444
 -10614933.755 8  -8271366.10429  20715563.821
  -1082002.460 5   -843118.64722  24863171.482
 92  5  7  1 41 30.0000000  0  5G12G13G20G24G16
   1326418.961 7   1033572.06126  21572710.018
  12761713.866 7   9944186.79522  23076126.634
 -11000210.311 7  -8571580.55523  22601003.553
 -10619954.922 8  -8275278.68929  20714606.275
  -1175028.135 5   -915605.92122  24845469.335
 92  5  7  1 42  0.0000000  0  5G12G13G20G24G16
   1390061.808 7   1083163.85126  21584821.341
  12842653.398 7  10007256.48122  23091529.959
 -11086561.539 7  -8638867.18324  22584570.735
 -10624435.444 8  -8278769.98029  20713754.268
  -1268048.482 5   -988089.54722  24827766.892
 92  5  7  1 42 30.0000000  0  5G12G13G20G24G16
   1454232.078 8   1133166.63525  21597030.090
  12923639.349 7  10070362.30522  23106942.602
 -11172717.829 7  -8706001.89724  22568175.977
 -10628378.929 8  -8281842.80829  20713006.578
  -1361049.692 5  -1060558.25524  24810076.734
 92  5  7  1 43  0.0000000  0  5G12G13G20G24G16
   1518930.855 8   1183581.22726  21609343.766
  13004673.299 7  10133505.78322  23122363.918
 -11258674.288 7  -8772980.88824  22551817.497
 -10631777.050 8  -8284490.68029  20712356.942
  -1454036.098 4  -1133015.36722  24792371.603
 92  5  7  1 43 30.0000000  0  5G12G13G20G24G16
   1584149.971 8   1234401.27826  21621755.478
  13085748.273 6  10196681.01821  23137788.846
 -11344434.540 7  -8839806.97924  22535499.798
 -10634629.808 8  -8286713.59329  20711815.811
  -1547033.644 4  -1205480.82022  24774678.740
 92  5  7  1 44  0.0000000  0  4G12G13G20G24
   1649887.139 7   1285624.99926  21634264.317
  13166862.329 6  10259886.64323  23153223.965
 -11429996.800 7  -8906478.80925  22519215.674
 -10636943.620 8  -8288516.55629  20711372.418
 92  5  7  1 44 30.0000000  0  4G12G13G20G24
   1716147.632 7   1337256.51526  21646872.675
  13248021.643 6  10323127.59023  23168668.071
 -11515352.109 7  -8972989.37824  22502972.610
 -10638699.051 8  -8289884.40829  20711040.846
 92  5  7  1 45  0.0000000  0  4G12G13G20G24
   1782923.654 8   1389289.75425  21659577.586
  13329219.442 6  10386398.54123  23184123.257
 -11600503.836 7  -9039341.28924  22486771.234
 -10639899.859 8  -8290820.08829  20710815.407
 92  5  7  1 45 30.0000000  0  4G12G13G20G24
   1850210.315 8   1441720.88026  21672383.515
  13410452.126 6  10449696.81022  23199577.275
 -11685452.678 7  -9105535.12523  22470605.824
 -10640560.029 8  -8291334.50229  20710686.781
 92  5  7  1 46  0.0000000  0  4G12G13G20G24
   1918015.930 7   1494556.38926  21685286.293
  13491728.510 7  10513029.00522  23215048.952
 -11770186.306 7  -9171561.25123  22454481.194
 -10640679.423 8  -8291427.58829  20710665.213
 92  5  7  1 46 30.0000000  0  4G12G13G20G24
   1986336.791 7   1547793.37126  21698287.683
  13573046.421 6  10576393.48823  23230521.537
 -11854703.518 7  -9237418.75224  22438395.828
 -10640253.854 8  -8291095.91929  20710744.053
 92  5  7  1 47  0.0000000  0  4G12G13G20G24
   2055167.174 8   1601427.40625  21711386.514
  13654400.702 6  10639786.37722  23245999.827
 -11939006.275 7  -9303109.14122  22422353.930
 -10639293.147 8  -8290347.31929  20710926.024
 92  5  7  1 47 30.0000000  0  4G12G13G20G24
   2124503.993 8   1655456.06226  21724582.177
  13735789.559 6  10703206.14522  23261489.513
 -12023093.049 7  -9368631.20823  22406355.797
 -10637795.702 8  -8289180.45929  20711211.422
 92  5  7  1 48  0.0000000  0  4G12G13G20G24
   2194351.704 8   1709882.80426  21737873.781
  13817218.589 6  10766657.50422  23276982.776
 -12106955.080 7  -9433978.16224  22390394.851
 -10635737.602 8  -8287576.72929  20711605.954
 92  5  7  1 48 30.0000000  0  4G12G13G20G24
   2264709.489 7   1764707.00326  21751260.715
  13898687.807 6  10830139.94322  23292488.952
 -12190589.108 7  -9499147.46925  22374477.076
 -10633112.743 8  -8285531.35129  20712103.006
 92  5  7  1 49  0.0000000  0  4G12G13G20G24
   2335575.775 7   1819927.43726  21764748.669
  13980197.380 6  10893653.77722  23307994.815
 -12273992.170 7  -9564136.80324  22358609.663
 -10629923.797 8  -8283046.44229  20712710.082
 92  5  7  1 49 30.0000000  0  5G12G13G20G24G16
   2406939.826 7   1875535.74325  21778326.579
  14061737.464 6  10957191.40122  23323510.571
 -12357170.613 7  -9628951.08525  22342780.012
 -10626191.451 8  -8280138.09529  20713421.789
    -60321.69014    -47003.79522  24562421.481
 92  5  7  1 50  0.0000000  0  5G12G13G20G24G16
   2478808.867 8   1931537.55825  21792003.117
  14143316.100 6  11020759.16222  23339035.314
 -12440112.453 7  -9693581.02524  22326996.535
 -10621915.410 8  -8276806.09029  20714234.533
   -153086.165 5   -119287.66723  24544763.414
 92  5  7  1 50 30.0000000  0  5G12G13G20G24G16
   2551174.169 7   1987926.06426  21805774.672
  14224925.727 6  11084351.12522  23354567.875
 -12522822.261 7  -9758030.14925  22311256.246
 -10617122.373 8  -8273071.24429  20715147.999
   -245794.656 5   -191527.84721  24527131.417
 92  5  7  1 51  0.0000000  0  6G 3G12G13G20G24G16
   -106055.738 4    -82640.63222  25212017.179
   2624043.735 7   2044707.50426  21819641.278
  14306576.014 6  11147974.63022  23370104.310
 -12605287.486 7  -9822288.71024  22295565.098
 -10611805.738 8  -8268928.40429  20716158.001
   -338432.875 5   -263713.31622  24509496.436
 92  5  7  1 51 30.0000000  0  6G 3G12G13G20G24G16
   -189630.932 4   -147764.00222  25196110.189
   2697410.503 7   2101876.36826  21833603.512
  14388260.964 6  11211625.14824  23385647.359
 -12687511.026 7  -9886358.92225  22279919.232
 -10605962.932 8  -8264375.54629  20717267.538
   -431010.620 6   -335851.61422  24491879.726
 92  5  7  1 52  0.0000000  0  6G 3G12G13G20G24G16
   -273078.924 5   -212788.17822  25180234.993
   2771267.693 7   2159427.38325  21847656.887
  14469975.364 6  11275298.59423  23401200.877
 -12769495.266 7  -9950242.69226  22264317.429
 -10599584.226 8  -8259405.11329  20718483.190
   -523534.123 6   -407947.75223  24474277.412
 92  5  7  1 52 30.0000000  0  6G 3G12G13G20G24G16
   -356398.504 5   -277712.45522  25164379.865
   2845613.904 7   2217359.46326  21861803.186
  14551718.743 6  11338994.62922  23416753.227
 -12851236.807 7 -10013937.34725  22248763.003
 -10592665.779 8  -8254014.10329  20719801.379
   -616001.593 6   -480000.56122  24456677.489
 92  5  7  1 53  0.0000000  0  6G 3G12G13G20G24G16
   -439590.643 5   -342537.73222  25148550.528
   2920445.799 7   2275669.97526  21876046.036
  14633489.420 6  11402711.94022  23432317.547
 -12932734.646 7 -10077442.10125  22233255.343
 -10585189.732 8  -8248188.60029  20721222.403
   -708418.942 5   -552013.93822  24439093.167
 92  5  7  1 53 30.0000000  0  6G 3G12G13G20G24G16
   -522652.232 5   -407260.88222  25132735.867
   2995763.863 7   2334359.34226  21890374.602
  14715289.511 6  11466452.38121  23447877.365
 -13013983.656 7 -10140752.96023  22217794.136
 -10577156.263 8  -8241928.74729  20722752.228
   -800791.628 5   -623992.50922  24421507.343
 92  5  7  1 54  0.0000000  0  6G 3G12G13G20G24G16
   -605583.507 5   -471882.39322  25116958.392
   3071565.380 7   2393425.41425  21904801.813
  14797117.544 6  11530214.32021  23463452.784
 -13094981.586 7 -10203868.16723  22202380.307
 -10568573.370 8  -8235240.76229  20724384.609
   -893107.859 5   -695926.99322  24403944.292
 92  5  7  1 54 30.0000000  0  6G 3G12G13G20G24G16
   -688386.525 5   -536404.02721  25101202.206
   3147845.821 7   2452864.68025  21919319.871
  14878970.331 6  11593995.61823  23479030.611
 -13175728.358 7 -10266787.68024  22187011.150
 -10559443.676 8  -8228126.69529  20726123.401
   -985350.649 5   -767804.30222  24386390.857
 92  5  7  1 55  0.0000000  0  6G 3G12G13G20G24G16
   -771065.929 5   -600829.28423  25085460.993
   3224597.609 7   2512671.22926  21933922.161
  14960841.967 6  11657791.59522  23494607.216
 -13256227.107 7 -10329513.93725  22171695.059
 -10549771.470 8  -8220589.90129  20727964.731
  -1077512.753 6   -839618.72622  24368855.988
 92  5  7  1 55 30.0000000  0  6G 3G12G13G20G24G16
   -853620.564 4   -665157.46421  25069759.374
   3301819.684 7   2572844.21126  21948618.891
  15042732.599 6  11721602.37923  23510188.638
 -13336473.982 7 -10392043.92825  22156423.919
 -10539566.122 8  -8212637.67729  20729904.689
  -1169576.837 5   -911356.92721  24351335.219
 92  5  7  1 56  0.0000000  0  6G 3G12G13G20G24G16
   -936035.348 4   -729376.98222  25054065.835
   3379524.407 7   2633393.30026  21963406.154
  15124655.599 6  11785438.36823  23525778.435
 -13416452.342 8 -10454364.67425  22141203.770
 -10528805.981 8  -8204253.12529  20731953.763
  -1261513.442 5   -982996.02121  24333835.442
 92  5  7  1 56 30.0000000  0  6G 3G12G13G20G24G16
  -1018315.182 3   -793490.9162   25038415.171
   3457704.182 7   2694312.57225  21978282.447
  15206605.802 6  11849295.58822  23541377.552
 -13496164.992 8 -10516478.37324  22126035.465
 -10517503.736 8  -8195446.17829  20734103.578
  -1353350.968 5  -1054557.66922  24316366.221
 92  5  7  1 57  0.0000000  0  5G12G13G20G24G16
   3536349.259 7   2755594.41925  21993246.898
  15288574.658 6  11913167.48622  23556976.947
 -13575616.739 8 -10578388.76326  22110917.224
 -10505678.683 8  -8186231.83129  20736352.317
  -1445127.985 5  -1126072.40622  24298900.316
 92  5  7  1 57 30.0000000  0  5G12G13G20G24G16
   3615464.751 7   2817242.81224  22008301.568
  15370569.119 6  11977059.23222  23572579.344
 -13654797.570 8 -10640088.08625  22095848.158
 -10493329.288 8  -8176608.92129  20738703.891
  -1536847.325 5  -1197541.90722  24281451.808
 92  5  7  1 58  0.0000000  0  5G12G13G20G24G16
   3695045.650 7   2879253.83126  22023445.582
  15452585.943 6  12040968.30022  23588184.742
 -13733707.832 8 -10701576.55025  22080834.864
 -10480460.637 8  -8166581.38229  20741152.000
  -1628519.654 5  -1268975.10922  24264001.783
 92  5  7  1 58 30.0000000  0  5G12G13G20G24G16
   3775089.700 7   2941625.77225  22038677.144
  15534624.397 6  12104894.27923  23603795.829
 -13812345.514 7 -10762852.60325  22065867.725
 -10467083.052 8  -8156157.27329  20743700.238
  -1720119.799 5  -1340351.73622  24246577.845
 92  5  7  1 59  0.0000000  0  5G12G13G20G24G16
   3855595.642 7   3004357.62525  22053997.737
  15616684.723 6  12168837.30822  23619411.418
 -13890707.009 7 -10823913.46025  22050955.746
 -10453186.505 8  -8145328.79129  20746341.415
  -1811605.471 5  -1411639.03723  24229159.299
 92  5  7  1 59 30.0000000  0  5G12G13G20G24G16
   3936557.700 7   3067444.91424  22069405.861
  15698762.532 6  12232793.83722  23635033.900
 -13968793.002 8 -10884759.65026  22036098.334
 -10438768.793 8  -8134094.21028  20749085.410
  -1902948.899 5  -1482815.57421  24211783.036
 92  5  7  2  0  0.0000000  0  5G12G13G20G24G16
   4017982.510 8   3130892.76326  22084901.532
  15780866.552 6  12296770.80121  23650657.289
 -14046591.974 7 -10945382.17726  22021294.581
 -10423820.669 8  -8122446.31328  20751932.238
  -1994137.595 5  -1553871.51023  24194430.452
 92  5  7  2  0 30.0000000  0  6G 3G12G13G20G24G16
    -29762.35715    -23189.97122  24914067.258
   4099861.014 7   3194694.12126  22100479.359
  15862989.039 6  12360762.21624  23666281.272
 -14124108.491 8 -11005784.62025  22006543.580
 -10408346.848 8  -8110388.78529  20754874.397
  -2085179.479 5  -1624813.06722  24177106.940
 92  5  7  2  1  0.0000000  0  6G 3G12G13G20G24G16
   -110830.988 5    -86360.58222  24898642.330
   4182193.808 7   3258849.49525  22116146.513
  15945132.683 6  12424770.15421  23681919.354
 -14201336.624 8 -11065962.33824  21991846.867
 -10392339.940 8  -8097915.85329  20757921.485
  -2176110.743 5  -1695668.39323  24159798.121
 92  5  7  2  1 30.0000000  0  6G 3G12G13G20G24G16
   -191767.572 5   -149427.80223  24883241.396
   4264971.999 7   3323351.92023  22131899.697
  16027290.807 6  12488789.3942   23697548.432
 -14278280.699 8 -11125918.70325  21977204.704
 -10375806.125 8  -8085032.35229  20761068.404
  -2266955.211 4  -1766456.13122  24142501.588
 92  5  7  2  2  0.0000000  0  6G 3G12G13G20G24G16
   -272570.482 5   -212390.95722  24867866.533
   4348194.463 7   3388200.54625  22147737.149
  16109464.262 6  12552820.46021  23713184.996
 -14354936.797 8 -11185650.71325  21962618.590
 -10358740.585 8  -8071734.51629  20764315.157
  -2357705.765 4  -1837170.65221  24125238.349
 92  5  7  2  2 30.0000000  0  6G 3G12G13G20G24G16
   -353238.710 4   -275249.06622  24852510.568
   4431859.912 7   3453394.35424  22163660.612
  16191652.634 6  12616863.12422  23728829.082
 -14431301.677 8 -11245155.76126  21948086.154
 -10341137.221 8  -8058017.60829  20767663.854
  -2448348.335 4  -1907801.05724  24107996.976
 92  5  7  2  3  0.0000000  0  6G 3G12G13G20G24G16
   -433772.791 4   -338002.77522  24837194.773
   4515964.493 7   3518930.32424  22179663.247
  16273854.403 6  12680916.38122  23744465.349
 -14507374.000 8 -11304432.85625  21933608.581
 -10322993.209 8  -8043879.41329  20771118.351
  -2538875.500 4  -1978341.51723  24090767.311
 92  5  7  2  3 30.0000000  0  6G 3G12G13G20G24G16
   -514174.649 4   -400653.41221  24821887.059
   4600503.634 7   3584804.92424  22195749.503
  16356067.076 6  12744977.99822  23760113.309
 -14583153.004 8 -11363481.38026  21919189.466
 -10304320.036 8  -8029328.88929  20774672.699
  -2629259.756 4  -2048770.61423  24073567.312
 92  5  7  2  4  0.0000000  0  6G 3G12G13G20G24G16
   -594442.379 4   -463199.62122  24806609.934
   4685476.703 7   3651017.66124  22211916.118
  16438291.495 6  12809048.73522  23775761.285
 -14658634.685 8 -11422298.22326  21904825.511
 -10285131.399 8  -8014376.69529  20778322.360
  -2719501.388 4  -2119088.64822  24056391.307
 92  5  7  2  4 30.0000000  0  6G 3G12G13G20G24G16
   -674572.349 5   -525638.51421  24791366.697
   4770884.502 7   3717569.14024  22228169.966
  16520530.994 5  12873131.42322  23791401.758
 -14733813.362 8 -11480878.96526  21890517.606
 -10265429.728 8  -7999024.74229  20782071.277
  -2809618.895 4  -2189309.85924  24039242.280
 92  5  7  2  5  0.0000000  0  6G 3G12G13G20G24G16
   -754566.856 5   -587972.01421  24776140.231
   4856721.827 7   3784455.30724  22244507.157
  16602781.909 6  12937222.88921  23807068.302
 -14808689.087 8 -11539223.63826  21876270.865
 -10245232.353 8  -7983286.51629  20785915.508
  -2899616.721 4  -2259437.88722  24022114.228
 92  5  7  2  5 30.0000000  0  6G 3G12G13G20G24G16
   -834421.946 4   -650196.8332   24760944.948
   4942990.027 7   3851677.20525  22260922.576
  16685047.287 6  13001325.67622  23822718.076
 -14883255.560 8 -11597327.32725  21862081.988
 -10224546.562 8  -7967167.71729  20789850.881
  -2989487.651 5  -2329466.95223  24005020.379
 92  5  7  2  6  0.0000000  0  6G 3G12G13G20G24G16
   -914145.157 4   -712318.92822  24745767.656
   5029678.983 7   3919226.96325  22277419.855
  16767319.315 5  13065433.56022  23838359.753
 -14957517.932 8 -11655194.04426  21847950.679
 -10203369.584 8  -7950666.16329  20793882.789
  -3079238.766 5  -2399402.70823  23987938.797
 92  5  7  2  6 30.0000000  0  6G 3G12G13G20G24G16
   -993730.058 4   -774333.13622  24730627.847
   5116791.835 7   3987107.05024  22293994.788
  16849602.945 6  13129550.45622  23854029.595
 -15031467.971 8 -11712817.39726  21833876.625
 -10181687.701 8  -7933771.19929  20798007.339
  -3168838.003 5  -2469220.08423  23970883.303
 92  5  7  2  7  0.0000000  0  6G 3G12G13G20G24G16
  -1073169.780 4   -836234.08122  24715509.310
   5204332.682 7   4055320.63825  22310653.952
  16931904.714 6  13193681.53822  23869695.546
 -15105096.436 8 -11770190.17926  21819865.828
 -10159493.516 8  -7916477.01829  20802229.018
  -3258248.694 5  -2538890.56523  23953866.776
 92  5  7  2  7 30.0000000  0  6G 3G12G13G20G24G16
  -1152469.012 4   -898025.49522  24700424.347
   5292294.282 7   4123862.09924  22327391.660
  17014219.399 6  13257822.76922  23885357.605
 -15178405.900 8 -11827314.37426  21805917.083
 -10136780.648 8  -7898778.67629  20806551.123
  -3347474.967 5  -2608417.32224  23936890.733
 92  5  7  2  8  0.0000000  0  6G 3G12G13G20G24G16
  -1231625.066 4   -959705.44521  24685356.782
   5380676.105 7   4192731.00225  22344210.319
  17096548.064 6  13321974.84523  23901018.163
 -15251391.516 8 -11884186.21626  21792027.094
 -10113545.154 8  -7880673.08429  20810973.968
  -3436516.752 6  -2677800.36323  23919950.061
 92  5  7  2  8 30.0000000  0  6G 3G12G13G20G24G16
  -1310638.134 4  -1021273.94921  24670329.980
   5469475.710 7   4261925.44224  22361108.726
  17178890.726 6  13386137.87122  23916689.820
 -15324050.688 8 -11940803.68526  21778199.472
 -10089789.025 8  -7862161.81029  20815494.534
  -3525379.729 6  -2747044.00922  23903038.479
 92  5  7  2  9  0.0000000  0  6G 3G12G13G20G24G16
  -1389505.318 4  -1082728.78323  24655307.385
   5558692.844 7   4331445.23425  22378089.865
  17261249.468 6  13450313.39921  23932364.164
 -15396378.304 8 -11997162.81626  21764436.590
 -10065511.453 8  -7843244.21829  20820113.136
  -3614085.405 6  -2816165.15922  23886156.266
 92  5  7  2  9 30.0000000  0  6G 3G12G13G20G24G16
  -1468230.350 4  -1144072.83722  24640330.351
   5648320.922 7   4401285.23825  22395144.765
  17343619.570 6  13514497.68322  23948040.322
 -15468375.912 8 -12053264.77826  21750736.075
 -10040714.910 8  -7823922.23029  20824835.165
  -3702651.098 6  -2885177.18323  23869304.329
 92  5  7  2 10  0.0000000  0  6G 3G12G13G20G24G16
  -1546804.802 4  -1205299.49422  24625379.703
   5738365.655 7   4471449.91525  22412276.708
  17426009.065 6  13578697.06121  23963724.561
 -15540033.040 8 -12109101.44426  21737100.911
 -10015387.408 8  -7804186.51729  20829651.634
  -3791052.659 6  -2954061.37523  23852483.872
 92  5  7  2 10 30.0000000  0  6G 3G12G13G20G24G16
  -1625235.049 5  -1266413.82921  24610451.844
   5828817.842 7   4541932.08425  22429488.696
  17508410.586 6  13642905.90721  23979396.811
 -15611353.567 8 -12164675.82426  21723529.318
  -9989527.289 8  -7784035.78229  20834574.218
  -3879282.322 6  -3022811.57121  23835693.988
 92  5  7  2 11  0.0000000  0  6G 3G12G13G20G24G16
  -1703518.794 5  -1327414.03722  24595564.139
   5919676.512 7   4612730.98226  22446783.415
  17590825.278 6  13707125.04923  23995075.360
 -15682333.369 8 -12219984.71026  21710022.466
  -9963131.977 8  -7763468.00929  20839597.839
  -3967329.844 6  -3091419.87024  23818937.696
 92  5  7  2 11 30.0000000  0  6G 3G12G13G20G24G16
  -1781656.644 4  -1388300.52723  24580686.048
   6010938.626 7   4683844.23424  22464149.487
  17673253.028 5  13771354.37523  24010756.300
 -15752970.238 8 -12275026.37926  21696579.778
  -9936210.634 8  -7742490.34729  20844720.403
  -4055172.113 6  -3159868.25323  23802219.463
 92  5  7  2 12  0.0000000  0  6G 3G12G13G20G24G16
  -1859649.868 4  -1449074.34622  24565842.718
   6102599.822 7   4755268.47825  22481589.916
  17755691.472 5  13835591.95322  24026440.835
 -15823263.694 8 -12329800.45926  21683203.627
  -9908774.212 9  -7721111.32029  20849941.892
  -4142802.307 6  -3228151.32422  23785542.918
 92  5  7  2 12 30.0000000  0  6G 3G12G13G20G24G16
  -1937498.916 5  -1509735.77922  24551036.575
   6194656.888 7   4827001.20625  22499105.293
  17838139.566 6  13899837.41021  24042143.972
 -15893211.440 8 -12384305.14526  21669893.753
  -9880839.987 8  -7699344.39629  20855256.600
  -4230236.358 6  -3296281.63423  23768903.838
 92  5  7  2 13  0.0000000  0  6G 3G12G13G20G24G16
  -2015202.505 5  -1570283.92222  24536249.016
   6287107.882 7   4899040.88325  22516699.213
  17920597.278 6  13964090.09723  24057830.915
 -15962809.993 8 -12438537.73926  21656647.711
  -9852425.789 9  -7677203.46529  20860664.859
  -4317477.717 6  -3364261.73122  23752304.022
 92  5  7  2 13 30.0000000  0  6G 3G12G13G20G24G16
  -2092763.173 5  -1630720.73422  24521485.137
   6379947.703 7   4971383.54424  22534366.284
  18003062.045 6  14028348.27323  24073524.454
 -16032059.413 8 -12492498.28525  21643471.541
  -9823545.520 9  -7654699.37229  20866161.259
  -4404528.475 6  -3432093.35124  23735741.096
 92  5  7  2 14  0.0000000  0  6G 3G12G13G20G24G16
  -2170182.256 5  -1691047.09723  24506754.519
   6473172.037 7   5044025.81425  22552106.507
  18085531.623 6  14092610.18621  24089215.882
 -16100959.058 8 -12546186.29226  21630360.407
  -9794191.047 8  -7631825.75429  20871744.596
  -4491389.020 6  -3499776.74822  23719207.834
 92  5  7  2 14 30.0000000  0  6G 3G12G13G20G24G16
  -2247456.891 5  -1751260.98222  24492053.897
   6566780.854 7   5116967.68225  22569921.661
  18168008.654 6  14156878.18522  24104913.313
 -16169503.350 8 -12599597.39626  21617316.142
  -9764364.427 8  -7608584.24529  20877421.762
  -4578053.885 6  -3567307.66423  23702720.153
 92  5  7  2 15  0.0000000  0  6G 3G12G13G20G24G16
  -2324582.558 5  -1811358.76522  24477375.158
   6660775.923 7   5190210.53424  22587808.484
  18250496.980 6  14221154.74823  24120608.353
 -16237685.739 8 -12652726.48926  21604341.434
  -9734059.301 8  -7584969.86829  20883187.977
  -4664507.170 6  -3634673.73424  23686269.344
 92  5  7  2 15 30.0000000  0  6G 3G12G13G20G24G16
  -2401563.667 5  -1871343.91622  24462727.009
   6755149.608 7   5263748.41724  22605767.253
  18332991.938 6  14285436.44221  24136305.783
 -16305508.302 8 -12705575.20726  21591435.969
  -9703275.731 8  -7560982.67329  20889046.521
  -4750744.336 6  -3701871.36522  23669857.799
 92  5  7  2 16  0.0000000  0  6G 3G12G13G20G24G16
  -2478395.756 5  -1931212.95022  24448107.932
   6849903.502 7   5337582.53425  22623797.970
  18415496.931 5  14349726.25922  24152010.107
 -16372964.363 8 -12758138.33626  21578596.151
  -9671998.706 8  -7536610.96229  20894998.302
  -4836749.957 6  -3768888.59524  23653495.724
 92  5  7  2 16 30.0000000  0  6G 3G12G13G20G24G16
  -2555083.298 5  -1990969.34621  24433512.238
   6945030.282 6   5411707.20725  22641902.431
  18498007.132 5  14414019.81721  24167703.943
 -16440055.979 8 -12810417.47826  21565830.392
  -9640234.075 9  -7511859.31729  20901042.115
  -4922539.389 6  -3835737.38323  23637166.630
 92  5  7  2 17  0.0000000  0  6G 3G12G13G20G24G16
  -2631630.174 5  -2050616.10721  24418945.023
   7040523.163 6   5486117.16825  22660071.353
  18580518.570 5  14478314.37022  24183412.472
 -16506784.830 8 -12862413.94026  21553132.671
  -9607977.392 9  -7486724.24129  20907182.166
  -5008106.623 6  -3902412.98124  23620881.005
 92  5  7  2 17 30.0000000  0  6G 3G12G13G20G24G16
  -2708039.469 4  -2110155.73121  24404403.285
   7136375.965 6   5560807.56724  22678311.630
  18663027.378 5  14542606.83621  24199112.904
 -16573151.552 8 -12914128.22426  21540503.913
  -9575224.909 9  -7461202.83329  20913414.843
  -5093453.010 6  -3968916.54423  23604643.647
 92  5  7  2 18  0.0000000  0  5G12G13G20G24G16
   7232583.678 6   5635774.53024  22696619.962
  18745530.686 5  14606894.89321  24214815.133
 -16639155.687 8 -12965559.97326  21527942.322
  -9541970.275 9  -7435290.13729  20919741.071
  -5178591.325 6  -4035257.93423  23588440.161
 92  5  7  2 18 30.0000000  0  5G12G13G20G24G16
   7329148.382 6   5711019.69025  22714995.443
  18828033.047 5  14671182.24724  24230514.064
 -16704790.158 8 -13016703.67527  21515453.567
  -9508218.956 9  -7408990.41729  20926165.612
  -5263525.867 6  -4101440.55224  23572276.251
 92  5  7  2 19  0.0000000  0  5G12G13G20G24G16
   7426066.711 7   5786540.40324  22733438.665
  18910533.809 5  14735468.51222  24246208.494
 -16770053.201 8 -13067557.95126  21503035.260
  -9473975.809 9  -7382307.45529  20932681.314
  -5348239.743 6  -4167451.23322  23556158.514
 92  5  7  2 19 30.0000000  0  5G12G13G20G24G16
   7523339.467 7   5862337.27623  22751949.053
  18993035.919 5  14799755.72823  24261905.331
 -16834938.856 9 -13118118.15326  21490687.712
  -9439235.356 9  -7355236.96829  20939292.329
  -5432725.720 6  -4233284.28523  23540081.541
 92  5  7  2 20  0.0000000  0  5G12G13G20G24G16
   7620963.310 7   5938407.72023  22770524.199
  19075538.837 5  14864043.62621  24277612.359
 -16899444.705 8 -13168382.39826  21478412.112
  -9404002.463 9  -7327782.76629  20945996.895
  -5516973.618 6  -4298931.86422  23524048.037
 92  5  7  2 20 30.0000000  0  5G12G13G20G24G16
   7718934.773 7   6014749.05324  22789169.792
  19158041.766 5  14928331.36823  24293316.089
 -16963568.905 8 -13218349.25626  21466210.257
  -9368291.549 9  -7299956.09129  20952791.085
  -5600967.593 7  -4364381.55222  23508064.911
 92  5  7  2 21  0.0000000  0  6G 3G12G13G20G24G16
    -57809.97414    -45041.63222  24303371.132
   7817253.342 7   6091360.85224  22807875.343
  19240546.413 5  14992620.55724  24309007.831
 -17027306.938 8 -13268015.21426  21454081.850
  -9332103.416 8  -7271757.54929  20959675.510
  -5684693.077 7  -4429622.03424  23492133.334
 92  5  7  2 21 30.0000000  0  6G 3G12G13G20G24G16
   -133083.328 4   -103696.0192   24289036.545
   7915915.396 7   6168240.31324  22826653.732
  19323051.454 5  15056910.04321  24324710.950
 -17090657.012 8 -13317378.86026  21442025.686
  -9295442.814 9  -7243190.84129  20966655.894
  -5768168.040 6  -4494667.32122  23476249.430
 92  5  7  2 22  0.0000000  0  6G 3G12G13G20G24G16
   -208212.961 3   -162238.48621  24274755.933
   8014916.799 7   6245384.20224  22845492.097
  19405555.576 5  15121198.80622  24340409.585
 -17153617.655 8 -13366439.05626  21430046.583
  -9258324.076 9  -7214267.15329  20973718.398
  -5851413.870 7  -4559534.02123  23460408.995
 92  5  7  2 22 30.0000000  0  5G12G13G20G24G16
   8114252.094 7   6322788.25023  22864396.407
  19488055.968 5  15185484.66922  24356113.315
 -17216189.438 8 -13415196.24227  21418137.333
  -9220754.695 9  -7184992.31129  20980868.154
  -5934444.438 6  -4624233.02323  23444607.544
 92  5  7  2 23  0.0000000  0  5G12G13G20G24G16
   8213919.965 7   6400451.46323  22883361.879
  19570554.252 5  15249768.92121  24371806.244
 -17278368.304 8 -13463647.26627  21406304.829
  -9182726.234 9  -7155359.73629  20988102.438
  -6017256.818 6  -4688761.95124  23428848.043
 92  5  7  2 23 30.0000000  0  5G12G13G20G24G16
   8313914.089 6   6478368.89824  22902390.609
  19653046.515 6  15314048.45622  24387520.776
 -17340155.057 8 -13511792.73427  21394546.959
  -9144239.652 9  -7125370.19629  20995428.476
  -6099848.433 6  -4753118.92922  23413128.433
 92  5  7  2 24  0.0000000  0  5G12G13G20G24G16
   8414234.466 6   6556540.54524  22921479.594
  19735535.592 5  15378325.54623  24403203.810
 -17401544.763 8 -13559628.82327  21382866.150
  -9105297.648 9  -7095025.78629  21002837.542
  -6182181.377 6  -4817274.32823  23397465.763
 92  5  7  2 24 30.0000000  0  5G12G13G20G24G16
   8514883.352 6   6634968.17624  22940631.539
  19818026.377 5  15442603.92622  24418898.256
 -17462529.364 9 -13607149.24026  21371261.790
  -9065894.717 9  -7064322.20829  21010335.045
  -6264212.118 6  -4881194.20222  23381857.677
 92  5  7  2 25  0.0000000  0  5G12G13G20G24G16
   8615847.769 6   6713641.67623  22959846.724
  19900508.272 6  15506875.37521  24434596.577
 -17523116.592 8 -13654360.01128  21359730.564
  -9026045.480 9  -7033270.85629  21017919.800
  -6345940.884 6  -4944878.82821  23366304.141
 92  5  7  2 25 30.0000000  0  5G12G13G20G24G16
   8717126.904 6   6792560.40024  22979121.293
  19982983.454 6  15571141.57922  24450291.617
 -17583301.632 8 -13701257.39927  21348277.288
  -8985750.889 9  -7001872.47829  21025586.082
  -6427364.661 6  -5008325.77722  23350810.564
 92  5  7  2 26  0.0000000  0  5G12G13G20G24G16
   8818720.507 6   6871724.16422  22998454.598
  20065454.105 6  15635404.37622  24465994.143
 -17643079.860 8 -13747837.78427  21336902.573
  -8945005.144 9  -6970122.54729  21033341.115
  -6508482.285 6  -5071534.17821  23335369.460
 92  5  7  2 26 30.0000000  0  6G 3G12G13G20G24G16
    -12302.20014     -9580.70721  24147287.781
   8920620.941 6   6951127.02822  23017843.971
  20147915.474 6  15699659.99322  24481675.694
 -17702453.349 8 -13794102.78527  21325603.993
  -8903801.508 9  -6938015.82329  21041181.900
  -6589325.814 6  -5134528.98322  23319986.814
 92  5  7  2 27  0.0000000  0  6G 3G12G13G20G24G16
    -86016.535 5    -67020.35222  24133263.495
   9022830.581 6   7030770.83922  23037293.914
  20230372.134 6  15763912.00322  24497368.622
 -17761414.588 8 -13840046.54327  21314383.364
  -8862123.183 9  -6905539.21429  21049112.308
  -6669915.325 6  -5197325.82823  23304647.636
 92  5  7  2 27 30.0000000  0  6G 3G12G13G20G24G16
   -159590.311 5   -124350.80122  24119264.389
   9125343.457 6   7110650.91922  23056802.001
  20312821.371 6  15828158.09321  24513056.473
 -17819964.028 8 -13885669.42227  21303241.574
  -8819970.044 9  -6872692.61529  21057136.547
  -6750242.336 6  -5259918.19423  23289363.915
 92  5  7  2 28  0.0000000  0  7G 3G25G12G13G20G24G16
   -233028.131 4   -181575.10222  24105292.262
  -3491627.207 6  -2720748.51922  24832529.405
   9228152.000 6   7190761.40522  23076364.673
  20395258.598 5  15892394.79423  24528746.993
 -17878103.894 8 -13930973.15527  21292178.031
  -8777351.634 9  -6839483.47029  21065245.628
  -6830307.302 5  -5322306.32123  23274126.664
 92  5  7  2 28 30.0000000  0  7G 3G25G12G13G20G24G16
   -306328.051 4   -238691.83122  24091335.420
  -3555010.979 6  -2770138.45722  24820463.644
   9331255.301 6   7271101.55022  23095977.095
  20477685.548 6  15956623.78521  24544438.142
 -17935829.660 8 -13975954.20827  21281192.439
  -8734283.293 9  -6805923.74829  21073440.459
  -6910104.655 5  -5384485.95922  23258942.462
 92  5  7  2 29  0.0000000  0  7G 3G25G12G13G20G24G16
   -379485.345 5   -295697.35322  24077422.344
  -3617893.065 6  -2819137.47321  24808489.043
   9434654.637 6   7351672.36723  23115663.854
  20560105.900 6  16020847.31423  24560121.490
 -17993134.924 8 -14020607.59927  21270288.094
  -8690776.504 9  -6772022.36529  21081717.429
  -6989601.158 5  -5446431.19822  23243812.844
 92  5  7  2 29 30.0000000  0  7G 3G25G12G13G20G24G16
   -452500.001 4   -352591.80722  24063521.571
  -3680265.342 6  -2867739.22322  24796631.044
   9538347.304 6   7432471.74824  23135396.491
  20642519.745 5  16085065.82022  24575803.617
 -18050016.963 8 -14064931.21627  21259465.871
  -8646854.764 9  -6737797.64129  21090077.148
  -7068781.436 5  -5508129.97023  23228743.167
 92  5  7  2 30  0.0000000  0  7G 3G25G12G13G20G24G16
   -525378.664 4   -409380.32922  24049661.857
  -3742154.996 6  -2915964.82921  24784844.714
   9642323.488 6   7513492.07722  23155177.412
  20724920.299 5  16149273.91022  24591479.776
 -18106480.357 8 -14108928.61328  21248721.318
  -8602540.643 9  -6703267.16729  21098508.500
  -7147663.027 6  -5569596.05022  23213737.969
 92  5  7  2 30 30.0000000  0  7G 3G25G12G13G20G24G16
   -598118.697 3   -466060.73622  24035810.852
  -3803571.685 6  -2963821.96723  24773158.495
   9746582.955 6   7594733.11722  23175020.665
  20807310.161 5  16213473.7812   24607156.214
 -18162519.598 8 -14152595.51127  21238055.605
  -8557829.346 9  -6668427.19729  21107019.617
  -7226237.490 6  -5630822.79922  23198782.522
 92  5  7  2 31  0.0000000  0  7G 3G25G12G13G20G24G16
   -670719.688 4   -522632.80722  24022004.205
  -3864520.641 6  -3011314.66622  24761565.233
   9851122.684 6   7676192.59725  23194914.001
  20889689.027 5  16277665.26421  24622832.076
 -18218132.432 9 -14195930.13427  21227473.828
  -8512708.860 9  -6633268.38029  21115605.368
  -7304510.695 6  -5691814.76024  23183888.831
 92  5  7  2 31 30.0000000  0  7G 3G25G12G13G20G24G16
   -743182.433 5   -579097.24622  24008209.267
  -3925007.796 6  -3058447.50522  24750052.592
   9955939.250 6   7757867.74422  23214860.385
  20972056.311 4  16341847.41022  24638500.417
 -18273317.200 9 -14238931.21727  21216972.095
  -8467168.519 9  -6597782.41029  21124268.773
  -7382495.490 6  -5752582.02022  23169047.299
 92  5  7  2 32  0.0000000  0  6G 3G25G12G20G24G16
   -815508.256 4   -635454.96222  23994452.981
  -3985031.755 6  -3105219.40021  24738629.906
  10061028.359 6   7839755.26323  23234854.740
 -18328072.868 9 -14281597.92828  21206554.315
  -8421183.606 9  -6561950.01429  21133020.616
  -7460183.132 6  -5813117.74421  23154270.227
 92  5  7  2 32 30.0000000  0  6G 3G25G12G20G24G16
   -887694.466 3   -691703.75222  23980708.107
  -4044567.891 6  -3151611.13422  24727296.844
  10166389.301 6   7921854.58422  23254905.162
 -18382395.000 9 -14323926.82827  21196215.358
  -8374738.720 9  -6525759.19429  21141858.802
  -7537572.941 6  -5873421.33121  23139539.330
 92  5  7  2 33  0.0000000  0  5G25G12G20G24G16
  -4103604.468 6  -3197613.60421  24716065.117
  10272017.041 6   8004161.83023  23275007.743
 -18436283.047 9 -14365917.49027  21185961.261
  -8327839.479 9  -6489214.33429  21150783.315
  -7614672.627 6  -5933498.91623  23124867.483
 92  5  7  2 33 30.0000000  0  5G25G12G20G24G16
  -4162130.913 6  -3243218.57822  24704932.331
  10377905.729 6   8086672.41223  23295157.091
 -18489737.434 9 -14407570.23928  21175788.709
  -8280493.765 9  -6452321.57729  21159791.780
  -7691465.632 6  -5993337.50922  23110255.910
 92  5  7  2 34  0.0000000  0  6G 3G25G12G20G24G16
    -69382.42314    -54057.76022  23939657.220
  -4220135.938 6  -3288417.12322  24693888.874
  10484054.212 6   8169385.44523  23315354.112
 -18542753.927 9 -14448881.79228  21165700.982
  -8232716.281 9  -6415092.37129  21168884.478
  -7767952.249 6  -6052937.35223  23095700.072
 92  5  7  2 34 30.0000000  0  6G 3G25G12G20G24G16
   -141026.414 4   -109884.19622  23926021.167
  -4277632.329 5  -3333219.43621  24682943.748
  10590456.475 6   8252296.22822  23335603.903
 -18595333.100 9 -14489852.55628  21155693.614
  -8184523.900 9  -6377539.87629  21178053.642
  -7844137.885 6  -6112302.68322  23081200.913
 92  5  7  2 35  0.0000000  0  7G 3G25G12G13G20G24G16
   -212532.735 4   -165603.21122  23912413.574
  -4334629.063 6  -3377632.49821  24672102.364
  10697113.619 6   8335405.55223  23355898.943
     63067.21814     49128.47821  24748136.627
 -18647468.952 9 -14530477.89228  21145774.090
  -8135913.375 9  -6339661.55329  21187305.538
  -7919998.089 6  -6171414.43522  23066768.903
 92  5  7  2 35 30.0000000  0  7G 3G25G12G13G20G24G16
   -283904.697 4   -221217.61622  23898831.476
  -4391136.016 6  -3421663.85923  24661350.011
  10804019.219 6   8418708.56922  23376244.658
    145318.500 5    113220.24822  24763807.673
 -18699162.526 9 -14570758.59028  21135937.001
  -8086897.871 9  -6301467.66229  21196632.680
  -7995529.256 6  -6230269.74623  23052389.958
 92  5  7  2 36  0.0000000  0  7G 3G25G12G13G20G24G16
   -355144.545 5   -276729.08922  23885273.076
  -4447157.909 6  -3465317.23621  24650686.393
  10911167.842 6   8502200.90823  23396634.749
    227550.659 5    177297.08523  24779446.646
 -18750414.321 9 -14610695.04928  21126184.755
  -8037483.979 9  -6262963.32829  21206037.160
  -8070742.680 6  -6288877.51023  23038081.164
 92  5  7  2 36 30.0000000  0  6G 3G25G12G20G24G16
   -426251.917 4   -332137.19522  23871741.043
  -4502703.746 5  -3508599.70121  24640121.402
  11018556.783 6   8585880.52322  23417067.401
 -18801220.862 9 -14650284.55527  21116515.537
  -7987659.390 9  -6224138.98329  21215518.108
  -8145626.295 6  -6347228.29223  23023832.031
 92  5  7  2 37  0.0000000  0  6G 3G25G12G20G24G16
   -497225.061 4   -387440.86422  23858233.597
  -4557747.969 6  -3551491.29823  24629643.053
  11126184.910 5   8669746.52323  23437547.430
 -18851578.202 9 -14689524.02727  21106933.570
  -7937431.756 9  -6185000.56529  21225074.580
  -8220183.189 6  -6405324.44822  23009641.060
 92  5  7  2 37 30.0000000  0  6G 3G25G12G20G24G16
   -568059.195 4   -442636.07122  23844761.523
  -4612276.281 5  -3593980.79921  24619257.940
  11234054.015 5   8753800.26922  23458076.006
 -18901478.958 9 -14728407.72928  21097437.650
  -7886807.008 9  -6145552.72329  21234709.317
  -8294407.511 6  -6463161.49122  22995520.239
 92  5  7  2 38  0.0000000  0  6G 3G25G12G20G24G16
   -638761.181 4   -497728.43121  23831306.236
  -4666294.886 5  -3636073.24021  24608984.054
  11342153.886 5   8838033.87022  23478645.973
 -18950928.408 9 -14766939.75128  21088027.760
  -7835774.918 9  -6105787.46129  21244420.502
  -8368299.816 6  -6520739.84123  22981456.062
 92  5  7  2 38 30.0000000  0  6G 3G25G12G20G24G16
   -709333.433 5   -552719.72721  23817882.726
  -4719802.620 6  -3677767.53721  24598806.703
  11450479.075 5   8922443.02121  23499260.596
 -18999926.651 9 -14805120.17827  21078703.323
  -7784331.975 8  -6065702.05929  21254210.511
  -8441849.817 6  -6578051.40425  22967460.254
 92  5  7  2 39  0.0000000  0  6G 3G25G12G20G24G16
   -779773.299 4   -607608.14821  23804472.111
  -4772782.220 5  -3719050.29022  24588725.887
  11559029.570 5   9007027.71124  23519915.110
 -19048468.571 9 -14842945.02328  21069465.806
  -7732487.767 8  -6025303.97829  21264074.281
  -8515048.254 6  -6635089.06723  22953532.206
 92  5  7  2 39 30.0000000  0  6G 3G25G12G20G24G16
   -850081.003 4   -662393.30722  23791093.570
  -4825249.345 5  -3759933.64022  24578742.495
  11667801.867 5   9091785.24023  23540612.778
 -19096552.576 9 -14880413.04929  21060316.744
  -7680237.298 9  -5984589.33729  21274018.410
  -8587883.313 6  -6691843.56223  22939668.601
 92  5  7  2 40  0.0000000  0  6G 3G25G12G20G24G16
   -920253.954 5   -717073.47622  23777737.819
  -4877203.560 5  -3800417.4502   24568854.434
  11776795.201 5   9176714.98624  23561355.713
 -19144173.610 8 -14917520.30528  21051254.619
  -7627574.895 9  -5943553.70229  21284039.267
  -8660352.360 6  -6748312.80822  22925881.446
 92  5  7  2 40 30.0000000  0  6G 3G25G12G20G24G16
   -990293.532 5   -771649.58321  23764411.734
  -4928642.001 5  -3840499.36522  24559068.003
  11886005.140 5   9261813.54723  23582141.522
 -19191331.362 9 -14954266.56928  21042279.728
  -7574520.226 9  -5902212.41729  21294137.167
  -8732451.218 6  -6804493.65224  22912157.548
 92  5  7  2 41  0.0000000  0  6G 3G25G12G20G24G16
  -1060204.548 5   -826125.65023  23751103.953
  -4979571.422 5  -3880184.57922  24549376.920
  11995424.335 5   9347075.13722  23602956.717
 -19238027.869 9 -14990653.41227  21033395.089
  -7521093.928 9  -5860581.54229  21304303.141
  -8804185.782 6  -6860390.6292   22898510.692
 92  5  7  2 41 30.0000000  0  6G 3G25G12G20G24G16
  -1129988.488 5   -880502.58622  23737828.840
  -5030003.482 5  -3919482.21922  24539776.962
  12105047.895 5   9432495.97823  23623823.164
 -19284262.563 9 -15026680.40328  21024596.480
  -7467290.972 9  -5818657.16829  21314539.543
  -8875551.327 6  -6916000.05524  22884925.890
 92  5  7  2 42  0.0000000  0  6G 3G25G12G20G24G16
  -1199639.929 5   -934776.30622  23724578.610
  -5079924.123 5  -3958381.34022  24530275.336
  12214878.140 5   9518077.91021  23644725.000
 -19330028.045 9 -15062341.77028  21015886.902
  -7413107.549 8  -5776436.33229  21324850.022
  -8946546.476 6  -6971320.87924  22871415.443
 92  5  7  2 42 30.0000000  0  6G 3G25G12G20G24G16
  -1269166.025 6   -988952.41022  23711343.684
  -5129330.264 5  -3996879.58623  24520871.152
  12324904.975 5   9603813.00823  23665660.707
 -19375329.244 9 -15097641.37028  21007266.965
  -7358553.039 8  -5733926.33029  21335231.523
  -9017189.357 6  -7026367.17524  22857974.552
 92  5  7  2 43  0.0000000  0  6G 3G25G12G20G24G16
  -1338564.100 6  -1043028.69621  23698138.127
  -5178214.351 5  -4034971.06721  24511573.100
  12435127.456 6   9689700.56823  23686633.879
 -19420161.354 9 -15132575.44028  20998734.280
  -7303623.512 9  -5691124.10929  21345686.192
  -9087491.948 6  -7081148.30423  22844594.214
 92  5  7  2 43 30.0000000  0  6G 3G25G12G20G24G16
  -1407826.918 6  -1096999.57523  23684954.750
  -5226566.264 5  -4072647.80922  24502370.361
  12545550.477 6   9775744.37522  23707645.739
 -19464514.676 9 -15167136.43229  20990296.018
  -7248305.267 8  -5648018.98828  21356211.902
  -9157454.925 6  -7135664.80323  22831283.135
 92  5  7  2 44  0.0000000  0  6G 3G25G12G20G24G16
  -1476958.346 6  -1150868.10423  23671802.555
  -5274387.475 5  -4109910.96423  24493270.456
  12656166.947 6   9861938.89423  23728697.158
 -19508391.065 9 -15201325.79328  20981944.710
  -7192613.303 8  -5604622.65029  21366810.763
  -9227091.375 6  -7189926.89923  22818032.312
 92  5  7  2 44 30.0000000  0  6G 3G25G12G20G24G16
  -1545957.049 6  -1204633.19922  23658668.352
  -5321687.975 4  -4146768.48422  24484273.996
  12766975.058 5   9948282.76221  23749782.169
 -19551787.151 9 -15235140.89628  20973686.028
  -7136553.349 9  -5560939.56928  21377478.587
  -9296385.363 6  -7243922.10523  22804847.434
 92  5  7  2 45  0.0000000  0  6G 3G25G12G20G24G16
  -1614829.516 6  -1258299.96123  23645565.612
  -5368482.189 4  -4183231.48722  24475365.957
  12877965.292 5  10034768.52623  23770904.645
 -19594707.433 9 -15268585.24829  20965519.972
  -7080137.667 9  -5516979.31628  21388214.153
  -9365313.260 6  -7297632.04123  22791727.610
 92  5  7  2 45 30.0000000  0  6G 3G25G12G20G24G16
  -1683572.998 6  -1311866.17421  23632489.571
  -5414769.818 5  -4219299.70522  24466560.158
  12989137.049 5  10121395.79222  23792053.507
 -19637146.757 9 -15301654.82728  20957445.965
  -7023361.358 8  -5472738.03727  21399016.867
  -9433842.391 6  -7351031.27023  22778686.643
 92  5  7  2 46  0.0000000  0  6G 3G25G12G20G24G16
  -1752186.773 6  -1365331.31723  23619423.720
  -5460539.451 5  -4254964.23822  24457845.781
  13100488.386 5  10208162.94522  23813254.230
 -19679102.504 9 -15334347.60128  20949460.990
  -6966226.081 8  -5428217.04828  21409889.749
  -9501958.719 6  -7404108.83322  22765727.222
 92  5  7  2 46 30.0000000  0  6G 3G25G12G20G24G16
  -1820666.612 6  -1418692.14923  23606397.133
  -5505767.641 5  -4290206.96123  24449243.836
  13212019.948 5  10295070.54322  23834468.145
 -19720568.540 9 -15366658.78829  20941569.845
  -6908724.678 9  -5383410.76128  21420832.763
  -9569654.405 6  -7456858.58823  22752842.731
 92  5  7  2 47  0.0000000  0  6G 3G25G12G20G24G16
  -1889018.078 6  -1471952.88422  23593388.536
  -5550438.420 5  -4325015.31622  24440741.724
  13323723.830 5  10382112.40722  23855731.829
 -19761548.150 9 -15398590.93029  20933772.250
  -6850859.290 8  -5338320.85428  21431844.740
  -9636943.365 6  -7509291.47022  22740040.100
 92  5  7  2 47 30.0000000  0  6G 3G25G12G20G24G16
  -1957243.218 6  -1525115.18822  23580402.730
  -5594552.814 4  -4359390.07421  24432347.837
  13435594.289 5  10469284.09022  23877022.473
 -19802041.674 9 -15430144.31829  20926064.279
  -6792623.336 8  -5292942.17728  21442926.274
  -9703855.258 6  -7561430.53022  22727304.913
 92  5  7  2 48  0.0000000  0  6G 3G25G12G20G24G16
  -2025324.095 6  -1578165.15522  23567449.887
  -5638095.164 4  -4393319.13021  24424054.377
  13547646.513 5  10556597.39922  23898340.427
 -19842028.565 9 -15461302.93529  20918456.455
  -6734005.284 9  -5247265.78829  21454080.349
  -9770393.304 6  -7613278.24721  22714644.379
 92  5  7  2 48 30.0000000  0  6G 3G25G12G20G24G16
  -2093273.364 6  -1631112.49222  23554516.850
  -5681091.692 5  -4426822.86723  24415881.131
  13659864.559 5  10644039.89522  23919692.845
 -19881519.632 9 -15492075.19328  20910940.350
  -6675013.846 8  -5201298.43228  21465307.278
  -9836564.024 6  -7664839.77023  22702052.197
 92  5  7  2 49  0.0000000  0  6G 3G25G12G20G24G16
  -2161093.949 5  -1683959.58522  23541614.979
  -5723564.807 5  -4459918.75123  24407795.137
  13772242.581 5  10731607.08823  23941082.432
 -19920515.900 9 -15522461.89029  20903521.093
  -6615652.048 8  -5155042.49028  21476601.059
  -9902360.346 6  -7716109.55022  22689531.369
 92  5  7  2 49 30.0000000  0  6G 3G25G12G20G24G16
  -2228786.982 5  -1736707.31022  23528734.694
  -5765528.488 5  -4492617.67422  24399801.471
  13884776.248 5  10819295.54522  23962495.106
 -19959016.418 9 -15552462.29729  20896194.166
  -6555932.679 8  -5108507.91328  21487967.398
  -9967773.215 6  -7767080.51722  22677081.878
 92  5  7  2 50  0.0000000  0  6G 3G25G12G20G24G16
  -2296358.086 5  -1789359.97321  23515874.791
  -5806985.455 5  -4524921.76322  24391922.925
  13997456.818 5  10907098.47221  23983945.262
 -19997024.928 9 -15582079.31429  20888960.771
  -6495874.812 8  -5061709.58527  21499396.086
 -10032775.803 6  -7817731.80423  22664711.855
 92  5  7  2 50 30.0000000  0  6G 3G25G12G20G24G16
  -2363807.968 5  -1841918.21922  23503036.492
  -5847927.683 5  -4556824.75022  24384132.816
  14110280.744 5  10995013.05522  24005401.701
 -20034539.999 9 -15611311.82629  20881822.707
  -6435481.543 8  -5014649.89928  21510887.718
 -10097348.749 6  -7868048.27523  22652427.251
 92  5  7  2 51  0.0000000  0  6G 3G25G12G20G24G16
  -2431130.594 5  -1894377.37822  23490225.152
  -5888343.245 4  -4588317.35024  24376435.944
  14223251.093 5  11083041.80722  24026904.016
 -20071553.590 9 -15640153.57429  20874779.991
  -6374760.942 8  -4967335.14428  21522442.031
 -10161486.168 6  -7918025.38822  22640223.895
 92  5  7  2 51 30.0000000  0  6G 3G25G12G20G24G16
  -2498328.706 5  -1946739.29422  23477441.402
  -5928226.013 5  -4619394.82723  24368855.098
  14336361.719 6  11171179.90321  24048424.916
 -20108066.440 9 -15668605.13229  20867830.808
  -6313719.122 9  -4919770.08828  21534057.785
 -10225185.847 6  -7967661.42023  22628099.099
 92  5  7  2 52  0.0000000  0  6G 3G25G12G20G24G16
  -2565401.872 5  -1999004.02623  23464675.643
  -5967557.650 5  -4650042.80822  24361367.471
  14449610.210 6  11259425.27322  24069980.891
 -20144076.221 9 -15696664.67728  20860978.143
  -6252345.131 8  -4871946.19728  21545736.501
 -10288450.319 6  -8016958.33422  22616063.021
 92  5  7  2 52 30.0000000  0  6G 3G25G12G20G24G16
  -2632347.911 5  -2051169.73722  23451936.862
  -6006326.641 5  -4680252.3482   24353987.477
  14562995.637 6  11347777.39722  24091559.952
 -20179578.802 9 -15724329.00928  20854221.715
  -6190633.568 8  -4823859.26428  21557480.567
 -10351302.750 6  -8065934.15423  22604102.502
 92  5  7  2 53  0.0000000  0  6G 3G25G12G20G24G16
  -2699172.424 5  -2103240.60022  23439214.868
  -6044543.819 5  -4710031.95023  24346715.117
  14676509.118 6  11436229.37521  24113151.316
 -20214577.828 9 -15751600.94429  20847561.525
  -6128572.482 9  -4775499.96928  21569289.688
 -10413758.553 6  -8114600.92124  22592216.339
 92  5  7  2 53 30.0000000  0  6G 3G25G12G20G24G16
  -2765874.235 5  -2155215.96222  23426521.649
  -6082199.719 5  -4739374.13721  24339552.186
  14790148.688 6  11524779.53422  24134781.646
 -20249070.867 9 -15778478.60929  20840997.574
  -6066152.347 9  -4726860.91428  21581168.662
 -10475816.770 6  -8162957.86324  22580410.813
 92  5  7  2 54  0.0000000  0  6G 3G25G12G20G24G16
  -2832447.414 5  -2207091.10122  23413864.727
  -6119291.313 5  -4768276.62923  24332496.260
  14903917.568 6  11613430.50421  24156426.355
 -20283049.674 9 -15804955.56329  20834531.954
  -6003372.103 8  -4677941.25328  21593115.098
 -10537478.471 6  -8211005.87523  22568674.529
 92  5  7  2 54 30.0000000  0  6G 3G25G12G20G24G16
  -2898895.257 5  -2258868.44222  23401216.181
  -6155843.274 5  -4796758.62022  24325536.590
  15017809.271 6  11702177.13322  24178104.045
 -20316515.530 9 -15831032.81529  20828164.666
  -5940236.833 8  -4628744.93827  21605129.887
 -10598738.081 6  -8258740.54623  22557017.697
 92  5  7  2 55  0.0000000  0  6G 3G25G12G20G24G16
  -2965220.565 5  -2310550.41923  23388598.208
  -6191856.017 5  -4824820.49723  24318680.330
  15131817.794 6  11791014.81823  24199798.523
 -20349469.306 9 -15856711.04328  20821893.896
  -5876759.533 8  -4579282.11627  21617209.120
 -10659570.736 6  -8306142.54324  22545436.127
 92  5  7  2 55 30.0010000  0  6G 3G25G12G20G24G16
  -3031425.299 5  -2362138.38521  23375991.336
  -6227319.681 5  -4852454.47022  24311934.690
  15245944.417 6  11879944.46322  24221517.887
 -20381910.082 9 -15881989.52129  20815721.181
  -5812965.920 8  -4529572.81128  21629348.908
 -10719965.001 6  -8353202.91621  22533948.669
 92  5  7  2 56  0.0010000  0  6G 3G25G12G20G24G16
  -3097502.040 5  -2413626.60723  23363419.240
  -6262225.025 5  -4879653.42523  24305291.304
  15360181.501 5  11968960.23023  24243257.647
 -20413830.644 9 -15906862.64829  20809645.573
  -5748866.961 8  -4479625.57327  21641545.371
 -10779911.755 6  -8399914.57923  22522536.471
 92  5  7  2 56 30.0010000  0  6G 3G25G12G20G24G16
  -3163454.910 5  -2465018.39223  23350868.729
  -6296563.576 5  -4906410.68022  24298758.815
  15474527.421 5  12058060.79923  24265013.881
 -20445232.598 9 -15931331.65729  20803669.520
  -5684465.912 8  -4429442.94527  21653802.090
 -10839416.551 6  -8446281.85122  22511213.618
 92  5  7  2 57  0.0010000  0  6G 3G25G12G20G24G16
  -3229284.673 5  -2516314.19322  23338342.806
  -6330327.442 5  -4932720.15722  24292337.257
  15588978.678 5  12147243.49922  24286787.512
 -20476114.779 9 -15955395.65929  20797792.391
  -5619770.796 8  -4379031.18528  21666112.765
 -10898488.263 6  -8492311.70422  22499975.887
 92  5  7  2 57 30.0010000  0  6G 3G25G12G20G24G16
  -3294988.953 6  -2567512.25723  23325837.561
  -6363528.163 5  -4958590.83222  24286011.047
  15703534.621 5  12236507.74723  24308592.903
 -20506472.890 9 -15979051.29229  20792016.892
  -5554780.330 8  -4328389.26627  21678478.600
 -10957142.635 6  -8538016.32524  22488814.012
 92  5  7  2 58  0.0010000  0  6G 3G25G12G20G24G16
  -3360571.570 5  -2618615.52722  23313358.997
  -6396180.095 5  -4984033.83722  24279802.347
  15818188.098 5  12325847.98822  24330413.912
 -20536309.091 9 -16002300.24329  20786337.614
  -5489487.560 8  -4277511.80327  21690905.302
 -11015397.229 6  -8583409.41723  22477727.697
 92  5  7  2 58 30.0010000  0  6G 3G25G12G20G24G16
  -3426035.683 5  -2669626.44622  23300899.018
  -6428299.063 5  -5009061.55722  24273690.182
  15932933.124 5  12415259.51922  24352245.391
 -20565624.915 9 -16025143.71029  20780759.984
  -5423893.043 8  -4226399.19228  21703388.053
 -11073241.038 6  -8628482.44124  22466719.018
 92  5  7  2 59  0.0010000  0  6G 3G25G12G20G24G16
  -3491381.179 6  -2720544.87722  23288463.923
  -6459880.859 5  -5033670.69824  24267673.643
  16047766.715 5  12504740.08722  24374097.565
 -20594418.480 9 -16047580.23429  20775281.278
  -5357998.495 8  -4175052.80427  21715925.982
 -11130645.558 6  -8673213.17524  22455793.070
 92  5  7  2 59 30.0010000  0  6G 3G25G12G20G24G16
  -3556606.234 6  -2771369.53623  23276051.025
  -6490904.690 5  -5057845.09424  24261776.429
  16162687.739 4  12594288.77621  24395967.417
 -20622685.937 9 -16069606.79129  20769904.203
  -5291801.443 8  -4123470.69228  21728521.759
 -11187596.760 6  -8717590.64722  22444955.281
 92  5  7  3  0  0.0010000  0  6G 3G25G12G20G24G16
  -3621711.364 6  -2822100.75723  23263660.603
  -6521362.304 5  -5081578.28723  24255980.531
  16277692.449 4  12683902.64722  24417849.571
 -20650426.424 9 -16091222.73329  20764623.349
  -5225295.405 8  -4071647.82327  21741177.198
 -11244086.920 6  -8761608.88224  22434208.913
 92  5  7  3  0 30.0010000  0  6G 3G25G12G20G24G16
  -3686689.096 6  -2872732.66422  23251298.362
  -6551236.049 5  -5104856.51323  24250296.472
  16392785.094 5  12773585.15821  24439756.313
 -20677631.127 9 -16112421.19429  20759447.439
  -5158482.215 8  -4019585.60227  21753893.485
 -11300089.687 6  -8805247.32323  22423551.594
 92  5  7  3  1  0.0010000  0  6G 3G25G12G20G24G16
  -3751548.028 5  -2923271.98423  23238956.207
  -6580528.039 5  -5127681.41823  24244722.436
  16507954.250 5  12863327.17221  24461671.745
 -20704306.830 9 -16133207.44428  20754371.049
  -5091367.787 8  -3967288.65927  21766663.153
 -11355625.690 6  -8848522.04522  22412982.416
 92  5  7  3  1 30.0010000  0  6G 3G25G12G20G24G16
  -3816280.114 5  -2973712.47724  23226641.327
  -6609252.506 5  -5150064.07921  24239254.219
  16623205.259 5  12953132.95423  24483605.150
 -20730443.215 9 -16153573.44929  20749395.695
  -5023940.725 8  -3914748.10127  21779495.468
 -11410703.756 6  -8891439.92823  22402499.878
 92  5  7  3  2  0.0010000  0  6G 3G25G12G20G24G16
  -3880883.332 6  -3024052.50921  23214342.344
  -6637433.562 5  -5172023.32923  24233894.227
  16738536.412 5  13043001.21622  24505550.858
 -20756037.358 8 -16173516.93729  20744525.863
  -4956202.509 8  -3861965.07928  21792384.739
 -11465316.095 6  -8933994.95123  22392112.671
 92  5  7  3  2 30.0010000  0  6G 3G25G12G20G24G16
  -3945368.835 6  -3074300.89324  23202075.730
  -6665083.348 5  -5193568.63024  24228627.472
  16853933.889 5  13132921.17822  24527509.462
 -20781098.352 8 -16193044.97928  20739756.457
  -4888171.029 8  -3808953.52927  21805332.487
 -11519463.409 6  -8976187.58523  22381804.897
 92  5  7  3  3  0.0010000  0  6G 3G25G12G20G24G16
  -4009734.377 6  -3124455.79023  23189824.421
  -6692208.964 5  -5214705.44423  24223466.535
  16969396.635 5  13222891.9972   24549478.850
 -20805622.441 9 -16212154.66028  20735088.995
  -4819839.953 8  -3755708.53527  21818336.878
 -11573147.898 6  -9018019.56122  22371587.969
 92  5  7  3  3 30.0010000  0  6G 3G25G12G20G24G16
  -4073989.243 6  -3174524.43822  23177595.588
  -6718821.676 5  -5235442.56222  24218401.557
  17084912.645 5  13312904.34921  24571465.635
 -20829617.410 9 -16230852.03729  20730524.349
  -4751228.410 8  -3702244.99728  21831394.038
 -11626364.834 6  -9059487.23424  22361463.074
 92  5  7  3  4  0.0010000  0  6G 3G25G12G20G24G16
  -4138123.527 6  -3224499.07722  23165394.326
  -6744898.644 6  -5255762.24823  24213439.082
  17200488.675 5  13402963.43421  24593457.203
 -20853071.770 9 -16249128.15228  20726061.351
  -4682333.746 8  -3648560.83927  21844501.560
 -11679094.383 6  -9100575.11725  22351432.619
 92  5  7  3  4 30.0010000  0  6G 3G25G12G20G24G16
  -4202129.393 6  -3274373.69524  23153211.962
  -6770416.116 6  -5275646.00823  24208588.148
  17316129.393 5  13493072.98321  24615461.072
 -20875975.841 9 -16266975.48029  20721702.968
  -4613140.688 8  -3594644.18028  21857667.260
 -11731335.210 7  -9141282.18824  22341489.415
 92  5  7  3  5  0.0010000  0  6G 3G25G12G20G24G16
  -4266013.669 6  -3324153.54123  23141057.781
  -6795378.336 6  -5295097.08822  24203834.342
  17431825.084 5  13583225.32822  24637475.133
 -20898335.572 9 -16284398.64229  20717449.215
  -4543660.381 8  -3540503.67527  21870891.105
 -11783094.443 6  -9181613.96523  22331638.837
 92  5  7  3  5 30.0010000  0  6G 3G25G12G20G24G16
  -4329781.736 5  -3373842.82822  23128922.481
  -6819785.253 6  -5314115.45324  24199189.356
  17547567.109 5  13673413.77522  24659501.775
 -20920154.893 9 -16301400.69829  20713293.481
  -4473904.729 8  -3486148.62127  21884164.107
 -11834380.104 6  -9221576.75823  22321880.588
 92  5  7  3  6  0.0010000  0  6G 3G25G12G20G24G16
  -4393427.386 5  -3423436.73123  23116808.766
  -6843613.430 6  -5332682.86322  24194660.693
  17663359.099 4  13763641.11722  24681536.234
 -20941425.630 9 -16317975.29529  20709247.491
  -4403867.779 8  -3431574.37827  21897491.990
 -11885193.570 7  -9261171.60424  22312209.276
 92  5  7  3  6 30.0010000  0  6G 3G25G12G20G24G16
  -4456950.410 6  -3472935.12423  23104719.936
  -6866845.099 6  -5350785.43222  24190234.550
  17779197.762 4  13853904.86122  24703578.163
 -20962146.295 9 -16334121.25829  20705304.911
  -4333552.129 8  -3376782.96427  21910871.421
 -11935550.801 6  -9300410.94322  22302624.307
 92  5  7  3  7  0.0010000  0  6G 3G25G12G20G24G16
  -4520351.026 6  -3522338.03522  23092659.585
  -6889481.629 6  -5368424.30521  24185928.936
  17895080.054 4  13944202.55921  24725637.489
 -20982315.346 8 -16349837.37829  20701463.978
  -4262973.283 8  -3321786.46626  21924303.325
 -11985451.200 7  -9339294.30224  22293135.577
 92  5  7  3  7 30.0010000  0  6G 3G25G12G20G24G16
  -4583629.083 6  -3571645.55223  23080614.816
  -6911518.657 6  -5385596.01123  24181736.032
  18011002.997 4  14034531.94722  24747698.927
 -21001931.578 9 -16365122.75329  20697733.366
  -4192122.067 8  -3266577.71527  21937785.293
 -12034891.300 7  -9377818.99423  22283722.999
 92  5  7  3  8  0.0010000  0  6G 3G25G12G20G24G16
  -4646783.281 6  -3620856.52022  23068598.544
  -6932954.593 6  -5402299.34222  24177652.559
  18126964.948 4  14124891.70622  24769760.051
 -21020992.221 9 -16379975.18029  20694103.773
  -4120994.587 8  -3211153.71427  21951317.326
 -12083862.382 7  -9415978.20524  22274408.439
 92  5  7  3  8 30.0010000  0  6G 3G25G12G20G24G16
  -4709812.763 6  -3669970.24822  23056602.950
  -6953811.448 6  -5418551.45122  24173688.411
  18242963.498 4  14215279.97522  24791823.879
 -21039495.152 8 -16394393.01929  20690586.001
  -4049600.291 8  -3155521.79427  21964903.909
 -12132354.665 7  -9453764.33324  22265179.333
 92  5  7  3  9  0.0010000  0  6G 3G25G12G20G24G16
  -4772721.849 6  -3718990.25722  23044636.132
  -6974120.975 6  -5434376.97121  24169820.779
  18358991.710 4  14305691.39222  24813910.480
 -21057443.447 9 -16408378.69229  20687168.969
  -3977938.528 8  -3099681.45626  21978543.278
 -12180343.567 7  -9491158.21724  22256042.556
 92  5  7  3  9 30.0010000  0  6G 3G25G12G20G24G16
  -4835509.663 6  -3767915.77321  23032687.008
  -6993886.576 6  -5449778.71522  24166058.094
  18475047.103 4  14396124.42422  24835996.802
 -21074834.826 9 -16421930.39329  20683861.054
  -3906006.535 8  -3043630.56026  21992231.491
 -12227822.256 7  -9528154.50824  22247009.521
 92  5  7  3 10  0.0010000  0  6G 3G25G12G20G24G16
  -4898179.874 6  -3816749.62721  23020761.861
  -7013108.826 6  -5464757.11422  24162399.411
  18591122.991 4  14486572.96523  24858084.310
 -21091671.696 8 -16435050.01329  20680655.082
  -3833827.860 8  -2987387.44726  22005966.191
 -12274804.804 7  -9564764.21724  22238068.204
 92  5  7  3 10 30.0010000  0  6G 3G25G12G20G24G16
  -4960729.062 6  -3865489.14523  23008851.703
  -7031779.715 6  -5479305.87823  24158850.473
  18707219.998 3  14577037.94222  24880180.509
 -21107949.143 8 -16447733.71529  20677558.820
  -3761396.784 8  -2930947.65026  22019747.954
 -12321281.949 7  -9600980.11325  22229222.828
 92  5  7  3 11  0.0010000  0  5G 3G25G20G24G16
  -5023160.660 6  -3914137.08523  22996974.823
  -7049885.871 6  -5493414.57923  24155403.165
 -21123669.281 8 -16459983.14829  20674565.392
  -3688699.174 8  -2874300.16027  22033582.766
 -12367249.505 7  -9636798.93225  22220477.285
 92  5  7  3 11 30.0010000  0  5G 3G25G20G24G16
  -5085470.946 6  -3962690.49122  22985116.231
  -7067402.546 6  -5507063.88921  24152068.271
 -21138827.546 8 -16471794.76329  20671681.395
  -3615736.766 8  -2817446.34327  22047465.862
 -12412723.787 7  -9672233.36724  22211827.666
 92  5  7  3 12  0.0010000  0  5G 3G25G20G24G16
  -5147663.381 6  -4011152.02222  22973284.024
  -7084328.422 6  -5520252.88523  24148848.200
 -21153425.846 9 -16483170.03329  20668905.920
  -3542509.613 8  -2760386.23626  22061402.601
 -12457696.973 7  -9707277.34726  22203264.094
 92  5  7  3 12 30.0010000  0  5G 3G25G20G24G16
  -5209737.614 6  -4059521.50822  22961469.214
  -7100671.988 6  -5532988.09521  24145741.451
 -21167462.718 9 -16494107.83429  20666234.466
  -3469005.734 8  -2703110.48926  22075390.032
 -12502154.681 7  -9741919.65124  22194805.764
 92  5  7  3 13  0.0010000  0  5G 3G25G20G24G16
  -5271687.160 6  -4107793.88124  22949681.068
  -7116430.563 6  -5545267.49124  24142740.537
 -21180930.391 8 -16504602.09729  20663670.646
  -3395235.601 8  -2645627.28226  22089426.900
 -12546101.044 7  -9776163.51825  22186443.044
 92  5  7  3 13 30.0010000  0  5G 3G25G20G24G16
  -5333516.821 7  -4155972.78122  22937916.306
  -7131619.743 6  -5557103.21723  24139853.224
 -21193833.042 8 -16514656.09029  20661216.831
  -3321226.173 8  -2587957.61326  22103510.552
 -12589543.755 7  -9810014.92323  22178177.172
 92  5  7  3 14  0.0010000  0  6G 3G25G12G20G24G16
  -5395228.171 7  -4204059.50722  22926175.241
  -7146255.669 6  -5568507.78222  24137069.059
    112274.14015     87469.75922  25034883.617
 -21206171.237 8 -16524270.24329  20658868.869
  -3246983.142 8  -2530105.90627  22117638.877
 -12632476.192 7  -9843468.72623  22170005.724
 92  5  7  3 14 30.0010000  0  6G 3G25G12G20G24G16
  -5456815.614 6  -4252049.66523  22914452.761
  -7160337.002 6  -5579480.17323  24134385.914
    228423.517 5    177975.98222  25056985.207
 -21217937.846 8 -16533439.01229  20656628.820
  -3172510.581 8  -2472075.33725  22131808.262
 -12674893.651 7  -9876521.22625  22161935.015
 92  5  7  3 15  0.0010000  0  6G 3G25G12G20G24G16
  -5518280.176 6  -4299944.09624  22902755.444
  -7173864.913 6  -5590021.41323  24131810.087
    344568.513 5    268478.45021  25079085.018
 -21229132.845 9 -16542162.37929  20654501.481
  -3097808.679 8  -2413866.06726  22146026.228
 -12716797.424 7  -9909173.47526  22153959.638
 92  5  7  3 15 30.0010000  0  6G 3G25G12G20G24G16
  -5579625.290 7  -4347745.46424  22891085.436
  -7186837.863 6  -5600130.18223  24129343.097
    460702.683 4    358972.39122  25101180.920
 -21239758.486 8 -16550442.07729  20652476.994
  -3022861.551 8  -2355465.71426  22160289.146
 -12758185.308 7  -9941423.72225  22146081.685
 92  5  7  3 16  0.0010000  0  6G 3G25G12G20G24G16
  -5640848.673 6  -4395451.96323  22879431.605
  -7199241.016 6  -5609794.96522  24126981.943
    576825.394 4    449457.40322  25123284.308
 -21249811.281 8 -16558275.41129  20650564.607
  -2947663.419 8  -2296869.78126  22174599.738
 -12799057.525 7  -9973272.14625  22138304.472
 92  5  7  3 16 30.0010000  0  6G 3G25G12G20G24G16
  -5701946.348 6  -4443060.47824  22867805.048
  -7211061.212 6  -5619005.48422  24124737.095
    692937.394 4    539934.19521  25145382.618
 -21259286.884 9 -16565658.98729  20648760.464
  -2872208.413 8  -2238073.67126  22188957.096
 -12839410.279 7 -10004715.80224  22130626.480
 92  5  7  3 17  0.0010000  0  6G 3G25G12G20G24G16
  -5762918.257 6  -4490570.98324  22856206.377
  -7222289.607 6  -5627754.83023  24122601.066
    809036.036 5    630400.50221  25167473.722
 -21268183.750 8 -16572591.59429  20647066.938
  -2796496.917 8  -2179077.70226  22203363.926
 -12879250.607 7 -10035760.16226  22123045.041
 92  5  7  3 17 30.0010000  0  6G 3G25G12G20G24G16
  -5823773.354 6  -4537990.51225  22844624.790
  -7232934.220 6  -5636049.33624  24120570.576
    925109.097 5    720847.10822  25189564.825
 -21276510.422 8 -16579079.90029  20645483.732
  -2720560.392 7  -2119906.39726  22217814.522
 -12918578.711 7 -10066405.39025  22115563.714
 92  5  7  3 18  0.0010000  0  6G 3G25G12G20G24G16
  -5884514.109 6  -4585320.90323  22833066.603
  -7243006.063 6  -5643897.51723  24118655.205
   1041151.248 5    811269.78922  25211644.550
 -21284268.284 9 -16585124.97529  20644007.548
  -2644428.911 8  -2060583.17426  22232303.490
 -12957390.622 7 -10096648.39124  22108173.530
 92  5  7  3 18 30.0010000  0  6G 3G25G12G20G24G16
  -5945139.054 6  -4632561.08224  22821528.781
  -7252512.604 6  -5651305.17122  24116845.059
   1157160.863 4    901666.70321  25233714.958
 -21291454.748 8 -16590724.79629  20642636.903
  -2568095.146 8  -2001102.34326  22246829.644
 -12995677.113 7 -10126481.97126  22100889.181
 92  5  7  3 19  0.0010000  0  6G 3G25G12G20G24G16
  -6005652.602 7  -4679714.41223  22810016.157
  -7261460.609 6  -5658277.57323  24115139.842
   1273130.718 3    992032.70321  25255790.478
 -21298073.289 8 -16595882.09229  20641380.470
  -2491568.264 8  -1941471.01226  22261389.356
 -13033434.625 7 -10155903.36526  22093704.053
 92  5  7  3 19 30.0010000  0  5G 3G25G20G24G16
  -6066051.233 7  -4726778.25624  22798523.618
  -7269850.083 6  -5664814.82623  24113546.148
 -21304119.796 8 -16600593.64229  20640229.262
  -2414838.444 8  -1881681.55826  22275991.349
 -13070653.147 7 -10184904.75025  22086621.446
 92  5  7  3 20  0.0010000  0  5G 3G25G20G24G16
  -6126336.284 7  -4773753.58625  22787049.960
  -7277676.345 5  -5670913.21122  24112053.770
 -21309594.681 8 -16604859.76529  20639188.095
  -2337886.573 8  -1821719.06626  22290638.015
 -13107346.796 7 -10213497.15925  22079641.691
 92  5  7  3 20 30.0010000  0  5G 3G25G20G24G16
  -6186507.544 7  -4820640.20522  22775600.872
  -7284932.946 5  -5676567.67122  24110678.920
 -21314496.953 8 -16608679.69829  20638254.229
  -2260696.538 7  -1761571.00026  22305321.553
 -13143517.550 7 -10241682.11525  22072756.952
 92  5  7  3 21  0.0010000  0  5G 3G25G20G24G16
  -6246561.592 7  -4867435.49124  22764173.684
  -7291606.199 6  -5681767.55722  24109403.606
 -21318822.280 8 -16612050.07429  20637433.406
  -2183279.466 8  -1701246.02826  22320055.155
 -13179163.548 7 -10269458.16726  22065973.546
 92  5  7  3 21 30.0010000  0  5G 3G25G20G24G16
  -6306501.036 7  -4914141.46823  22752764.191
  -7297700.763 6  -5686516.54823  24108247.302
 -21322572.816 9 -16614972.54629  20636714.806
  -2105637.597 8  -1640745.87626  22334830.115
 -13214286.478 7 -10296826.63326  22059290.863
 92  5  7  3 22  0.0010000  0  5G 3G25G20G24G16
  -6366325.392 7  -4960757.78924  22741378.378
  -7303226.017 6  -5690821.95623  24107194.443
 -21325747.416 8 -16617446.23929  20636113.122
  -2027785.662 8  -1580082.04026  22349642.872
 -13248878.839 7 -10323781.67625  22052708.623
 92  5  7  3 22 30.0010000  0  5G 3G25G20G24G16
  -6426034.770 7  -5007284.50122  22730017.431
  -7308191.984 6  -5694691.52122  24106248.589
 -21328345.194 8 -16619470.46429  20635620.258
  -1949737.096 7  -1519264.99326  22364497.876
 -13282931.854 7 -10350316.42225  22046226.513
 92  5  7  3 23  0.0010000  0  5G 3G25G20G24G16
  -6485628.683 7  -5053721.22423  22718678.681
  -7312606.702 6  -5698131.49923  24105407.366
 -21330365.146 8 -16621044.42529  20635232.026
  -1871486.911 8  -1458290.83027  22379389.473
 -13316436.048 7 -10376423.54626  22039852.036
 92  5  7  3 23 30.0010000  0  5G 3G25G20G24G16
  -6545100.942 7  -5100063.19223  22707359.719
  -7316482.285 6  -5701151.40822  24104669.292
 -21331800.265 8 -16622162.68229  20634961.617
  -1793013.581 8  -1397142.79226  22394323.928
 -13349378.457 8 -10402092.91026  22033583.359
 92  5  7  3 24  0.0010000  0  6G 3G25G20G17G24G16
  -6604456.759 7  -5146314.38823  22696065.642
  -7319820.316 6  -5703752.45423  24104043.318
 -21332655.257 8 -16622828.88329  20634799.417
   -275292.492 4   -214513.33824  24193648.581
  -1714319.987 7  -1335823.09926  22409295.569
 -13381770.363 7 -10427333.32325  22027420.832
 92  5  7  3 24 30.0010000  0  6G 3G25G20G17G24G16
  -6663695.023 7  -5192473.96723  22684790.742
  -7322613.439 6  -5705928.91023  24103500.686
 -21332928.509 8 -16623041.79229  20634747.555
   -375032.437 4   -292232.95621  24174666.024
  -1635402.400 7  -1274328.88126  22424314.273
 -13413617.294 8 -10452149.06325  22021359.028
 92  5  7  3 25  0.0010000  0  6G 3G25G20G17G24G16
  -6722820.702 7  -5238545.84424  22673541.337
  -7324869.195 5  -5707686.61922  24103071.986
 -21332623.981 8 -16622804.47929  20634806.328
   -474590.383 3   -369810.43622  24155721.544
  -1556274.234 7  -1212670.57626  22439370.443
 -13444925.276 7 -10476544.86825  22015401.855
 92  5  7  3 25 30.0010000  0  5G 3G25G20G24G16
  -6781827.303 7  -5284524.92323  22662311.110
  -7326574.685 5  -5709015.55523  24102753.904
 -21331735.420 9 -16622112.07829  20634972.698
  -1476957.532 7  -1150865.34826  22454464.096
 -13475696.704 7 -10500522.56926  22009544.515
 92  5  7  3 26  0.0010000  0  5G 3G25G20G24G16
  -6840715.007 7  -5330411.36922  22651106.970
  -7327718.681 5  -5709906.99122  24102532.670
 -21330261.986 9 -16620963.92729  20635252.408
  -1397467.440 7  -1088925.04025  22469589.526
 -13505936.612 7 -10524086.09825  22003788.194
 92  5  7  3 26 30.0010000  0  6G 3G25G20G17G24G16
  -6899485.868 7  -5376206.76623  22639923.806
  -7328304.770 5  -5710363.70023  24102420.238
 -21328205.749 9 -16619361.65029  20635646.032
    -56093.26214    -43708.74122  24099088.346
  -1317822.036 7  -1026863.67026  22484746.436
 -13535635.022 7 -10547227.67825  21998139.803
 92  5  7  3 27  0.0010000  0  6G 3G25G20G17G24G16
  -6958138.280 7  -5421909.86525  22628764.636
  -7328318.974 6  -5710374.86322  24102423.240
 -21325564.337 9 -16617303.38429  20636146.696
   -154953.619 5   -120742.57122  24080274.865
  -1238011.708 7   -964673.81026  22499932.419
 -13564778.284 7 -10569936.67326  21992594.246
 92  5  7  3 27 30.0010000  0  6G 3G25G20G17G24G16
  -7016668.461 7  -5467517.71624  22617622.550
  -7327742.494 6  -5709925.53822  24102534.171
 -21322333.419 8 -16614785.77729  20636760.665
   -253631.704 5   -197634.38722  24061490.177
  -1158021.748 7   -902343.96726  22515153.790
 -13593357.512 7 -10592206.15625  21987155.118
 92  5  7  3 28  0.0010000  0  6G 3G25G20G17G24G16
  -7075077.090 7  -5513030.85225  22606510.740
  -7326573.469 6  -5709014.68423  24102755.108
 -21318513.634 8 -16611809.30929  20637488.862
   -352119.832 5   -274378.17222  24042754.349
  -1077843.256 7   -839867.22925  22530416.221
 -13621376.464 7 -10614039.06225  21981824.495
 92  5  7  3 28 30.0010000  0  6G 3G25G20G17G24G16
  -7133368.382 7  -5558452.57424  22595417.515
  -7324817.422 6  -5707646.37023  24103084.882
 -21314108.345 9 -16608376.60529  20638328.288
   -450417.483 4   -350973.59322  24024045.796
   -997477.465 7   -777244.53625  22545706.224
 -13648827.128 7 -10635429.14226  21976599.115
 92  5  7  3 29  0.0010000  0  6G 3G25G20G17G24G16
  -7191540.419 7  -5603781.38925  22584348.283
  -7322479.248 6  -5705824.43623  24103534.278
 -21309115.655 8 -16604486.17629  20639278.626
   -548531.706 5   -427426.12623  24005378.321
   -916917.335 7   -714470.41426  22561035.229
 -13675717.508 7 -10656382.63326  21971481.367
 92  5  7  3 29 30.0010000  0  6G 3G25G20G17G24G16
  -7249597.120 7  -5649020.32624  22573297.339
  -7319575.465 5  -5703561.69723  24104082.598
 -21303538.707 8 -16600140.49729  20640343.194
   -646462.123 5   -503735.32122  23986740.232
   -836183.095 7   -651560.63826  22576402.588
 -13702059.016 7 -10676908.44125  21966471.828
 92  5  7  3 30  0.0010000  0  6G 3G25G20G17G24G16
  -7307532.288 7  -5694164.56024  22562272.763
  -7316114.617 5  -5700864.91022  24104743.333
 -21297371.427 9 -16595334.80929  20641513.581
   -744215.612 5   -579906.74623  23968147.391
   -755271.616 7   -588512.73926  22591794.221
 -13727841.570 7 -10696998.69725  21961563.920
 92  5  7  3 30 30.0010000  0  6G 3G25G20G17G24G16
  -7365354.316 7  -5739220.64524  22551269.773
  -7312113.405 5  -5697747.15023  24105502.104
 -21290622.057 8 -16590075.53729  20642795.194
   -841807.804 5   -655952.41322  23949563.259
   -674183.791 7   -525327.42624  22607228.433
 -13753058.299 7 -10716648.05625  21956764.848
 92  5  7  3 31  0.0010000  0  6G 3G25G20G17G24G16
  -7423058.859 7  -5784185.18925  22540289.886
  -7307568.470 5  -5694205.63323  24106367.006
 -21283285.685 8 -16584358.87929  20644192.521
   -939222.463 5   -731859.77921  23931029.190
   -592914.613 7   -462000.81126  22622690.233
 -13777707.164 7 -10735854.91725  21952073.095
 92  5  7  3 31 30.0010000  0  6G 3G25G20G17G24G16
  -7480646.861 7  -5829058.90323  22529331.865
  -7302474.509 5  -5690236.25822  24107338.634
 -21275363.548 8 -16578185.77029  20645700.184
  -1036445.695 5   -807618.00322  23912529.900
   -511465.051 7   -398533.63525  22638190.406
 -13801783.585 7 -10754615.72226  21947492.867
 92  5  7  3 32  0.0010000  0  6G 3G25G20G17G24G16
  -7538114.595 7  -5873838.89724  22518395.447
  -7296826.585 5  -5685835.28622  24108410.392
 -21266851.307 9 -16571552.83229  20647321.153
  -1133472.869 4   -883223.44821  23894060.293
   -429823.538 7   -334916.89725  22653725.358
 -13825279.667 7 -10772924.30625  21943021.755
 92  5  7  3 32 30.0010000  0  6G 3G25G20G17G24G16
  -7595467.351 7  -5918529.32324  22507480.301
  -7290627.053 5  -5681004.52223  24109583.483
 -21257754.176 8 -16564464.14629  20649053.366
  -1230299.058 5   -958672.31022  23875639.547
   -348006.377 7   -271163.26625  22669295.681
 -13848211.263 7 -10790793.03925  21938657.682
 92  5  7  3 33  0.0010000  0  6G 3G25G20G17G24G16
  -7652699.831 7  -5963126.04625  22496592.429
  -7283873.729 5  -5675742.23423  24110871.989
 -21248067.215 8 -16556915.85829  20650898.273
  -1326908.438 5  -1033952.26622  23857254.765
   -266023.663 7   -207280.65425  22684898.375
 -13870594.342 7 -10808234.35926  21934397.630
 92  5  7  3 33 30.0010000  0  6G 3G25G20G17G24G16
  -7709814.608 7  -6007631.02525  22485720.455
  -7276563.350 5  -5670045.82221  24112270.520
 -21237792.510 8 -16548909.57629  20652850.533
  -1423311.739 5  -1109071.52923  23838907.763
   -183878.280 7   -143271.28425  22700529.250
 -13892437.395 7 -10825254.88426  21930244.007
 92  5  7  3 34  0.0010000  0  6G 3G25G20G17G24G16
  -7766808.553 7  -6052041.84724  22474876.070
  -7268700.369 5  -5663918.78622  24113761.990
 -21226927.201 8 -16540443.09029  20654918.489
  -1519514.408 5  -1184034.57221  23820604.544
   -101568.798 7    -79134.04025  22716188.308
 -13913743.239 7 -10841856.80325  21926188.716
 92  5  7  3 34 30.0010000  0  6G 3G25G20G17G24G16
  -7823678.998 7  -6096356.42424  22464052.956
  -7260288.858 5  -5657364.37023  24115365.578
 -21215468.502 8 -16531514.21729  20657097.689
  -1615500.944 5  -1258829.19121  23802340.291
    -19098.657 7    -14871.60024  22731884.848
 -13934504.132 7 -10858034.08526  21922237.446
 92  5  7  3 35  0.0010000  0  6G 3G25G20G17G24G16
  -7880428.195 7  -6140576.54224  22453254.430
  -7251330.954 6  -5650384.20823  24117071.703
 -21203418.447 8 -16522124.55029  20659392.009
  -1711279.800 5  -1333461.89822  23784109.595
     63540.743 7     49522.71225  22747609.850
 -13954696.810 7 -10873768.60426  21918395.606
 92  5  7  3 35 30.0010000  0  6G 3G25G20G17G24G16
  -7937056.419 7  -6184702.39925  22442479.287
  -7241823.964 6  -5642976.20322  24118878.254
 -21190777.628 8 -16512274.53929  20661795.131
  -1806859.567 4  -1407939.53723  23765917.603
    146357.089 7    114054.90825  22763372.353
 -13974298.447 7 -10889042.57226  21914667.385
 92  5  7  3 36  0.0010000  0  6G 3G25G20G17G24G16
  -7993564.144 7  -6228734.36024  22431724.840
  -7231782.241 6  -5635151.52221  24120789.123
 -21177546.349 8 -16501964.44029  20664313.389
  -1902234.711 4  -1482257.73321  23747770.267
    229337.946 7    178715.31325  22779161.816
 -13993297.653 7 -10903847.10925  21911053.985
 92  5  7  3 36 30.0010000  0  6G 3G25G20G17G24G16
  -8049948.702 7  -6272670.35122  22420996.463
  -7221195.181 6  -5626901.76323  24122802.529
 -21163722.118 8 -16491192.29729  20666945.563
  -1997402.824 4  -1556414.51422  23729656.801
    312476.898 7    243498.89625  22794982.166
 -14011681.048 7 -10918171.79625  21907553.018
 92  5  7  3 37  0.0010000  0  6G 3G25G20G17G24G16
  -8106207.711 7  -6316508.50424  22410288.172
  -7210047.387 6  -5618215.25924  24124925.959
 -21149302.883 8 -16479956.53329  20669692.262
  -2092380.540 4  -1630423.01322  23711596.995
    395770.538 7    308403.01524  22810835.793
 -14029449.580 7 -10932017.35825  21904169.264
 92  5  7  3 37 30.0010000  0  6G 3G25G20G17G24G16
  -8162343.446 7  -6360250.59525  22399607.470
  -7198329.999 6  -5609084.84222  24127156.410
 -21134290.605 8 -16468258.63629  20672544.500
  -2187160.958 5  -1704277.71522  23693556.384
    479202.067 7    373414.57225  22826708.895
 -14046632.191 7 -10945406.35826  21900900.629
 92  5  7  3 38  0.0010000  0  6G 3G25G20G17G24G16
  -8218357.856 7  -6403898.16025  22388949.854
  -7186049.202 5  -5599515.46522  24129495.996
 -21118687.632 8 -16456100.47029  20675516.045
  -2281746.314 5  -1777980.48823  23675556.258
    562759.347 7    438524.13524  22842605.991
 -14063243.069 7 -10958349.85325  21897738.405
 92  5  7  3 38 30.0010000  0  6G 3G25G20G17G24G16
  -8274247.592 7  -6447448.56124  22378314.417
  -7173202.451 5  -5589505.02723  24131942.307
 -21102491.109 8 -16443479.78729  20678598.801
  -2376139.588 5  -1851533.56023  23657595.394
    646457.798 7    503743.69026  22858538.756
 -14079291.000 7 -10970854.69725  21894682.331
 92  5  7  3 39  0.0010000  0  6G 3G25G20G17G24G16
  -8330013.559 7  -6490902.52122  22367702.067
  -7159804.465 5  -5579065.05022  24134487.247
 -21085702.399 8 -16430397.66829  20681792.801
  -2470329.946 5  -1924928.46122  23639666.604
    730306.952 7    569080.66525  22874488.028
 -14094790.196 7 -10982931.93825  21891732.668
 92  5  7  3 39 30.0010000  0  6G 3G25G20G17G24G16
  -8385656.022 7  -6534260.24124  22357113.101
  -7145880.788 5  -5568215.42521  24137138.598
 -21068321.549 8 -16416854.14329  20685099.199
  -2564299.297 5  -1998151.23523  23621779.189
    814317.604 7    634543.51125  22890481.641
 -14109739.616 7 -10994580.80425  21888892.139
 92  5  7  3 40  0.0010000  0  6G 3G25G20G17G24G16
  -8441169.382 7  -6577517.36024  22346550.205
  -7131447.070 5  -5556968.43322  24139889.503
 -21050343.197 8 -16402845.03629  20688521.029
  -2658045.080 5  -2071199.77423  23603948.120
    898503.761 7    700143.09725  22906503.454
 -14124113.787 7 -11005781.42225  21886152.926
 92  5  7  3 40 30.0010000  0  6G 3G25G20G17G24G16
  -8496553.826 7  -6620674.03225  22336008.005
  -7116500.266 5  -5545321.64922  24142732.126
 -21031768.101 8 -16388370.92829  20692057.979
  -2751558.787 6  -2144067.45922  23586152.440
    982856.317 7    765872.34725  22922552.541
 -14137910.487 8 -11016532.06226  21883527.645
 92  5  7  3 41  0.0010000  0  6G 3G25G20G17G24G16
  -8551816.536 7  -6663735.84125  22325492.486
  -7101039.513 4  -5533274.29822  24145664.705
 -21012603.891 8 -16373437.77529  20695704.359
  -2844839.290 6  -2216753.46522  23568400.229
   1067350.366 7    831711.85625  22938631.608
 -14151112.999 7 -11026819.70326  21881016.891
 92  5  7  3 41 30.0010000  0  6G 3G25G20G17G24G16
  -8606953.067 7  -6706699.34224  22315003.038
  -7085053.402 4  -5520817.47821  24148718.388
 -20992846.662 8 -16358042.51629  20699462.560
  -2937889.488 6  -2289260.01722  23550691.800
   1151977.100 7    897654.73325  22954732.261
 -14163711.150 8 -11036636.38725  21878618.847
 92  5  7  3 42  0.0010000  0  6G 3G25G20G17G24G16
  -8661964.707 7  -6749565.50425  22304533.989
  -7068521.936 5  -5507935.96323  24151860.823
 -20972497.745 8 -16342186.21329  20703336.474
  -3030719.510 6  -2361594.95822  23533028.027
   1236721.951 7    963689.67424  22970859.909
 -14175711.180 8 -11045987.04825  21876334.421
 92  5  7  3 42 30.0010000  0  6G 3G25G20G17G24G16
  -8716853.627 7  -6792336.04526  22294087.120
  -7051436.681 5  -5494622.82123  24155106.075
 -20951559.953 8 -16325871.04429  20707319.224
  -3123326.031 6  -2433755.79422  23515404.424
   1321584.010 7   1029815.93925  22987010.016
 -14187127.804 7 -11054883.09326  21874162.131
 92  5  7  3 43  0.0010000  0  6G 3G25G20G17G24G16
  -8771619.399 7  -6835010.63425  22283665.431
  -7033801.260 5  -5480880.96123  24158464.945
 -20930033.404 8 -16309097.11429  20711415.593
  -3215715.779 6  -2505747.69424  23497826.401
   1406581.054 7   1096047.38424  23003183.820
 -14197953.931 8 -11063319.00325  21872102.866
 92  5  7  3 43 30.0010000  0  6G 3G25G20G17G24G16
  -8826259.526 7  -6877587.31625  22273268.940
  -7015617.744 5  -5466712.01921  24161922.148
 -20907916.204 8 -16291862.91729  20715621.968
  -3307894.192 6  -2577574.89024  23480282.842
   1491715.706 7   1162386.05824  23019386.103
 -14208208.894 8 -11071309.84826  21870151.809
 92  5  7  3 44  0.0010000  0  6G 3G25G20G17G24G16
  -8880772.129 7  -6920064.62625  22262897.019
  -6996888.810 5  -5452118.01522  24165489.077
 -20885207.255 8 -16274167.62829  20719945.574
  -3399861.942 6  -2649237.95923  23462780.657
   1576988.447 7   1228832.34726  23035615.678
 -14217885.898 7 -11078850.34826  21868309.886
 92  5  7  3 44 30.0010000  0  6G 3G25G20G17G24G16
  -8935158.819 7  -6962443.82825  22252546.091
  -6977632.772 5  -5437113.30923  24169154.041
 -20861908.754 8 -16256012.94129  20724378.016
  -3491615.532 6  -2720734.14924  23445327.630
   1662394.379 6   1295382.40025  23051867.729
 -14226976.630 7 -11085933.99926  21866580.989
 92  5  7  3 45  0.0010000  0  6G 3G25G20G17G24G16
  -8989419.569 7  -7004724.89625  22242220.030
  -6957860.845 5  -5421706.65523  24172915.244
 -20838020.959 8 -16237399.07129  20728924.060
  -3583151.569 6  -2792060.79624  23427903.396
   1747916.834 6   1362023.26224  23068137.457
 -14235471.844 8 -11092553.62226  21864962.394
 92  5  7  3 45 30.0010000  0  6G 3G25G20G17G24G16
  -9043554.777 7  -7046908.11925  22231920.056
  -6937570.644 5  -5405896.14623  24176775.668
 -20813544.835 8 -16218326.76629  20733582.831
  -3674457.432 6  -2863208.10424  23410529.523
   1833543.086 6   1428745.00425  23084428.177
 -14243378.807 8 -11098714.85126  21863459.843
 92  5  7  3 46  0.0010000  0  6G 3G25G20G17G24G16
  -9097566.964 7  -7088995.50025  22221641.686
  -6916767.200 5  -5389685.64322  24180738.316
 -20788483.435 8 -16198798.40329  20738351.034
  -3765521.349 6  -2934166.88023  23393199.118
   1919285.130 6   1495556.96625  23100747.987
 -14250693.169 8 -11104414.33426  21862067.909
 92  5  7  3 46 30.0010000  0  6G 3G25G20G17G24G16
  -9151452.118 7  -7130983.87625  22211386.978
  -6895441.317 6  -5373068.03322  24184796.905
 -20762833.863 8 -16178811.71329  20743233.151
  -3856328.459 6  -3004925.50722  23375914.293
   2005155.659 6   1562469.04324  23117086.975
 -14257413.803 8 -11109651.16226  21860788.686
 92  5  7  3 47  0.0010000  0  6G 3G25G20G17G24G16
  -9205208.742 7  -7172872.11825  22201156.561
  -6873577.946 6  -5356031.66223  24188952.936
 -20736595.710 8 -16158366.39529  20748225.902
  -3946880.300 6  -3075485.24522  23358687.613
   2091160.468 6   1629485.76025  23133455.943
 -14263542.779 8 -11114426.96426  21859622.505
 92  5  7  3 47 30.0010000  0  6G 3G25G20G17G24G16
  -9258835.999 7  -7214659.56126  22190954.326
  -6851177.959 5  -5338577.14523  24193224.680
 -20709768.019 8 -16137461.69429  20753330.475
  -4037185.374 6  -3145852.72022  23341505.919
   2177306.673 6   1696612.64225  23149846.496
 -14269081.268 8 -11118742.63426  21858569.035
 92  5  7  3 48  0.0010000  0  6G 3G25G20G17G24G16
  -9312334.523 8  -7256346.67326  22180770.379
  -6828257.232 6  -5320716.96222  24197578.858
 -20682352.812 8 -16116099.19829  20758545.665
  -4127262.484 5  -3216042.54224  23324363.471
   2263592.932 6   1763848.68324  23166265.231
 -14274024.832 8 -11122594.74526  21857627.073
 92  5  7  3 48 30.0010000  0  6G 3G25G20G17G24G16
  -9365707.396 7  -7297935.88325  22170617.302
  -6804821.569 5  -5302455.20622  24202042.467
 -20654353.610 8 -16094281.63029  20763874.472
  -4217131.448 5  -3286070.19423  23307260.914
   2349995.812 6   1831175.58825  23182713.039
 -14278364.478 8 -11125976.27226  21856802.654
 92  5  7  3 49  0.0010000  0  6G 3G25G20G17G24G16
  -9418951.715 7  -7339424.91125  22160481.918
  -6780880.913 5  -5283800.17622  24206596.328
 -20625769.202 8 -16072008.06329  20769316.009
  -4306800.671 6  -3355942.22423  23290193.432
   2436501.246 6   1898582.38425  23199170.147
 -14282100.651 7 -11128887.54725  21856089.447
 92  5  7  3 49 30.0010000  0  6G 3G25G20G17G24G16
  -9472068.220 7  -7380814.34626  22150373.217
  -6756444.206 5  -5264758.64621  24211243.112
 -20596600.635 8 -16049279.30629  20774866.661
  -4396266.558 6  -3425655.76225  23273177.218
   2523103.370 6   1966064.54124  23215653.343
 -14285239.925 8 -11131333.71326  21855497.047
 92  5  7  3 50  0.0010000  0  6G 3G25G20G17G24G16
  -9525056.301 7  -7422103.72624  22140292.086
  -6731494.354 5  -5245317.10522  24215989.414
 -20566848.334 8 -16026095.69529  20780527.634
  -4485517.300 6  -3495201.66924  23256188.280
   2609801.451 6   2033621.45625  23232144.323
 -14287782.798 8 -11133315.14627  21855009.296
 92  5  7  3 50 30.0010000  0  6G 3G25G20G17G24G16
  -9577909.800 7  -7463288.22325  22130234.060
  -6706018.898 5  -5225466.08622  24220839.161
 -20536507.293 8 -16002453.32629  20786299.852
  -4574528.068 6  -3564560.59223  23239252.704
   2696592.510 6   2101250.83124  23248664.392
 -14289737.402 8 -11134838.19526  21854636.943
 92  5  7  3 51  0.0010000  0  6G 3G25G20G17G24G16
  -9630632.648 8  -7504370.92325  22120202.698
  -6680026.012 5  -5205211.94322  24225784.535
 -20505581.933 8 -15978355.64329  20792185.374
  -4663285.465 6  -3633722.09024  23222362.097
   2783475.856 6   2168952.10922  23265197.339
 -14291126.449 8 -11135920.54627  21854374.335
 92  5  7  3 51 30.0010000  0  6G 3G25G20G17G24G16
  -9683224.258 8  -7545351.35126  22110194.439
  -6653518.682 4  -5184556.94822  24230833.651
 -20474073.059 8 -15953803.27429  20798183.014
  -4751775.182 6  -3702675.04624  23205519.147
   2870467.328 6   2236737.65524  23281750.074
 -14291949.369 8 -11136561.76226  21854217.248
 92  5  7  3 52  0.0010000  0  6G 3G25G20G17G24G16
  -9735684.068 7  -7586229.08725  22100212.234
  -6626513.484 5  -5163513.91521  24235968.796
 -20441981.105 8 -15928796.55529  20804289.788
  -4839999.873 6  -3771421.46424  23188733.765
   2957575.731 6   2304614.33224  23298328.305
 -14292195.731 7 -11136753.74326  21854170.778
 92  5  7  3 52 30.0010000  0  6G 3G25G20G17G24G16
  -9788010.526 7  -7627002.90025  22090253.430
  -6599029.998 5  -5142098.13821  24241202.274
 -20409305.562 8 -15903335.09029  20810506.288
  -4927966.544 6  -3839966.78025  23171991.869
   3044802.224 6   2372583.00223  23314928.714
 -14291866.816 8 -11136497.41526  21854232.534
 92  5  7  3 53  0.0010000  0  6G 3G25G20G17G24G16
  -9840203.188 8  -7667672.47325  22080321.604
  -6571065.574 5  -5120307.72122  24246519.983
 -20376046.865 8 -15877419.22629  20816833.999
  -5015679.951 6  -3908314.79625  23155306.617
   3132150.607 6   2440646.65723  23331549.506
 -14290949.716 8 -11135782.78026  21854406.408
 92  5  7  3 53 30.0010000  0  6G 3G25G20G17G24G16
  -9892261.751 8  -7708237.53725  22070414.975
  -6542617.388 5  -5098140.39722  24251934.838
 -20342206.087 8 -15851049.78529  20823275.345
  -5103147.528 6  -3976471.22225  23138657.346
   3219619.341 6   2508804.09724  23348193.384
 -14289423.756 8 -11134593.71126  21854695.401
 92  5  7  3 54  0.0010000  0  6G 3G25G20G17G24G16
  -9944188.296 8  -7748699.73627  22060533.214
  -6513677.230 5  -5075589.69722  24257439.021
 -20307786.860 8 -15824229.60229  20829825.215
  -5190378.291 6  -4044443.12025  23122058.438
   3307180.724 7   2577033.7572   23364856.754
 -14287291.164 7 -11132931.91126  21855102.235
 92  5  7  3 54 30.0010000  0  6G 3G25G20G17G24G16
  -9995981.174 8  -7789057.78226  22050676.336
  -6484216.756 5  -5052633.5532   24263050.540
 -20272788.549 8 -15796958.19729  20836484.794
  -5277358.244 6  -4112219.59126  23105506.592
   3394820.452 7   2645324.44423  23381533.909
 -14284552.210 7 -11130797.65526  21855625.672
 92  5  7  3 55  0.0010000  0  6G 3G25G20G17G24G16
 -10047639.674 7  -7829311.11926  22040846.140
  -6454229.092 4  -5029266.62422  24268757.686
 -20237211.276 8 -15769235.64729  20843255.914
  -5364077.083 6  -4179792.60725  23089000.326
   3482536.123 7   2713674.31624  23398226.037
 -14281195.747 7 -11128182.21126  21856262.117
 92  5  7  3 55 30.0010000  0  6G 3G25G20G17G24G16
 -10099161.260 8  -7869457.76025  22031041.421
  -6423718.064 5  -5005491.7512   24274561.977
 -20201054.091 8 -15741061.21829  20850135.244
  -5450536.792 6  -4247163.69424  23072547.999
   3570336.775 6   2782090.38923  23414934.970
 -14277216.570 8 -11125081.53526  21857019.700
 92  5  7  3 56  0.0010000  0  6G 3G25G20G17G24G16
 -10150552.840 8  -7909503.10626  22021263.104
  -6392694.371 5  -4981317.43022  24280460.692
 -20164325.565 8 -15712441.59029  20857124.318
  -5536739.452 5  -4314334.47524  23056147.569
   3658215.850 6   2850567.57324  23431659.503
 -14272641.515 8 -11121516.53426  21857887.901
 92  5  7  3 56 30.0010000  0  6G 3G25G20G17G24G16
 -10201812.363 8  -7949445.54426  22011509.654
  -6361169.367 5  -4956752.57722  24286458.035
 -20127024.688 9 -15683375.97329  20864221.007
  -5622682.505 5  -4381302.98624  23039791.480
   3746185.598 6   2919115.42124  23448395.413
 -14267468.386 7 -11117485.50026  21858877.520
 92  5  7  3 57  0.0010000  0  6G 3G25G20G17G24G16
 -10252940.090 8  -7989285.28326  22001779.884
  -6329165.069 5  -4931814.27822  24292552.209
 -20089152.498 8 -15653865.18329  20871429.518
  -5708378.901 5  -4448079.28224  23023485.770
   3834249.763 6   2987736.86123  23465151.706
 -14261703.497 8 -11112993.36326  21859973.551
 92  5  7  3 57 30.0010000  0  6G 3G25G20G17G24G16
 -10303933.209 8  -8029020.15026  21992076.201
  -6296684.648 5  -4906504.93522  24298737.229
 -20050708.392 8 -15623908.75029  20878743.846
  -5793832.325 5  -4514666.26225  23007227.123
   3922409.868 6   3056433.02923  23481930.805
 -14255361.016 8 -11108051.15626  21861180.513
 92  5  7  3 58  0.0010000  0  6G 3G25G20G17G24G16
 -10354787.519 8  -8068646.84526  21982397.997
  -6263725.326 5  -4880822.38021  24305007.093
 -20011689.492 8 -15593504.41529  20886170.013
  -5879038.017 5  -4581060.21524  22991003.865
   4010666.029 7   3125204.06424  23498726.064
 -14248451.092 8 -11102666.77226  21862494.811
 92  5  7  3 58 30.0010000  0  6G 3G25G20G17G24G16
 -10405503.724 8  -8108165.92825  21972747.084
  -6230280.000 5  -4854760.85822  24311374.991
 -19972097.562 8 -15562653.56329  20893705.297
  -5964005.611 5  -4647268.60524  22974843.253
   4099024.578 6   3194054.87423  23515538.424
 -14240962.917 8 -11096831.81726  21863915.834
 92  5  7  3 59  0.0010000  0  6G 3G25G20G17G24G16
 -10456084.899 8  -8147579.79626  21963120.444
  -6196353.156 5  -4828324.57922  24317834.905
 -19931937.324 8 -15531359.87029  20901347.899
  -6048738.263 5  -4713293.93524  22958720.403
   4187482.505 6   3262983.13323  23532372.684
 -14232901.132 8 -11090549.88626  21865453.164
 92  5  7  3 59 30.0010000  0  6G 3G25G20G17G24G16
 -10506528.027 8  -8186886.08125  21953522.894
  -6161938.618 5  -4801508.10922  24324377.585
 -19891207.180 8 -15499622.10329  20909096.336
  -6133224.843 5  -4779127.52023  22942641.336
   4276044.398 6   3331992.37425  23549227.012
 -14224247.148 8 -11083806.48326  21867103.518
 92  5  7  4  0  0.0010000  0  6G 3G25G20G17G24G16
 -10556833.573 8  -8226085.17626  21943953.823
  -6127038.164 5  -4774313.12222  24331015.281
 -19849909.579 8 -15467442.14528  20916954.501
  -6217465.123 6  -4844769.18323  22926608.146
   4364698.304 6   3401073.33624  23566094.532
 -14214984.460 8 -11076588.79927  21868862.709
 92  5  7  4  0 30.0010000  0  6G 3G25G20G17G24G16
 -10607003.434 8  -8265178.53026  21934404.820
  -6091661.020 5  -4746746.60022  24337750.123
 -19808047.700 8 -15434822.50228  20924922.672
  -6301447.089 6  -4910209.59625  22910624.707
   4453428.439 6   3470213.69024  23582975.837
 -14205100.821 8 -11068887.24126  21870742.709
 92  5  7  4  1  0.0010000  0  6G 3G25G20G17G24G16
 -10657035.623 8  -8304164.61026  21924884.016
  -6055821.189 4  -4718819.51821  24344571.902
 -19765621.447 8 -15401763.08629  20932995.195
  -6385158.127 5  -4975438.87622  22894695.537
   4542229.994 6   3539409.70823  23599877.246
 -14194603.899 8 -11060707.80327  21872741.125
 92  5  7  4  1 30.0010000  0  6G 3G25G20G17G24G16
 -10706924.690 8  -8343039.15326  21915389.597
  -6019507.469 4  -4690523.24022  24351484.212
 -19722626.994 8 -15368260.91729  20941178.021
  -6468591.400 5  -5040451.71024  22878817.915
   4631096.716 6   3608656.48422  23616787.938
 -14183497.470 8 -11052053.41426  21874855.847
 92  5  7  4  2  0.0010000  0  6G 3G25G20G17G24G16
 -10756671.098 8  -8381802.52526  21905923.953
  -5982721.211 5  -4661858.36821  24358481.976
 -19679066.191 8 -15334317.42429  20949465.181
  -6551759.643 5  -5105258.04424  22862994.285
   4720017.731 6   3677945.59325  23633712.415
 -14171801.317 8 -11042939.50926  21877081.203
 92  5  7  4  2 30.0010000  0  6G 3G25G20G17G24G16
 -10806278.811 8  -8420457.83726  21896484.973
  -5945478.600 5  -4632838.35621  24365564.863
 -19634944.556 8 -15299936.94429  20957862.976
  -6634666.048 6  -5169860.34124  22847215.903
   4809000.209 6   3747282.56924  23650642.599
 -14159527.465 8 -11033375.44626  21879415.694
 92  5  7  4  3  0.0010000  0  6G 3G25G20G17G24G16
 -10855742.701 8  -8459001.10027  21887069.394
  -5907768.135 5  -4603453.71822  24372741.910
 -19590258.634 8 -15265116.73929  20966366.293
  -6717318.484 6  -5234264.75322  22831488.493
   4898044.923 6   3816668.06325  23667588.977
 -14146676.593 8 -11023361.75325  21881864.099
 92  5  7  4  3 30.0010000  0  6G 3G25G20G17G24G16
 -10905065.346 8  -8497434.30826  21877684.998
  -5869591.143 5  -4573705.52323  24380006.767
 -19545013.183 8 -15229860.53429  20974975.724
  -6799720.382 6  -5298473.93223  22815808.146
   4987143.359 6   3886095.43124  23684547.936
 -14133238.625 8 -11012890.58627  21884416.839
 92  5  7  4  4  0.0010000  0  6G 3G25G20G17G24G16
 -10954240.986 8  -8535752.94227  21868325.766
  -5830962.216 5  -4543605.17623  24387359.486
 -19499204.193 8 -15194165.22529  20983693.085
  -6881857.266 6  -5362476.63624  22800176.660
   5076320.728 6   3955584.25624  23701513.177
 -14119197.561 8 -11001949.49326  21887090.683
 92  5  7  4  4 30.0010000  0  6G 3G25G20G17G24G16
 -11003276.639 8  -8573962.48226  21858995.937
  -5791887.271 5  -4513157.24522  24394787.137
 -19452840.217 8 -15158037.45529  20992515.689
  -6963715.826 6  -5426262.47124  22784600.648
   5165574.040 6   4025132.26924  23718495.834
 -14104563.396 8 -10990546.23225  21889874.848
 92  5  7  4  5  0.0010000  0  6G 3G25G20G17G24G16
 -11052168.453 8  -8612059.95526  21849691.272
  -5752351.067 4  -4482349.92823  24402314.637
 -19405919.606 8 -15121475.94028  21001445.000
  -7045291.796 6  -5489828.08423  22769077.091
   5254906.766 6   4094742.18423  23735494.963
 -14089348.736 8 -10978690.62226  21892771.148
 92  5  7  4  5 30.0010000  0  6G 3G25G20G17G24G16
 -11100920.957 8  -8650048.88626  21840412.101
  -5712379.748 4  -4451203.52021  24409929.650
 -19358448.587 8 -15084485.55329  21010479.239
  -7126586.558 6  -5553174.55224  22753608.398
   5344330.364 6   4164422.88423  23752509.676
 -14073572.483 8 -10966397.42326  21895771.765
 92  5  7  4  6  0.0010000  0  6G 3G25G20G17G24G16
 -11149528.224 8  -8687924.63826  21831163.503
  -5671964.187 4  -4419711.00922  24417616.942
 -19310423.141 8 -15047063.12429  21019616.330
  -7207601.451 6  -5616302.99323  22738187.379
   5433844.065 6   4234173.79924  23769542.083
 -14057249.233 7 -10953678.00226  21898879.126
 92  5  7  4  6 30.0010000  0  6G 3G25G20G17G24G16
 -11197989.604 8  -8725686.72526  21821941.587
  -5631083.285 4  -4387855.89122  24425396.843
 -19261844.474 8 -15009209.62829  21028861.316
  -7288347.646 6  -5679222.02624  22722824.521
   5523425.008 6   4303977.11924  23786590.684
 -14040375.674 8 -10940529.75726  21902089.006
 92  5  7  4  7  0.0010000  0  6G 3G25G20G17G24G16
 -11246308.389 8  -8763337.69625  21812746.055
  -5589758.013 5  -4355654.50923  24433261.900
 -19212718.058 8 -14970929.30729  21038210.044
  -7368841.007 6  -5741944.06422  22707509.617
   5613063.083 6   4373824.95424  23803644.381
 -14022933.655 8 -10926938.54026  21905407.706
 92  5  7  4  7 30.0010000  0  6G 3G25G20G17G24G16
 -11294483.404 8  -8800876.62826  21803578.705
  -5547994.090 5  -4323111.36622  24441209.096
 -19163044.675 8 -14932222.77929  21047662.809
  -7449086.354 6  -5804472.82223  22692237.587
   5702741.468 6   4443704.22924  23820716.365
 -14004894.095 8 -10912881.73226  21908841.228
 92  5  7  4  8  0.0010000  0  6G 3G25G20G17G24G16
 -11342511.092 8  -8838300.77127  21794440.131
  -5505774.201 5  -4290212.94921  24449235.446
 -19112822.718 8 -14893088.79029  21057216.891
  -7529081.792 6  -5866806.84622  22677014.122
   5792447.102 6   4513604.69124  23837784.440
 -13986226.442 8 -10898335.51126  21912393.464
 92  5  7  4  8 30.0010000  0  6G 3G25G20G17G24G16
 -11390392.533 8  -8875610.94527  21785329.128
  -5463125.346 5  -4256980.19722  24457358.330
 -19062055.509 8 -14853529.93029  21066880.996
  -7608819.925 6  -5928940.39924  22661843.740
   5882188.943 6   4583533.35424  23854873.212
 -13966921.100 8 -10883292.37325  21916066.526
 92  5  7  4  9  0.0010000  0  6G 3G25G20G17G24G16
 -11438124.720 8  -8912804.82727  21776245.417
  -5420060.653 5  -4223423.41023  24465544.157
 -19010742.131 8 -14813545.48829  21076644.637
  -7688288.387 7  -5990863.78924  22646720.108
   5971979.460 6   4653499.95423  23871947.290
 -13946992.767 8 -10867763.78526  21919860.988
 92  5  7  4  9 30.0010000  0  6G 3G25G20G17G24G16
 -11485713.155 8  -8949886.68526  21767190.185
  -5376567.823 5  -4189532.95622  24473830.428
 -18958890.252 8 -14773141.42329  21086510.815
  -7767480.959 7  -6052572.19724  22631645.336
   6061816.817 6   4723503.09624  23889043.251
 -13926474.110 7 -10851775.21426  21923764.288
 92  5  7  4 10  0.0010000  0  6G 3G25G20G17G24G16
 -11533150.175 8  -8986850.57126  21758162.838
  -5332645.008 5  -4155307.55522  24482190.130
 -18906493.833 8 -14732313.04329  21096481.905
  -7846382.265 7  -6114053.66624  22616634.728
   6151725.719 6   4793561.96724  23906155.109
 -13905390.948 7 -10835346.75927  21927775.517
 92  5  7  4 10 30.0010000  0  6G 3G25G20G17G24G16
 -11580441.280 8  -9023700.76227  21749161.562
  -5288304.155 5  -4120756.33123  24490628.985
 -18853560.955 8 -14691066.64629  21106553.437
  -7924992.308 7  -6175308.17124  22601677.484
   6241706.387 6   4863676.73723  23923274.453
 -13883771.934 7 -10818500.75627  21931888.970
 92  5  7  4 11  0.0010000  0  6G 3G25G20G17G24G16
 -11627586.800 8  -9060437.50727  21740192.970
  -5243521.349 4  -4085860.73622  24499148.495
 -18800094.241 8 -14649404.27428  21116725.990
  -8003312.782 7  -6236337.04422  22586770.600
   6331738.089 6   4933831.28723  23940414.790
 -13861617.087 7 -10801237.23127  21936107.054
 92  5  7  4 11 30.0010000  0  6G 3G25G20G17G24G16
 -11674575.644 8  -9097052.17126  21731252.264
  -5198292.521 4  -4050617.57822  24507751.941
 -18746084.553 8 -14607318.79229  21127008.879
  -8081342.462 7  -6297139.29825  22571923.990
   6421828.179 6   5004031.36923  23957547.030
 -13838899.146 8 -10783534.90626  21940427.658
 92  5  7  4 12  0.0010000  0  6G 3G25G20G17G24G16
 -11721415.055 8  -9133550.39027  21722337.943
  -5152648.308 3  -4015050.85822  24516433.931
 -18691541.957 8 -14564818.07128  21137386.192
  -8159096.681 7  -6357726.92524  22557127.130
   6511956.067 6   5074260.92623  23974709.249
 -13815598.395 8 -10765378.46326  21944862.194
 92  5  7  4 12 30.0010000  0  6G 3G25G20G17G24G16
 -11768100.114 8  -9169928.33427  21713454.490
  -5106572.778 3  -3979147.97921  24525203.747
 -18636463.488 8 -14521899.77029  21147866.636
  -8236566.647 7  -6418093.06923  22542383.336
   6602106.719 6   5144508.12322  23991860.981
 -13791684.174 8 -10746743.97027  21949417.539
 92  5  7  4 13  0.0010000  0  5G 3G20G17G24G16
 -11814629.641 8  -9206185.09227  21704598.313
 -18580850.143 8 -14478564.67828  21158450.804
  -8313758.431 7  -6478242.44623  22527695.000
   6692273.992 5   5214768.34423  24009018.995
 -13767154.593 8 -10727629.99726  21954081.999
 92  5  7  4 13 30.0010000  0  5G 3G20G17G24G16
 -11861003.504 8  -9242320.55726  21695775.134
 -18524704.305 8 -14434814.68229  21169133.914
  -8390684.886 6  -6538185.05524  22513057.041
   6782472.366 6   5285052.72123  24026190.812
 -13742012.786 7 -10708038.97626  21958865.802
 92  5  7  4 14  0.0010000  0  5G 3G20G17G24G16
 -11907223.033 8  -9278335.74826  21686978.322
 -18468029.643 8 -14390652.61429  21179921.639
  -8467355.091 6  -6597928.01525  22498467.037
   6872700.728 6   5355360.54323  24043347.936
 -13716272.120 7 -10687981.29226  21963761.112
 92  5  7  4 14 30.0010000  0  5G 3G20G17G24G16
 -11953281.821 8  -9314225.69726  21678212.990
 -18410821.906 8 -14346075.17129  21190806.212
  -8543761.388 7  -6657465.32624  22483927.707
   6962978.760 6   5425707.09522  24060525.738
 -13689963.976 7 -10667481.42226  21968767.335
 92  5  7  4 15  0.0010000  0  5G 3G20G17G24G16
 -11999179.183 8  -9349989.84926  21669481.233
 -18353083.144 8 -14301083.92728  21201794.510
  -8619906.267 6  -6716798.94124  22469435.738
   7053319.319 6   5496102.29124  24077724.830
 -13663108.680 7 -10646555.21026  21973880.894
 92  5  7  4 15 30.0010000  0  5G 3G20G17G24G16
 -12044922.369 8  -9385633.86926  21660775.860
 -18294822.898 8 -14255686.33428  21212879.935
  -8695786.866 7  -6775926.60523  22454995.630
   7143718.135 6   5566542.92422  24094925.125
 -13635705.801 7 -10625202.30426  21979093.693
 92  5  7  4 16  0.0010000  0  5G 3G20G17G24G16
 -12090507.257 8  -9421154.54527  21652103.469
 -18236039.302 8 -14209880.93227  21224068.491
  -8771373.690 6  -6834825.39224  22440614.591
   7234170.240 6   5637025.04522  24112134.722
 -13607762.910 8 -10603428.60126  21984414.404
 92  5  7  4 16 30.0010000  0  5G 3G20G17G24G16
 -12135931.800 8  -9456550.25926  21643458.037
 -18176733.606 8 -14163668.69928  21235351.470
  -8846643.441 6  -6893477.08526  22426289.306
   7324669.385 6   5707543.88923  24129361.385
 -13579279.041 8 -10581233.37526  21989829.259
 92  5  7  4 17  0.0010000  0  5G 3G20G17G24G16
 -12181196.895 8  -9491821.72927  21634843.214
 -18116908.662 8 -14117051.86528  21246735.486
  -8921600.692 7  -6951885.27126  22412028.779
   7415201.596 5   5778088.40723  24146584.471
 -13550220.045 7 -10558589.99027  21995361.624
 92  5  7  4 17 30.0010000  0  5G 3G20G17G24G16
 -12226299.083 9  -9526966.26426  21626261.057
 -18056563.890 8 -14070029.98028  21258219.038
  -8996244.750 6  -7010049.41025  22397820.707
   7505755.342 6   5848649.72022  24163817.137
 -13520570.918 7 -10535486.76626  22001003.715
 92  5  7  4 18  0.0010000  0  6G 3G25G20G17G24G16
 -12271241.183 8  -9561986.04427  21617710.067
     28662.76615     22333.88822  24626753.946
 -17995704.637 8 -14022607.19828  21269797.624
  -9070580.895 6  -7067973.61825  22383673.798
   7596329.028 5   5919226.65225  24181054.898
 -13490351.691 8 -10511939.29926  22006753.143
 92  5  7  4 18 30.0010000  0  6G 3G25G20G17G24G16
 -12316021.336 8  -9596879.63727  21609186.979
     79567.449 5     61999.72922  24636445.343
 -17934331.424 8 -13974783.92228  21281478.730
  -9144622.035 6  -7125667.97125  22369588.349
   7686924.945 5   5989820.83522  24198299.570
 -13459546.033 7 -10487934.88326  22012615.282
 92  5  7  4 19  0.0010000  0  6G 3G25G20G17G24G16
 -12360635.744 8  -9631644.08126  21600697.745
    130874.381 5    101979.3982   24646208.391
 -17872443.127 8 -13926559.27928  21293255.481
  -9218374.546 6  -7183137.40425  22355552.371
   7777557.163 6   6060443.32424  24215533.440
 -13428148.737 7 -10463469.45126  22018592.540
 92  5  7  4 19 30.0010000  0  6G 3G25G20G17G24G16
 -12405086.027 8  -9666280.63427  21592238.804
    182578.083 5    142267.89821  24656049.074
 -17810044.375 8 -13877936.88728  21305127.859
  -9291842.931 6  -7240385.41125  22341570.052
   7868238.538 6   6131104.11123  24232796.678
 -13396187.619 7 -10438564.67326  22024675.930
 92  5  7  4 20  0.0010000  0  6G 3G25G20G17G24G16
 -12449370.930 8  -9700788.31826  21583811.937
    234665.013 5    182855.03222  24665955.109
 -17747136.128 8 -13828917.49028  21317101.273
  -9365030.560 7  -7297414.68125  22327645.599
   7958984.090 6   6201814.97223  24250071.033
 -13363670.220 8 -10413226.44626  22030864.249
 92  5  7  4 20 30.0010000  0  6G 3G25G20G17G24G16
 -12493487.772 8  -9735165.02927  21575417.143
    287136.818 6    223742.09022  24675946.895
 -17683719.004 8 -13779501.55328  21329168.518
  -9437939.303 7  -7354226.63725  22313772.396
   8049787.244 6   6272570.65723  24267345.963
 -13330588.413 7 -10387448.40726  22037155.087
 92  5  7  4 21  0.0010000  0  6G 3G25G20G17G24G16
 -12537439.508 8  -9769413.09427  21567053.236
    339986.630 6    264923.61724  24686005.828
 -17619798.342 8 -13729693.25728  21341332.000
  -9510575.216 7  -7410826.00325  22299943.867
   8140640.460 6   6343365.32323  24284637.698
 -13296963.708 7 -10361247.34326  22043553.873
 92  5  7  4 21 30.0010000  0  6G 3G25G20G17G24G16
 -12581224.680 9  -9803531.35728  21558720.216
    393213.113 5    306399.07522  24696133.115
 -17555375.616 8 -13679493.73428  21353590.813
  -9582935.481 7  -7467210.55825  22286177.093
   8231525.405 6   6414184.77923  24301923.726
 -13262800.512 7 -10334626.64226  22050054.271
 92  5  7  4 22  0.0010000  0  6G 3G25G20G17G24G16
 -12624840.555 9  -9837517.71328  21550421.661
    446819.215 5    348169.95022  24706330.271
 -17490451.165 8 -13628903.27228  21365947.661
  -9655001.627 7  -7523365.92825  22272464.887
   8322421.412 6   6485012.84922  24319224.745
 -13228083.762 7 -10307574.62327  22056664.396
 92  5  7  4 22 30.0010000  0  6G 3G25G20G17G24G16
 -12668289.580 8  -9871374.04128  21542152.177
    500805.760 6    390237.31022  24716608.048
 -17425029.652 8 -13577925.48427  21378392.947
  -9726762.868 7  -7579283.73025  22258807.543
   8413308.262 6   6555833.77422  24336518.870
 -13192810.162 7 -10280088.69426  22063375.837
 92  5  7  4 23  0.0010000  0  6G 3G25G20G17G24G16
 -12711570.056 8  -9905099.03927  21533916.582
    555161.853 6    432592.65922  24726948.489
 -17359112.475 8 -13526561.46429  21390941.660
  -9798218.513 7  -7634963.40625  22245212.253
   8504179.123 6   6626642.22623  24353809.105
 -13156976.239 7 -10252166.13726  22070194.317
 92  5  7  4 23 30.0010000  0  6G 3G25G20G17G24G16
 -12754682.270 8  -9938692.91528  21525711.856
    609881.842 5    475231.65021  24737359.690
 -17292703.108 8 -13474813.92528  21403571.918
  -9869359.206 7  -7690397.65324  22231673.624
   8595028.603 6   6697434.02621  24371108.029
 -13120569.841 7 -10223797.50726  22077124.026
 92  5  7  4 24  0.0010000  0  6G 3G25G20G17G24G16
 -12797624.777 8  -9972154.56928  21517543.112
    664956.165 5    518146.64922  24747839.820
 -17225802.424 8 -13422683.54728  21416308.291
  -9940180.050 7  -7745582.65326  22218195.861
   8685864.631 6   6768215.33322  24388389.869
 -13083597.791 7 -10194988.10526  22084157.458
 92  5  7  4 24 30.0010000  0  6G 3G25G20G17G24G16
 -12840392.641 8 -10005480.13427  21509403.144
    720364.421 4    561321.83822  24758380.223
 -17158408.480 8 -13370168.78028  21429132.212
 -10010696.166 7  -7800530.22525  22204777.150
   8776706.130 6   6839000.92124  24405672.600
 -13046068.008 8 -10165744.11426  22091300.617
 92  5  7  4 25  0.0010000  0  6G 3G25G20G17G24G16
 -12882983.117 8 -10038667.47328  21501298.268
    776096.981 4    604749.68424  24768989.885
 -17090521.751 8 -13317270.05228  21442048.776
 -10080919.948 7  -7855249.99124  22191414.803
   8867580.488 6   6909812.10522  24422964.335
 -13007990.274 8 -10136073.14126  22098546.890
 92  5  7  4 25 30.0010000  0  6G 3G25G20G17G24G16
 -12925401.895 8 -10071721.02528  21493225.745
    832147.783 4    648425.50822  24779658.303
 -17022151.109 8 -13263994.24827  21455061.578
 -10150857.035 7  -7909746.36825  22178109.413
   8958509.311 5   6980665.73224  24440265.353
 -12969374.657 7 -10105983.04326  22105892.716
 92  5  7  4 26  0.0010000  0  6G 3G25G20G17G24G16
 -12967646.099 8 -10104638.54428  21485187.407
    888521.135 4    692352.76822  24790396.870
 -16953296.655 8 -13210341.44828  21468163.097
 -10220525.558 7  -7964033.44525  22164848.102
   9049506.489 6   7051572.60623  24457583.769
 -12930226.183 8 -10075477.73425  22113341.953
 92  5  7  4 26 30.0010000  0  5G 3G20G17G24G16
 -13009714.840 8 -10137419.34528  21477183.550
 -16883960.108 8 -13156312.98627  21481355.461
 -10289941.565 7  -8018123.77326  22151639.544
   9140577.559 5   7122537.06724  24474909.375
 -12890537.482 7 -10044551.45726  22120897.914
 92  5  7  4 27  0.0010000  0  5G 3G20G17G24G16
 -13051607.971 8 -10170063.30727  21469209.377
 -16814144.751 8 -13101911.43229  21494643.174
 -10359094.539 7  -8072009.15225  22138477.752
   9231700.183 5   7193541.71323  24492259.865
 -12850297.293 7 -10013195.44226  22128553.430
 92  5  7  4 27 30.0010000  0  5G 3G20G17G24G16
 -13093318.953 8 -10202565.34927  21461271.168
 -16743847.123 8 -13047134.06928  21508022.308
 -10427963.418 7  -8125673.13324  22125375.029
   9322840.541 5   7264560.11922  24509598.366
 -12809495.516 8  -9981401.84626  22136316.839
 92  5  7  4 28  0.0010000  0  5G 3G20G17G24G16
 -13134852.091 9 -10234928.80527  21453369.535
 -16673074.502 8 -12991986.60028  21521488.676
 -10496541.863 7  -8179110.79824  22112320.556
   9413962.360 5   7335564.14723  24526934.163
 -12768145.612 8  -9949181.13527  22144188.196
 92  5  7  4 28 30.0010000  0  5G 3G20G17G24G16
 -13176208.583 9 -10267154.61627  21445498.789
 -16601831.365 8 -12936472.49127  21535046.204
 -10564813.011 7  -8232309.04026  22099333.249
   9505045.970 5   7406538.40823  24544264.864
 -12726248.043 7  -9916533.65326  22152159.386
 92  5  7  4 29  0.0010000  0  5G 3G20G17G24G16
 -13217391.828 8 -10299245.43828  21437661.617
 -16530124.507 8 -12880597.05528  21548690.948
 -10632761.529 7  -8285255.86025  22086400.806
   9596078.586 5   7477472.88222  24561594.658
 -12683808.027 7  -9883463.50927  22160235.783
 92  5  7  4 29 30.0010000  0  5G 3G20G17G24G16
 -13258388.708 8 -10331191.02628  21429860.410
 -16457943.847 8 -12824352.40128  21562425.351
 -10700373.307 7  -8337940.31825  22073536.400
   9687097.983 5   7548397.03122  24578917.576
 -12640829.522 8  -9849973.74826  22168415.328
 92  5  7  4 30  0.0010000  0  5G 3G20G17G24G16
 -13299199.028 8 -10362991.26928  21422093.388
 -16385291.916 8 -12767740.53328  21576250.565
 -10767667.951 7  -8390377.63725  22060730.768
   9778125.854 5   7619327.81222  24596241.978
 -12597308.288 8  -9816061.09326  22176695.893
 92  5  7  4 30 30.0010000  0  5G 3G20G17G24G16
 -13339823.703 8 -10394646.84628  21414362.051
 -16312173.051 8 -12710764.80927  21590164.846
 -10834659.957 7  -8442579.14024  22047982.092
   9869173.277 5   7690273.89322  24613572.679
 -12553244.529 7  -9781725.67426  22185081.386
 92  5  7  4 31  0.0010000  0  5G 3G20G17G24G16
 -13380264.149 8 -10426158.85428  21406666.680
 -16238591.727 8 -12653428.73928  21604164.248
 -10901344.770 7  -8494541.26926  22035294.580
   9960253.858 5   7761245.7252   24630892.893
 -12508648.425 7  -9746975.46226  22193569.713
 92  5  7  4 31 30.0010000  0  5G 3G20G17G24G16
 -13420514.188 8 -10457522.49927  21399009.978
 -16164545.422 8 -12595730.35228  21618257.183
 -10967730.605 7  -8546270.42926  22022661.320
  10051378.817 4   7832252.14122  24648235.286
 -12463516.498 8  -9711807.73326  22202155.167
 92  5  7  4 32  0.0010000  0  5G 3G20G17G24G16
 -13460574.326 8 -10488738.16228  21391385.349
 -16090037.726 8 -12537672.42228  21632437.073
 -11033824.729 7  -8597772.28026  22010083.831
  10142532.185 5   7903280.8072   24665581.867
 -12417837.149 7  -9676213.42426  22210847.348
 92  5  7  4 32 30.0010000  0  5G 3G20G17G24G16
 -13500447.777 8 -10519808.35628  21383797.611
 -16015075.576 8 -12479260.36127  21646701.195
 -11099612.455 7  -8649035.38326  21997566.005
  10233700.370 5   7974320.88221  24682926.371
 -12371628.312 8  -9640206.52626  22219641.769
 92  5  7  4 33  0.0010000  0  5G 3G20G17G24G16
 -13540127.702 8 -10550727.76027  21376247.635
 -15939655.064 8 -12420491.14828  21661052.272
 -11165081.835 7  -8700050.41825  21985105.433
  10324883.567 5   8045372.72922  24700285.848
 -12324880.794 7  -9603779.89426  22228537.209
 92  5  7  4 33 30.0010000  0  5G 3G20G17G24G16
 -13579617.222 8 -10581498.77927  21368733.326
 -15863782.678 8 -12361369.84327  21675492.065
 -11230248.658 7  -8750829.71124  21972703.022
  10416057.049 6   8116417.05622  24717636.634
 -12277603.861 7  -9566940.70926  22237533.372
 92  5  7  4 34  0.0010000  0  5G 3G20G17G24G16
 -13618916.512 8 -10612121.57027  21361252.313
 -15787461.970 8 -12301899.17426  21690013.421
 -11295096.337 7  -8801360.29724  21960365.352
  10507210.640 5   8187445.86822  24734961.350
 -12229811.746 8  -9529700.09626  22246630.886
 92  5  7  4 34 30.0010000  0  5G 3G20G17G24G16
 -13658023.901 8 -10642594.83427  21353812.657
 -15710694.748 8 -12242080.56527  21704623.494
 -11359621.620 7  -8851639.69725  21948086.454
  10598346.608 6   8258460.84922  24752325.625
 -12181527.238 8  -9492075.81227  22255817.117
 92  5  7  4 35  0.0010000  0  5G 3G20G17G24G16
 -13696936.083 8 -10672915.98428  21346407.186
 -15633481.457 8 -12181914.37227  21719314.239
 -11423830.348 7  -8901672.41625  21935866.014
  10689478.090 5   8329472.34222  24769650.620
 -12132746.240 7  -9454064.62426  22265099.900
 92  5  7  4 35 30.0010000  0  5G 3G20G17G24G16
 -13735656.132 8 -10703087.42328  21339038.588
 -15555828.331 8 -12121405.44627  21734092.496
 -11487723.309 7  -8951459.07425  21923707.034
  10780596.872 6   8400473.91422  24786999.313
 -12083475.110 8  -9415671.53426  22274478.293
 92  5  7  4 36  0.0010000  0  5G 3G20G17G24G16
 -13774179.924 9 -10733105.92728  21331708.362
 -15477734.662 8 -12060553.24927  21748954.411
 -11551302.374 7  -9001001.14525  21911607.402
  10871722.238 6   8471480.76122  24804351.600
 -12033703.108 7  -9376888.14626  22283946.345
 92  5  7  4 36 30.0010000  0  5G 3G20G17G24G16
 -13812505.863 9 -10762970.26328  21324416.213
 -15399202.086 8 -11999359.04828  21763895.165
 -11614586.739 7  -9050313.57425  21899565.338
  10962849.764 6   8542489.19322  24821683.802
 -11983415.414 8  -9337702.93426  22293515.416
 92  5  7  4 37  0.0010000  0  6G23G 3G20G17G24G16
    -18219.935 4    -14197.37022  25095980.720
 -13850637.152 8 -10792682.91827  21317158.231
 -15320237.593 8 -11937828.29528  21778924.060
 -11677580.490 7  -9099399.56325  21887579.342
  11053970.114 6   8613492.06023  24839024.100
 -11932590.156 8  -9298098.84026  22303188.229
 92  5  7  4 37 30.0010000  0  6G23G 3G20G17G24G16
   -127539.649 4    -99381.70122  25075180.515
 -13888572.693 8 -10822243.04628  21309940.140
 -15240843.636 8 -11875962.88527  21794033.610
 -11740285.729 7  -9148260.72826  21875647.005
  11145069.180 6   8684478.38522  24856362.305
 -11881237.000 7  -9258083.37826  22312957.558
 92  5  7  4 38  0.0010000  0  6G23G 3G20G17G24G16
   -236831.536 5   -184544.10022  25054388.406
 -13926305.697 9 -10851645.34727  21302759.515
 -15161017.144 8 -11813760.44227  21809224.095
 -11802708.784 7  -9196902.00525  21863767.420
  11236157.442 5   8755456.21223  24873693.006
 -11829359.634 7  -9217659.45527  22322832.724
 92  5  7  4 38 30.0010000  0  6G23G 3G20G17G24G16
   -346110.306 5   -269696.59222  25033595.110
 -13963833.272 9 -10880887.56928  21295617.542
 -15080758.735 7 -11751221.41927  21824494.920
 -11864838.578 7  -9245314.76725  21851946.608
  11327228.915 5   8826420.94723  24891018.001
 -11776963.481 7  -9176831.28126  22332803.517
 92  5  7  4 39  0.0010000  0  6G23G 3G20G17G24G16
   -455385.632 5   -354846.00721  25012795.201
 -14001154.895 9 -10909969.30927  21288515.461
 -15000071.240 7 -11688348.04826  21839852.682
 -11926658.416 7  -9293486.00326  21840181.549
  11418285.952 4   8897374.46322  24908333.713
 -11724074.423 8  -9135619.02825  22342869.046
 92  5  7  4 39 30.0010000  0  6G23G 3G20G17G24G16
   -564646.987 5   -439984.94822  24991999.497
 -14038274.327 9 -10938893.51028  21281452.049
 -14918961.975 8 -11625146.02126  21855286.300
 -11988173.108 7  -9341419.46526  21828473.168
  11509322.695 5   8968312.21223  24925668.026
 -11670719.931 7  -9094044.08826  22353021.531
 92  5  7  4 40  0.0010000  0  6G23G 3G20G17G24G16
   -673886.081 5   -525106.50221  24971220.581
 -14075187.243 9 -10967656.80228  21274428.825
 -14837430.429 8 -11561614.95126  21870801.463
 -12049368.245 7  -9389103.91626  21816827.120
  11600354.694 4   9039246.16523  24942986.722
 -11616889.374 7  -9052098.19526  22363264.233
 92  5  7  4 40 30.0010000  0  6G23G 3G20G17G24G16
   -783097.906 5   -610206.51121  24950433.271
 -14111893.427 8 -10996258.99728  21267440.955
 -14755479.861 7 -11497757.40727  21886395.467
 -12110230.781 7  -9436529.20426  21805247.347
  11691381.666 4   9110176.21724  24960313.235
 -11562575.480 7  -9009775.68625  22373597.781
 92  5  7  4 41  0.0010000  0  6G23G 3G20G17G24G16
   -892267.010 5   -695273.56021  24929657.355
 -14148395.556 9 -11024702.17427  21260496.257
 -14673116.853 7 -11433578.47127  21902066.216
 -12170769.565 8  -9483702.22227  21793725.719
  11782398.078 4   9181098.07723  24977643.936
 -11507774.600 7  -8967073.68426  22384025.158
 92  5  7  4 41 30.0010000  0  6G23G 3G20G17G24G16
  -1001381.467 5   -780297.62021  24908896.133
 -14184690.287 9 -11052983.75227  21253590.246
 -14590341.604 8 -11369078.31227  21917817.917
 -12230991.678 8  -9530628.48727  21782269.442
  11873417.637 4   9252022.39923  24994952.458
 -11452462.211 7  -8923973.12426  22394552.979
 92  5  7  4 42  0.0010000  0  6G23G 3G20G17G24G16
  -1110447.010 5   -865283.99723  24888144.788
 -14220777.085 9 -11081103.30728  21246723.795
 -14507157.033 8 -11304259.18127  21933647.847
 -12290902.028 7  -9577311.80825  21770868.935
  11964441.363 4   9322949.94423  25012265.168
 -11396622.182 7  -8880461.42125  22405180.616
 92  5  7  4 42 30.0010000  0  6G23G 3G20G17G24G16
  -1219444.305 5   -950216.78223  24867403.355
 -14256650.683 9 -11109056.74428  21239894.826
 -14423561.604 8 -11239119.91226  21949556.041
 -12350512.928 7  -9623761.79927  21759525.089
  12055456.857 4   9393871.08622  25029594.072
 -11340252.455 7  -8836536.95425  22415908.695
 92  5  7  4 43  0.0010000  0  4G23G 3G20G16
  -1328372.788 5  -1035095.88422  24846670.908
 -14292309.608 9 -11136842.89328  21233111.421
 -14339557.760 7 -11173662.40527  21965540.964
 -11283367.144 7  -8792210.72926  22426732.402
 92  5  7  4 43 30.0010000  0  6G23G 3G20G17G24G16
  -1437239.244 5  -1119926.71522  24825952.247
 -14327758.516 9 -11164465.40628  21226361.589
 -14255154.142 7 -11107893.39227  21981605.059
    -57045.17817    -44436.45226  21737008.288
     33357.83515     26001.82422  25064228.496
 -11225983.225 7  -8747495.98726  22437649.642
 92  5  7  4 44  0.0010000  0  6G23G 3G20G17G24G16
  -1546033.681 4  -1204701.39423  24805255.783
 -14362989.777 9 -11191918.31928  21219660.339
 -14170347.056 7 -11041809.98026  21997739.879
   -115743.317 7    -90175.19726  21725839.207
    124340.056 5     96897.07522  25081546.912
 -11168104.081 7  -8702395.34626  22448663.120
 92  5  7  4 44 30.0010000  0  5G23G 3G20G17G16
  -1654758.763 4  -1289422.05825  24784560.208
 -14398003.121 9 -11219201.42828  21212999.242
 -14085139.545 7 -10975414.56226  22013955.058
   -174115.765 7   -135660.17526  21714729.211
 -11109751.077 7  -8656925.46825  22459768.020
 92  5  7  4 45  0.0010000  0  5G23G 3G20G17G16
  -1763430.170 4  -1374100.86922  24763882.922
 -14432800.808 9 -11246316.49929  21206377.129
 -13999537.650 7 -10908711.81426  22030247.279
   -232143.258 7   -180876.32927  21703686.347
 -11050917.638 7  -8611081.23326  22470964.970
 92  5  7  4 45 30.0010000  0  5G23G 3G20G17G16
  -1872058.730 3  -1458746.76024  24743212.825
 -14467384.993 9 -11273265.19629  21199795.483
 -13913547.836 7 -10841706.79326  22046609.650
   -289837.538 8   -225832.85227  21692707.944
 -10991593.834 7  -8564854.89326  22482254.563
 92  5  7  4 46  0.0010000  0  3G 3G20G16
 -14501749.652 9 -11300042.82329  21193255.211
 -13827167.713 7 -10774397.63326  22063047.267
 -10931776.029 7  -8518243.61925  22493634.077
 92  5  7  4 46 30.0010000  0  4G 3G20G17G16
 -14535891.081 9 -11326646.51428  21186759.018
 -13740397.387 7 -10706784.41526  22079556.848
    -32289.12818    -25146.35627  21670937.017
 -10871478.292 7  -8471258.35326  22505111.940
 92  5  7  4 47  0.0010000  0  4G 3G20G17G16
 -14569810.829 9 -11353077.45928  21180304.183
 -13653242.011 7 -10638871.15326  22096144.065
    -89022.826 8    -69354.35426  21660141.196
 -10810708.977 7  -8423905.65725  22516671.924
 92  5  7  4 47 30.0010000  0  4G 3G20G17G16
 -14603511.252 9 -11379337.50929  21173891.612
 -13565707.711 7 -10570662.64926  22112800.821
   -145466.723 8   -113336.57126  21649399.330
 -10749503.263 7  -8376212.88626  22528320.974
 92  5  7  4 48  0.0010000  0  5G23G 3G20G17G16
   -104803.36415    -81664.86224  24639958.316
 -14636988.925 9 -11405423.98528  21167521.322
 -13477795.462 7 -10502159.61625  22129528.949
   -201603.185 8   -157079.22026  21638715.330
 -10687880.271 7  -8328194.97425  22540049.457
 92  5  7  4 48 30.0010000  0  5G23G 3G20G17G16
   -213131.950 5   -166076.58523  24619342.192
 -14670243.989 9 -11431336.99928  21161191.814
 -13389508.839 7 -10433364.86526  22146332.619
   -257421.866 8   -200574.24827  21628096.384
 -10625840.007 7  -8279851.90525  22551852.872
 92  5  7  4 49  0.0010000  0  5G23G 3G20G17G16
   -321344.200 5   -250397.63422  24598755.438
 -14703274.470 9 -11457075.00628  21154907.555
 -13300850.137 7 -10364280.20826  22163203.140
   -312920.260 8   -243819.70827  21617532.301
 -10563367.623 7  -8231172.13025  22563744.741
 92  5  7  4 49 30.0010000  0  5G23G 3G20G17G16
   -429445.574 6   -334632.32424  24578183.969
 -14736077.235 9 -11482635.57428  21148662.889
 -13211820.225 7 -10294906.29126  22180144.108
   -368097.655 8   -286815.05126  21607033.256
 -10500442.237 7  -8182139.36525  22575715.765
 92  5  7  4 50  0.0010000  0  5G23G 3G20G17G16
   -537436.341 5   -418780.82422  24557634.401
 -14768651.678 9 -11508018.23328  21142467.678
 -13122422.617 7 -10225245.84626  22197154.633
   -422952.315 8   -329558.88626  21596593.296
 -10437040.841 7  -8132735.68525  22587778.804
 92  5  7  4 50 30.0010000  0  5G23G 3G20G17G16
   -645312.443 5   -502839.95324  24537104.010
 -14800990.925 9 -11533217.63128  21136312.341
 -13032654.533 7 -10155296.72626  22214237.698
   -477498.678 7   -372062.48726  21586215.373
 -10373143.075 7  -8082945.24026  22599942.583
 92  5  7  4 51  0.0010000  0  5G23G 3G20G17G16
   -753093.667 6   -586825.19123  24516595.206
 -14833101.303 9 -11558238.69128  21130200.768
 -12942525.762 7 -10085066.54426  22231387.039
   -531743.933 8   -414331.46227  21575893.517
 -10308749.039 7  -8032768.06926  22612193.002
 92  5  7  4 51 30.0010000  0  5G23G 3G20G17G16
   -860782.865 6   -670738.73022  24496102.909
 -14864977.819 9 -11583077.51729  21124134.759
 -12852035.721 7 -10014554.83425  22248608.903
   -585676.156 8   -456356.53427  21565630.119
 -10243858.050 7  -7982203.67325  22624540.550
 92  5  7  4 52  0.0010000  0  5G23G 3G20G17G16
   -968367.451 6   -754570.74823  24475629.773
 -14896618.384 9 -11607732.48728  21118112.531
 -12761185.700 7  -9943762.63526  22265896.433
   -639290.762 8   -498134.10426  21555430.885
 -10178484.053 7  -7931262.90226  22636984.649
 92  5  7  4 52 30.0010000  0  5G23G 3G20G17G16
  -1075857.537 6   -838329.17822  24455171.940
 -14928023.393 9 -11632203.90128  21112138.275
 -12669980.679 7  -9872693.82125  22283251.128
   -692577.910 8   -539656.50726  21545285.904
 -10112643.491 7  -7879958.58326  22649510.869
 92  5  7  4 53  0.0010000  0  5G23G 3G20G17G16
  -1183247.609 6   -922009.62023  24434738.381
 -14959192.097 9 -11656491.18429  21106205.672
 -12578424.178 7  -9801351.11326  22300674.158
   -745523.973 8   -580913.14726  21535212.278
 -10046351.212 7  -7828302.25925  22662124.933
 92  5  7  4 53 30.0010000  0  5G23G 3G20G17G16
  -1290539.788 6  -1005613.80123  24414321.015
 -14990123.636 9 -11680593.65928  21100321.354
 -12486519.183 7  -9729736.85624  22318164.948
   -798139.533 8   -621912.23326  21525198.906
  -9979634.388 7  -7776315.13724  22674823.841
 92  5  7  4 54  0.0010000  0  5G23G 3G20G17G16
  -1397746.185 6  -1089151.20121  24393917.435
 -15020818.345 9 -11704511.59629  21094479.597
 -12394269.906 7  -9657854.31626  22335717.808
   -850431.455 8   -662659.14426  21515247.902
  -9912500.809 7  -7724003.25926  22687596.510
 92  5  7  4 54 30.0010000  0  5G23G 3G20G17G16
  -1504868.020 5  -1172622.68822  24373538.443
 -15051274.654 9 -11728243.76828  21088684.013
 -12301678.910 7  -9585705.51725  22353336.909
   -902399.833 8   -703153.92126  21505358.655
  -9844948.683 7  -7671365.25425  22700452.801
 92  5  7  4 55  0.0010000  0  5G23G 3G20G17G16
  -1611895.624 5  -1256020.72021  24353169.048
 -15081492.412 9 -11751790.05529  21082934.289
 -12208750.045 7  -9513293.43525  22371019.563
   -954061.587 8   -743409.78827  21495528.458
  -9776977.697 7  -7618400.86126  22713388.543
 92  5  7  4 55 30.0010000  0  5G23G 3G20G17G16
  -1718826.561 5  -1339343.41622  24332824.834
 -15111462.016 9 -11775142.98229  21077230.737
 -12115478.041 7  -9440613.99426  22388769.070
  -1005415.266 8   -783425.59227  21485755.220
  -9708570.445 7  -7565096.53225  22726405.829
 92  5  7  4 56  0.0010000  0  5G23G 3G20G17G16
  -1825652.465 5  -1422584.32023  24312495.609
 -15141189.867 9 -11798307.52629  21071573.359
 -12021873.611 7  -9367675.50125  22406582.147
  -1056455.860 8   -823197.44027  21476045.238
  -9639718.657 7  -7511445.80126  22739508.866
 92  5  7  4 56 30.0010000  0  5G23G 3G20G17G16
  -1932351.778 5  -1505726.54022  24292191.862
 -15170669.323 9 -11821278.51629  21065962.730
 -11927934.221 7  -9294475.99925  22424459.075
  -1107174.540 8   -862718.44926  21466394.028
  -9570426.111 7  -7457451.62325  22752690.446
 92  5  7  4 57  0.0010000  0  5G23G 3G20G17G16
  -2038927.343 5  -1588772.30422  24271909.108
 -15199897.334 9 -11844053.57129  21060402.480
 -11833660.474 7  -9221015.96725  22442401.057
  -1157575.420 8   -901991.80428  21456800.667
  -9500696.787 7  -7403117.09325  22765962.855
 92  5  7  4 57 30.0010000  0  5G23G 3G20G17G16
  -2145388.448 5  -1671728.91424  24251649.126
 -15228875.790 9 -11866634.16728  21054888.403
 -11739058.875 7  -9147300.44225  22460404.185
  -1207651.627 8   -941012.17627  21447270.562
  -9430539.867 7  -7348449.36924  22779313.511
 92  5  7  4 58  0.0010000  0  5G23G 3G20G17G16
  -2251731.598 5  -1754593.59024  24231409.246
 -15257601.002 9 -11889017.42928  21049422.280
 -11644129.551 7  -9073329.54823  22478466.086
  -1257396.044 8   -979774.02927  21437807.919
  -9359967.188 7  -7293457.67626  22792741.506
 92  5  7  4 58 30.0010000  0  5G23G 3G20G17G16
  -2357970.473 5  -1837377.00824  24211195.141
 -15286073.393 9 -11911203.69429  21044005.645
 -11548877.214 7  -8999106.95824  22496592.133
  -1306828.737 8  -1018292.99628  21428397.122
  -9288984.823 7  -7238146.74725  22806247.468
 92  5  7  4 59  0.0010000  0  5G23G 3G20G17G16
  -2464120.567 5  -1920091.26024  24190995.415
 -15314293.831 9 -11933193.62828  21038634.258
 -11453307.228 7  -8924636.83824  22514778.750
  -1355959.455 8  -1056576.64127  21419050.192
  -9217591.123 7  -7182515.30225  22819831.957
 92  5  7  4 59 30.0010000  0  5G23G 3G20G17G16
  -2570172.996 5  -2002729.41425  24170817.885
 -15342264.418 9 -11954988.88429  21033311.139
 -11357425.923 7  -8849924.12324  22533023.807
  -1404780.837 8  -1094619.25127  21409759.033
  -9145793.606 7  -7126569.18825  22833500.101
 92  5  7  5  0  0.0010000  0  5G23G 3G20G17G16
  -2676110.127 5  -2085277.72825  24150659.550
 -15369975.468 9 -11976581.89328  21028037.491
 -11261227.539 7  -8774964.37724  22551330.046
  -1453281.831 8  -1132412.20128  21400530.520
  -9073578.874 7  -7070297.99824  22847240.193
 92  5  7  5  0 30.0010000  0  5G23G 3G20G17G16
  -2781928.801 6  -2167733.73825  24130520.394
 -15397429.748 9 -11997974.82129  21022814.816
 -11164718.970 7  -8699762.91925  22569693.835
  -1501465.701 8  -1169958.03327  21391358.965
  -9000946.581 7  -7013701.41224  22861060.312
 92  5  7  5  1  0.0010000  0  5G23G 3G20G17G16
  -2887611.359 6  -2250083.69525  24110412.717
 -15424628.785 9 -12019168.86629  21017635.888
 -11067906.413 7  -8624324.58925  22588118.472
  -1549313.863 8  -1207242.28827  21382254.872
  -8927905.517 7  -6956786.30325  22874958.695
 92  5  7  5  1 30.0010000  0  5G23G 3G20G17G16
  -2993131.629 6  -2332307.18726  24090329.611
 -15451567.128 9 -12040159.76329  21012511.841
 -10970788.496 7  -8548648.31025  22606597.974
  -1596809.331 8  -1244251.72227  21373216.130
  -8854448.683 7  -6899547.21725  22888938.920
 92  5  7  5  2  0.0010000  0  5G23G 3G20G17G16
  -3098479.475 6  -2414396.32125  24070279.799
 -15478242.711 9 -12060945.91829  21007434.857
 -10873367.323 7  -8472735.72626  22625136.544
  -1643954.968 8  -1280988.53727  21364245.741
  -8780572.006 7  -6841981.00025  22902998.892
 92  5  7  5  2 30.0010000  0  5G23G 3G20G17G16
  -3203648.124 6  -2496345.82125  24050268.640
 -15504652.255 9 -12081524.76229  21002407.345
 -10775643.833 7  -8396587.56626  22643733.870
  -1690759.860 8  -1317459.85128  21355338.609
  -8706279.271 7  -6784090.56526  22917134.406
 92  5  7  5  3  0.0010000  0  5G23G 3G20G17G16
  -3308629.663 6  -2578149.53225  24030292.573
 -15530796.927 9 -12101897.19929  20997432.584
 -10677623.532 7  -8320208.14626  22662383.057
  -1737231.400 8  -1353671.40827  21346495.327
  -8631575.762 7  -6725880.03926  22931349.650
 92  5  7  5  3 30.0010000  0  5G23G 3G20G17G16
  -3413436.473 6  -2659817.08825  24010344.688
 -15556674.002 9 -12122061.13529  20992511.186
 -10579308.277 7  -8243598.88526  22681094.908
  -1783383.766 8  -1389634.26627  21337712.005
  -8556459.692 7  -6667348.05525  22945646.159
 92  5  7  5  4  0.0010000  0  5G23G 3G20G17G16
  -3518082.526 6  -2741359.37724  23990432.175
 -15582285.737 9 -12142018.30529  20987637.166
 -10480704.174 7  -8166764.56226  22699859.511
  -1829237.668 8  -1425364.55627  21328984.749
  -8480939.323 7  -6608501.03326  22960013.412
 92  5  7  5  4 30.0010000  0  5G23G 3G20G17G16
  -3622580.492 6  -2822786.29325  23970548.437
 -15607627.863 9 -12161765.39529  20982816.195
 -10381811.343 7  -8089705.23026  22718677.791
  -1874794.991 8  -1460863.73127  21320318.954
  -8405020.834 7  -6549343.76425  22974461.006
 92  5  7  5  5  0.0010000  0  5G23G 3G20G17G16
  -3726941.859 6  -2904106.76524  23950685.691
 -15632704.050 9 -12181305.26629  20978042.304
 -10282638.163 7  -8012427.45825  22737548.526
  -1920049.288 8  -1496126.78228  21311705.614
  -8328719.873 7  -6489888.47925  22988982.955
 92  5  7  5  5 30.0010000  0  5G23G 3G20G17G16
  -3831174.896 6  -2985327.24122  23930853.222
 -15657509.597 9 -12200634.24629  20973319.978
 -10183183.918 7  -7934930.65925  22756473.514
  -1964993.948 8  -1531148.56727  21303152.529
  -8252041.427 7  -6430139.06326  23003572.052
 92  5  7  5  6  0.0010000  0  5G23G 3G20G17G16
  -3935264.779 5  -3066436.16224  23911044.136
 -15682039.995 9 -12219748.82529  20968652.795
 -10083448.489 7  -7857214.77526  22775452.179
  -2009614.304 8  -1565917.63928  21294663.609
  -8174990.359 6  -6370099.28226  23018235.505
 92  5  7  5  6 30.0010000  0  5G23G 3G20G17G16
  -4039209.377 5  -3147431.88423  23891264.419
 -15706292.286 9 -12238646.69129  20964039.603
  -9983432.931 7  -7779280.61224  22794486.597
  -2053897.641 8  -1600424.08527  21286235.241
  -8097568.251 7  -6309770.36825  23032967.014
 92  5  7  5  7  0.0010000  0  5G23G 3G20G17G16
  -4143004.783 5  -3228311.34023  23871512.588
 -15730272.111 9 -12257332.24029  20959474.050
  -9883147.714 7  -7701136.31425  22813569.894
  -2097852.295 8  -1634674.44528  21277872.835
  -8019783.744 7  -6249159.07425  23047770.156
 92  5  7  5  7 30.0010000  0  5G23G 3G20G17G16
  -4246636.755 5  -3309063.44124  23851796.738
 -15753975.953 9 -12275802.74629  20954967.270
  -9782593.560 7  -7622782.43525  22832705.052
  -2141477.393 8  -1668668.01428  21269569.480
  -7941627.047 7  -6188257.76324  23062641.371
 92  5  7  5  8  0.0010000  0  5G23G 3G20G17G16
  -4350096.995 5  -3389681.71323  23832106.977
 -15777401.034 9 -12294056.03529  20950505.459
  -9681771.916 7  -7544220.13024  22851889.664
  -2184768.722 8  -1702401.48227  21261329.383
  -7863092.265 7  -6127061.83625  23077588.721
 92  5  7  5  8 30.0010000  0  5G23G 3G20G17G16
  -4453397.040 5  -3470175.16524  23812450.179
 -15800548.570 9 -12312093.04929  20946101.809
  -9580688.790 7  -7465454.10023  22871127.343
  -2227744.348 8  -1735888.95727  21253151.356
  -7784186.442 7  -6065576.78825  23092604.128
 92  5  7  5  9  0.0010000  0  5G23G 3G20G17G16
  -4556528.770 5  -3550537.46824  23792819.766
 -15823419.501 9 -12329914.53429  20941750.021
  -9479349.104 6  -7386488.12524  22890409.397
  -2270406.955 8  -1769132.51627  21245035.364
  -7704908.305 7  -6003801.63724  23107687.276
 92  5  7  5  9 30.0010000  0  5G23G 3G20G17G16
  -4659492.455 6  -3630768.82325  23773227.430
 -15846009.818 9 -12347517.36029  20937450.410
  -9377753.072 6  -7307322.41223  22909742.720
  -2312753.627 8  -1802129.89827  21236977.551
  -7625244.964 7  -5941726.32425  23122849.281
 92  5  7  5 10  0.0010000  0  5G23G 3G20G17G16
  -4762300.461 6  -3710878.85225  23753665.073
 -15868317.773 9 -12364900.16728  20933203.847
  -9275903.212 6  -7227958.91223  22929126.701
  -2354795.639 8  -1834889.89128  21228978.180
  -7545203.323 6  -5879356.23324  23138079.936
 92  5  7  5 10 30.0010000  0  5G23G 3G20G17G16
  -4864951.549 6  -3790866.62125  23734131.508
 -15890344.470 9 -12382063.81229  20929014.242
  -9173805.504 6  -7148402.29422  22948552.650
  -2396538.028 8  -1867416.39828  21221033.392
  -7464792.791 6  -5816698.68524  23153379.851
 92  5  7  5 11  0.0010000  0  5G23G 3G20G17G16
  -4967425.197 6  -3870716.12925  23714630.907
 -15912084.334 9 -12399003.94529  20924877.109
  -9071458.652 6  -7068651.52922  22968028.070
  -2437969.539 8  -1899700.67028  21213146.452
  -7384008.350 6  -5753749.77825  23168755.011
 92  5  7  5 11 30.0010000  0  5G23G 3G20G17G16
  -5069718.819 6  -3950425.36823  23695168.069
 -15933532.484 9 -12415716.74529  20920796.341
  -8968862.293 6  -6988706.30622  22987551.740
  -2479083.133 8  -1931737.20327  21205325.457
  -7302859.572 6  -5690516.98024  23184195.208
 92  5  7  5 12  0.0010000  0  5G23G 3G20G17G16
  -5171821.312 6  -4029985.66725  23675737.321
 -15954689.011 9 -12432202.33629  20916768.621
  -8866020.341 6  -6908569.76322  23007122.805
  -2519873.429 8  -1963521.81528  21197561.733
  -7221369.138 6  -5627017.94024  23199702.274
 92  5  7  5 12 30.0010000  0  5G23G 3G20G17G16
  -5273713.038 6  -4109381.76426  23656346.744
 -15975552.512 9 -12448459.58428  20912800.267
  -8762936.360 5  -6828244.61822  23026741.823
  -2560329.915 8  -1995046.32427  21189865.454
  -7139537.852 7  -5563253.32625  23215275.005
 92  5  7  5 13  0.0010000  0  5G23G 3G20G17G16
  -5375392.828 6  -4188612.69325  23636998.448
 -15996120.879 9 -12464486.86529  20908885.572
  -8659612.483 5  -6747732.53323  23046402.216
  -2600444.971 8  -2026304.78128  21182230.041
  -7057360.135 6  -5499218.78725  23230912.477
 92  5  7  5 13 30.0010000  0  5G23G 3G20G17G16
  -5476869.523 6  -4267685.38625  23617687.322
 -16016391.557 9 -12480282.18129  20905026.649
  -8556050.996 5  -6667035.34922  23066109.968
  -2640210.372 8  -2057290.78728  21174664.778
  -6974838.914 6  -5434916.53723  23246616.504
 92  5  7  5 14  0.0010000  0  5G23G 3G20G17G16
  -5578143.122 6  -4346599.80524  23598418.163
 -16036368.070 9 -12495848.27329  20901226.777
  -8452259.289 5  -6586158.72724  23085859.688
  -2679642.182 8  -2088016.85128  21167159.789
  -6891975.118 6  -5370347.32923  23262381.694
 92  5  7  5 14 30.0010000  0  5G23G 3G20G17G16
  -5679215.646 6  -4425357.54724  23579182.876
 -16056044.756 9 -12511180.73529  20897484.473
  -8348236.650 5  -6505102.11322  23105650.486
  -2718739.470 8  -2118482.23728  21159716.538
  -6808750.725 6  -5305497.18324  23278226.020
 92  5  7  5 15  0.0010000  0  5G23G 3G20G17G16
  -5780094.921 6  -4503964.72625  23559984.757
 -16075423.798 9 -12526281.26828  20893792.233
  -8243988.887 5  -6423870.12123  23125491.663
  -2757505.499 8  -2148689.50229  21152344.344
  -6725176.574 6  -5240374.46824  23294124.914
 92  5  7  5 15 30.0010000  0  5G23G 3G20G17G16
  -5880784.931 6  -4582424.41723  23540822.934
 -16094502.895 9 -12541148.06429  20890166.235
  -8139518.323 5  -6342464.55922  23145375.698
  -2795958.428 8  -2178652.78429  21145023.699
  -6641266.789 6  -5174990.22224  23310098.162
 92  5  7  5 16  0.0010000  0  5G23G 3G20G17G16
  -5981286.465 6  -4660737.25223  23521700.968
 -16113281.972 9 -12555781.09128  20886589.412
  -8034829.663 5  -6260888.99523  23165293.900
  -2834105.956 8  -2208378.11628  21137766.328
  -6557021.117 6  -5109344.24425  23326123.552
 92  5  7  5 16 30.0010000  0  5G23G 3G20G17G16
  -6081601.823 6  -4738904.97725  23502614.671
 -16131756.775 9 -12570177.02429  20883075.845
  -7929923.115 5  -6179143.62322  23185253.790
  -2871932.757 8  -2237853.51928  21130567.712
  -6472441.693 6  -5043438.21424  23342216.719
 92  5  7  5 17  0.0010000  0  5G23G 3G20G17G16
  -6181732.291 5  -4816928.65125  23483555.979
 -16149927.540 9 -12584336.04129  20879615.938
  -7824803.144 5  -6097231.95922  23205258.929
  -2909444.278 8  -2267083.24628  21123426.960
  -6387549.083 7  -4977288.15324  23358376.737
 92  5  7  5 17 30.0010000  0  5G23G 3G20G17G16
  -6281682.234 5  -4894811.65823  23464533.235
 -16167795.510 9 -12598259.11428  20876218.102
  -7719475.876 5  -6015158.80323  23225306.961
  -2946650.650 8  -2296075.21128  21116349.152
  -6302335.667 7  -4910888.11024  23374588.915
 92  5  7  5 18  0.0010000  0  5G23G 3G20G17G16
  -6381426.400 5  -4972534.32224  23445551.289
 -16185353.126 9 -12611940.35029  20872876.315
  -7613938.118 5  -5932921.66521  23245385.862
  -2983527.878 8  -2324810.69428  21109332.821
  -6216792.902 6  -4844231.43324  23390865.832
 92  5  7  5 18 30.0010000  0  5G23G 3G20G17G16
  -6480961.198 5  -5050093.84823  23426614.889
 -16202604.172 9 -12625382.70929  20869590.876
  -7508197.567 5  -5850526.43622  23265509.122
  -3020074.997 8  -2353288.95428  21102377.635
  -6130936.214 6  -4777330.11725  23407200.928
 92  5  7  5 19  0.0010000  0  5G23G 3G20G17G16
  -6580275.565 5  -5127481.60423  23407717.472
 -16219545.588 9 -12638583.78829  20866368.414
  -7402255.363 5  -5767974.07921  23285668.974
  -3056297.732 8  -2381514.43928  21095483.002
  -6044763.090 6  -4710182.24723  23423604.081
 92  5  7  5 19 30.0010000  0  5G23G 3G20G17G16
  -6679361.734 5  -5204691.56922  23388860.837
 -16236176.471 9 -12651542.90929  20863205.003
  -7296115.799 5  -5685267.95023  23305866.886
  -3092194.094 8  -2409485.60428  21088653.737
  -5958272.166 6  -4642786.72423  23440062.376
 92  5  7  5 20  0.0010000  0  5G23G 3G20G17G16
  -6778210.517 6  -5281716.50922  23370045.262
 -16252494.625 9 -12664258.33429  20860097.957
  -7189780.959 5  -5602409.65521  23326104.671
  -3127759.636 8  -2437198.98829  21081883.820
  -5871481.188 6  -4575157.40024  23456580.647
 92  5  7  5 20 30.0010000  0  5G23G 3G20G17G16
  -6876831.245 6  -5358563.80423  23351284.236
 -16268495.507 9 -12676726.53229  20857053.261
  -7083250.661 5  -5519399.07023  23346372.139
  -3163005.036 8  -2464662.92429  21075178.958
  -5784384.482 6  -4507289.87023  23473149.873
 92  5  7  5 21  0.0010000  0  5G23G 3G20G17G16
  -6975220.105 6  -5435230.41122  23332556.209
 -16284179.992 9 -12688948.20229  20854069.727
  -6976530.743 5  -5436240.71522  23366682.779
  -3197949.969 8  -2491892.72229  21068525.661
  -5696976.731 6  -4439179.92923  23489787.452
 92  5  7  5 21 30.0010000  0  5G23G 3G20G17G16
  -7073377.846 6  -5511716.91623  23313880.637
 -16299544.189 9 -12700920.28728  20851143.762
  -6869621.303 5  -5352934.72821  23387025.196
  -3232586.882 8  -2518882.50929  21061938.623
  -5609258.993 6  -4370828.44524  23506477.800
 92  5  7  5 22  0.0010000  0  5G23G 3G20G17G16
  -7171307.706 6  -5588025.85922  23295245.828
 -16314588.229 9 -12712642.89228  20848283.741
  -6762526.606 5  -5269484.34122  23407405.689
  -3266910.438 8  -2545628.11629  21055403.150
  -5521228.883 6  -4302233.57823  23523228.403
 92  5  7  5 22 30.0010000  0  5G23G 3G20G17G16
  -7269009.345 6  -5664157.00024  23276652.412
 -16329311.004 9 -12724115.16828  20845481.882
  -6655250.428 5  -5185892.49822  23427819.460
  -3300915.536 8  -2572125.57429  21048935.733
  -5432871.509 6  -4233383.68825  23540042.875
 92  5  7  5 23  0.0010000  0  5G23G 3G20G17G16
  -7366471.290 6  -5740101.34623  23258107.839
 -16343712.467 9 -12735337.07029  20842742.965
  -6547797.233 5  -5102162.77322  23448270.103
  -3334596.091 8  -2598370.14329  21042522.272
  -5344200.783 6  -4164289.62923  23556908.894
 92  5  7  5 23 30.0010000  0  5G23G 3G20G17G16
  -7463693.117 6  -5815858.57424  23239605.251
 -16357783.551 9 -12746301.53029  20840064.322
  -6440162.238 5  -5018291.34421  23468744.723
  -3367929.778 8  -2624344.42029  21036184.649
  -5255221.600 6  -4094955.21124  23573849.862
 92  5  7  5 24  0.0010000  0  5G23G 3G20G17G16
  -7560666.642 6  -5891422.34524  23221151.523
 -16371529.383 9 -12757012.54628  20837447.435
  -6332355.025 5  -4934285.78922  23489267.313
  -3400928.833 8  -2650057.96029  21029900.704
  -5165940.895 7  -4025385.85623  23590840.302
 92  5  7  5 24 30.0010000  0  5G23G 3G20G17G16
  -7657393.734 6  -5966794.07924  23202747.878
 -16384948.159 9 -12767468.73029  20834892.304
  -6224378.166 5  -4850147.94022  23509814.194
  -3433599.590 9  -2675515.66729  21023686.908
  -5076370.258 6  -3955590.55023  23607884.104
 92  5  7  5 25  0.0010000  0  5G23G 3G20G17G16
  -7753874.058 6  -6041973.53025  23184387.090
 -16398036.193 9 -12777667.19029  20832404.619
  -6116232.535 5  -4765878.6882   23530391.055
  -3465943.420 9  -2700718.63029  21017530.070
  -4986533.403 6  -3885587.84423  23624980.658
 92  5  7  5 25 30.0010000  0  5G23G 3G20G17G16
  -7850117.107 6  -6116968.09425  23166070.958
 -16410792.240 9 -12787606.94729  20829974.205
  -6007921.323 5  -4681480.4062   23550999.989
  -3497962.158 9  -2725668.27229  21011437.379
  -4896427.323 6  -3815375.32123  23642127.294
 92  5  7  5 26  0.0010000  0  5G23G 3G20G17G16
  -7946126.765 6  -6191780.79725  23147801.906
 -16423216.707 9 -12797288.33629  20827614.848
  -5899449.574 5  -4596957.01021  23571641.886
  -3529658.411 9  -2750366.60429  21005405.868
  -4806042.997 6  -3744946.00923  23659322.495
 92  5  7  5 26 30.0010000  0  5G23G 3G20G17G16
  -8041915.335 6  -6266421.21225  23129574.229
 -16435308.003 9 -12806710.10129  20825307.947
  -5790820.121 5  -4512310.66423  23592315.578
  -3561038.638 9  -2774818.69629  20999436.689
  -4715387.476 6  -3674305.36022  23676575.542
 92  5  7  5 27  0.0010000  0  5G23G 3G20G17G16
  -8137470.055 6  -6340879.41125  23111391.224
 -16447059.557 9 -12815867.13229  20823076.884
  -5682030.670 5  -4427539.71022  23613018.045
  -3592102.505 9  -2799024.28129  20993524.189
  -4624440.189 6  -3603437.32624  23693877.468
 92  5  7  5 27 30.0010000  0  5G23G 3G20G17G16
  -8232787.770 6  -6415152.93125  23093251.967
 -16458472.270 9 -12824760.13229  20820903.389
  -5573086.660 5  -4342648.32922  23633745.693
  -3622852.328 9  -2822985.15229  20987673.131
  -4533190.843 6  -3532333.97323  23711248.636
 92  5  7  5 28  0.0010000  0  5G23G 3G20G17G16
  -8327863.588 6  -6489237.96925  23075161.606
 -16469547.970 9 -12833390.53529  20818795.246
  -5463994.159 5  -4257641.19723  23654510.231
  -3653297.124 9  -2846708.35129  20981878.751
  -4441639.915 6  -3460995.59724  23728668.386
 92  5  7  5 28 30.0010000  0  5G23G 3G20G17G16
  -8422686.534 6  -6563125.95323  23057116.196
 -16480282.660 9 -12841755.22029  20816750.063
  -5354753.560 5  -4172518.69221  23675297.541
  -3683431.751 9  -2870189.83629  20976144.017
  -4349803.096 6  -3389434.46624  23746137.886
 92  5  7  5 29  0.0010000  0  5G23G 3G20G17G16
  -8517243.471 6  -6636806.66025  23039123.852
 -16490676.304 9 -12849854.14628  20814772.936
  -5245369.813 5  -4087284.66622  23696113.923
  -3713240.024 9  -2893417.04829  20970473.446
  -4257683.165 6  -3317652.70624  23763671.551
 92  5  7  5 29 30.0010000  0  5G23G 3G20G17G16
  -8611527.357 6  -6710274.59725  23021180.369
 -16500724.670 9 -12857684.02728  20812862.661
  -5135842.697 5  -4001938.91723  23716950.094
  -3742712.838 9  -2916382.84029  20964862.521
  -4165288.443 6  -3245656.85425  23781255.577
 92  5  7  5 30  0.0010000  0  5G23G 3G20G17G16
  -8705548.198 6  -6783537.54425  23003289.359
 -16510431.514 9 -12865247.77428  20811012.641
  -5026180.189 5  -3916487.65023  23737824.044
  -3771860.974 9  -2939095.63829  20959318.168
  -4072638.015 6  -3173461.73624  23798883.682
 92  5  7  5 30 30.0010000  0  5G23G 3G20G17G16
  -8799295.919 6  -6856587.68025  22985448.413
 -16519794.105 9 -12872543.28329  20809233.068
  -4916384.233 5  -3830932.35123  23758712.391
  -3800673.138 9  -2961546.63929  20953834.663
  -3979749.816 6  -3101081.30922  23816559.444
 92  5  7  5 31  0.0010000  0  5G23G 3G20G17G16
  -8892757.595 6  -6929414.94324  22967666.223
 -16528804.491 9 -12879564.35229  20807521.254
  -4806451.489 5  -3745270.53623  23779627.402
  -3829159.985 9  -2983744.13929  20948411.118
  -3886613.361 6  -3028507.49024  23834286.474
 92  5  7  5 31 30.0010000  0  5G23G 3G20G17G16
  -8985954.928 6  -7002036.20325  22949929.594
 -16537468.628 9 -12886315.60929  20805869.102
  -4696392.435 5  -3659510.27322  23800574.207
  -3857343.944 9  -3005705.62929  20943049.923
  -3793243.521 6  -2955751.81023  23852062.959
 92  5  7  5 32  0.0010000  0  5G23G 3G20G17G16
  -9078882.100 6  -7074446.95326  22932240.047
 -16545780.244 9 -12892792.19128  20804290.084
  -4586204.852 5  -3573649.82221  23821540.190
  -3885211.121 8  -3027420.27029  20937746.906
  -3699637.648 6  -2882812.16223  23869863.437
 92  5  7  5 32 30.0010000  0  5G23G 3G20G17G16
  -9171507.320 6  -7146622.41726  22914620.039
 -16553730.323 9 -12898987.04328  20802778.232
  -4475884.013 6  -3487685.50122  23842534.948
  -3912745.662 9  -3048875.71629  20932506.519
  -3605779.429 6  -2809675.86425  23887721.781
 92  5  7  5 33  0.0010000  0  5G23G 3G20G17G16
  -9263834.405 6  -7218565.55625  22897052.503
 -16561311.458 9 -12904894.40528  20801331.435
  -4365427.141 6  -3401615.26923  23863558.796
  -3939945.581 9  -3070070.41629  20927330.610
  -3511646.244 6  -2736325.34124  23905638.879
 92  5  7  5 33 30.0010000  0  5G23G 3G20G17G16
  -9355861.625 6  -7290275.02525  22879541.332
 -16568521.303 9 -12910512.45129  20799958.382
  -4254836.330 5  -3315440.65822  23884601.542
  -3966793.406 8  -3090990.76629  20922223.646
  -3417235.769 6  -2662758.76522  23923606.339
 92  5  7  5 34  0.0010000  0  5G23G 3G20G17G16
  -9447578.865 6  -7361742.94425  22862084.413
 -16575357.431 9 -12915839.29128  20798660.592
  -4144113.727 6  -3229163.36622  23905673.640
  -3993289.966 9  -3111637.37729  20917179.940
  -3322546.990 6  -2588975.27323  23941625.364
 92  5  7  5 34 30.0010000  0  5G23G 3G20G17G16
  -9538993.555 6  -7432975.12325  22844687.750
 -16581820.832 9 -12920875.69929  20797433.841
  -4033264.424 6  -3142787.27424  23926768.249
  -4019454.166 9  -3132025.02829  20912200.992
  -3227581.390 6  -2514976.12322  23959698.642
 92  5  7  5 35  0.0010000  0  5G23G 3G20G17G16
  -9630130.308 6  -7503990.73325  22827346.561
 -16587914.507 9 -12925624.00729  20796270.645
  -3922295.693 6  -3056318.19222  23947882.628
  -4045289.359 9  -3152156.30629  20907284.393
  -3132346.989 6  -2440767.52022  23977820.204
 92  5  7  5 35 30.0010000  0  5G23G 3G20G17G16
  -9720991.360 6  -7574791.49225  22810055.123
 -16593641.578 9 -12930086.65628  20795180.303
  -3811215.325 6  -2969762.09524  23969022.799
  -4070806.903 9  -3172040.07429  20902429.550
  -3036859.885 6  -2366361.95622  23995988.830
 92  5  7  5 36  0.0010000  0  5G23G 3G20G17G16
  -9811577.989 6  -7645378.43225  22792820.363
 -16599002.057 9 -12934263.65628  20794157.702
  -3700027.450 6  -2883122.24923  23990181.240
  -4096011.878 9  -3191680.28329  20897633.166
  -2941124.474 6  -2291762.95823  24014211.708
 92  5  7  5 36 30.0010000  0  5G23G 3G20G17G16
  -9901886.415 6  -7715748.57425  22775630.555
 -16603999.322 9 -12938157.61428  20793209.161
  -3588739.986 6  -2796404.77123  24011357.080
  -4120894.745 9  -3211069.49929  20892900.039
  -2845147.081 6  -2216975.40622  24032475.071
 92  5  7  5 37  0.0010000  0  5G23G 3G20G17G16
  -9991907.975 7  -7785895.18425  22758500.427
 -16608628.310 9 -12941764.61528  20792327.768
  -3477352.415 6  -2709609.31423  24032550.613
  -4145452.613 9  -3230205.49529  20888226.574
  -2748936.182 6  -2142005.85922  24050783.386
 92  5  7  5 37 30.0010000  0  5G23G 3G20G17G16
 -10081635.469 7  -7855812.67325  22741426.942
 -16612891.980 9 -12945086.94729  20791516.525
  -3365871.903 6  -2622741.48323  24053766.920
  -4169694.309 9  -3249095.11329  20883612.474
  -2652513.711 6  -2066871.44724  24069131.592
 92  5  7  5 38  0.0010000  0  5G23G 3G20G17G16
 -10171054.504 7  -7925489.78526  22724411.915
 -16616789.674 9 -12948124.10729  20790774.245
  -3254302.535 6  -2535804.34923  24075002.421
  -4193616.999 9  -3267736.16429  20879060.131
  -2555889.225 6  -1991579.68724  24087515.152
 92  5  7  5 38 30.0010000  0  5G23G 3G20G17G16
 -10260173.813 7  -7994933.35525  22707452.362
 -16620320.238 9 -12950875.19428  20790103.616
  -3142646.655 6  -2448799.85522  24096243.315
  -4217231.845 9  -3286137.32229  20874566.840
  -2459063.842 6  -1916131.30823  24105941.012
 92  5  7  5 39  0.0010000  0  5G23G 3G20G17G16
 -10349001.291 7  -8064149.51625  22690550.064
 -16623487.588 9 -12953343.25629  20789498.931
  -3030912.895 5  -2361734.66424  24117512.687
  -4240549.172 9  -3304306.66329  20870129.913
  -2362053.113 6  -1840538.53523  24124403.726
 92  5  7  5 39 30.0010000  0  5G23G 3G20G17G16
 -10437526.198 6  -8133129.90625  22673705.927
 -16626282.409 9 -12955521.03028  20788969.788
  -2919096.556 5  -2274605.09423  24138790.157
  -4263548.150 9  -3322227.94229  20865752.037
  -2264842.142 5  -1764789.76624  24142895.530
 92  5  7  5 40  0.0010000  0  5G23G 3G20G17G16
 -10525756.938 6  -8201881.08024  22656916.340
 -16628700.616 9 -12957405.35128  20788507.811
  -2807197.234 5  -2187410.87722  24160080.522
  -4286228.473 9  -3339900.91629  20861434.434
  -2167408.600 5  -1688867.53623  24161440.679
 92  5  7  5 40 30.0010000  0  5G23G 3G20G17G16
 -10613705.035 6  -8270412.01425  22640178.632
 -16630740.609 9 -12958994.95529  20788121.376
  -2695218.061 5  -2100154.45122  24181386.766
  -4308583.585 9  -3357320.46029  20857181.572
  -2069740.736 5  -1612762.67223  24180023.922
 92  5  7  5 41  0.0010000  0  5G23G 3G20G17G16
 -10701359.187 6  -8338713.89926  22623497.585
 -16632400.701 9 -12960288.52228  20787804.794
  -2583161.685 4  -2012837.83422  24202711.910
  -4330606.773 9  -3374481.37829  20852991.077
  -1971829.637 6  -1536468.35223  24198662.307
 92  5  7  5 41 30.0010000  0  5G23G 3G20G17G16
 -10788725.460 7  -8406791.45425  22606874.979
 -16633681.870 9 -12961286.83228  20787561.677
  -2471033.073 4  -1925464.95822  24224046.947
  -4352310.772 9  -3391393.55729  20848862.634
  -1873671.680 6  -1459981.66524  24217336.082
 92  5  7  5 42  0.0010000  0  5G23G 3G20G17G16
 -10875795.655 7  -8474638.32826  22590303.362
 -16634584.064 9 -12961989.83428  20787391.695
  -2358836.797 5  -1838039.38422  24245399.051
  -4373710.480 9  -3408068.65129  20844788.148
  -1775273.163 6  -1383307.50423  24236067.128
 92  5  7  5 42 30.0010000  0  5G23G 3G20G17G16
 -10962551.064 7  -8542239.91126  22573794.095
 -16635108.780 9 -12962398.70629  20787289.750
  -2246578.443 5  -1750565.42022  24266763.475
  -4394813.418 9  -3424512.48829  20840774.232
  -1676664.759 6  -1306469.81023  24254827.840
 92  5  7  5 43  0.0010000  0  5G23G 3G20G17G16
 -11048975.319 7  -8609583.44226  22557348.975
 -16635255.272 9 -12962512.88328  20787258.288
  -2134261.599 5  -1663045.86122  24288134.180
  -4415622.018 8  -3440726.96829  20836811.270
  -1577876.083 6  -1229491.65224  24273626.610
 92  5  7  5 43 30.0010000  0  5G23G 3G20G17G16
 -11135058.409 7  -8676661.14125  22540968.019
 -16635020.800 9 -12962330.14128  20787311.040
  -2021888.274 5  -1575482.28122  24309516.578
  -4436129.066 9  -3456706.46729  20832910.378
  -1478927.934 6  -1152389.22224  24292451.487
 92  5  7  5 44  0.0010000  0  5G23G 3G20G17G16
 -11220792.007 7  -8743466.51926  22524651.210
 -16634401.345 9 -12961847.43429  20787422.564
  -1909458.052 5  -1487874.34022  24330910.353
  -4456321.012 9  -3472440.43629  20829069.132
  -1379823.141 6  -1075164.73023  24311318.627
 92  5  7  5 44 30.0010000  0  5G23G 3G20G17G16
 -11306183.206 7  -8810005.07326  22508403.662
 -16633393.089 9 -12961061.77329  20787618.635
  -1796971.296 6  -1400222.39522  24352317.338
  -4476187.331 9  -3487920.66329  20825286.047
  -1280565.779 6   -997821.34823  24330201.351
 92  5  7  5 45  0.0010000  0  5G23G 3G20G17G16
 -11391250.554 7  -8876291.28926  22492216.962
 -16631999.096 9 -12959975.53927  20787884.245
  -1684435.755 6  -1312532.42222  24373736.014
  -4495723.412 8  -3503143.56529  20821569.220
  -1181136.537 6   -920344.08023  24349118.852
 92  5  7  5 45 30.0010000  0  5G23G 3G20G17G16
 -11476010.795 7  -8942338.19426  22476088.720
 -16630217.903 9 -12958587.58728  20788221.819
  -1571853.863 6  -1224806.32822  24395159.489
  -4514935.999 8  -3518114.38829  20817913.853
  -1081520.404 6   -842721.13123  24368076.525
 92  5  7  5 46  0.0010000  0  5G23G 3G20G17G16
 -11560466.843 7  -9008148.06026  22460016.546
 -16628045.438 9 -12956894.75328  20788633.731
  -1459225.669 6  -1137044.07121  24416593.749
  -4533831.523 8  -3532838.16029  20814318.742
   -981709.896 5   -764946.70423  24387057.284
 92  5  7  5 46 30.0010000  0  5G23G 3G20G17G16
 -11644620.549 7  -9073722.35826  22444003.441
 -16625491.688 9 -12954904.82229  20789122.390
  -1346565.674 6  -1049257.13522  24438028.305
  -4552420.745 9  -3547323.25729  20810781.495
   -881715.738 5   -687029.21023  24406101.003
 92  5  7  5 47  0.0010000  0  5G23G 3G20G17G16
 -11728466.667 7  -9139056.96926  22428046.090
 -16622556.909 9 -12952617.98828  20789678.511
  -1233878.266 6   -961448.85322  24459473.366
  -4570703.341 9  -3561569.43229  20807301.800
   -781540.987 6   -608971.01622  24425167.215
 92  5  7  5 47 30.0010000  0  5G23G 3G20G17G16
 -11812001.146 7  -9204148.73126  22412149.290
 -16619241.067 9 -12950034.21729  20790306.562
  -1121167.289 6   -873622.18923  24480921.411
  -4588685.217 8  -3575581.27229  20803879.672
   -681199.330 6   -530782.77824  24444257.091
 92  5  7  5 48  0.0010000  0  5G23G 3G20G17G16
 -11895212.847 7  -9268988.98526  22396315.748
 -16615541.874 9 -12947151.73328  20791014.674
  -1008435.054 6   -785778.92822  24502378.164
  -4606360.567 8  -3589354.25229  20800517.504
   -580682.694 5   -452458.16522  24463379.650
 92  5  7  5 48 30.0010000  0  5G23G 3G20G17G16
 -11978095.406 7  -9333572.76826  22380542.775
 -16611458.830 9 -12943970.12728  20791792.343
   -895685.180 6   -697921.96922  24523830.101
  -4623729.121 9  -3602888.18329  20797211.997
   -479990.606 5   -373996.79521  24482539.692
 92  5  7  5 49  0.0010000  0  5G23G 3G20G17G16
 -12060651.897 7  -9397902.47326  22364830.652
 -16606997.971 9 -12940494.14428  20792636.864
   -782927.413 6   -610058.81822  24545283.556
  -4640804.430 9  -3616193.61129  20793960.445
   -379136.163 6   -295408.92523  24501736.293
 92  5  7  5 49 30.0010000  0  5G23G 3G20G17G16
 -12142877.579 7  -9461974.39826  22349187.474
 -16602161.706 9 -12936725.62728  20793557.520
   -670168.180 6   -522194.55924  24566742.402
  -4657601.453 9  -3629282.18229  20790765.258
   -278124.565 6   -216698.64524  24520967.096
 92  5  7  5 50  0.0010000  0  5G23G 3G20G17G16
 -12224765.039 7  -9525782.77725  22333602.475
 -16596945.027 9 -12932660.67928  20794552.531
   -557407.209 6   -434328.93323  24588200.342
  -4674126.131 8  -3642158.54729  20787621.322
   -176963.586 6   -137871.90724  24540209.259
 92  5  7  5 50 30.0010000  0  5G23G 3G20G17G16
 -12306316.146 7  -9589329.04925  22318084.310
 -16591339.480 8 -12928292.70628  20795618.286
   -444639.915 5   -346458.39624  24609660.690
  -4690372.725 9  -3654818.21929  20784531.063
    -75666.262 6    -58938.92725  24559485.921
 92  5  7  5 51  0.0010000  0  5G23G 3G20G17G16
 -12387550.524 7  -9652628.53725  22302624.011
 -16585347.518 9 -12923623.65728  20796761.397
   -331872.900 5   -258588.07223  24631119.833
  -4706345.618 9  -3667264.62029  20781489.368
     25753.703 5     20089.57823  24578785.653
 92  5  7  5 51 30.0010000  0  5G23G 3G20G17G16
 -12468494.257 7  -9715701.52825  22287220.686
 -16578974.856 9 -12918657.93428  20797973.454
   -219115.683 5   -170725.34725  24652579.570
  -4722044.653 9  -3679497.63329  20778503.444
    127285.055 5     99204.86323  24598109.989
 92  5  7  5 52  0.0010000  0  5G23G 3G20G17G16
 -12549157.928 7  -9778556.29526  22271874.301
 -16572219.298 9 -12913393.86528  20799255.679
   -106370.149 5    -82871.74425  24674031.524
  -4737455.739 9  -3691506.26529  20775571.772
    228928.440 5    178407.42823  24617441.201
 92  5  7  5 52 30.0010000  0  5G23G 3G20G17G16
 -12629535.437 7  -9841188.07326  22256581.594
 -16565084.810 9 -12907834.51128  20800616.429
      6355.301 4      4966.20925  24695484.979
  -4752569.197 8  -3703282.96829  20772691.963
    330684.169 5    257697.59722  24636819.179
 92  5  7  5 53  0.0010000  0  5G23G 3G20G17G16
 -12709596.771 7  -9903573.47526  22241344.936
 -16557562.760 9 -12901973.17728  20802043.142
    119065.783 4     92792.48424  24716919.831
  -4767374.838 9  -3714819.82329  20769878.115
    432573.646 6    337091.90022  24656205.865
 92  5  7  5 53 30.0010000  0  5G23G 3G20G17G16
 -12789322.973 7  -9965697.75726  22226170.035
 -16549646.964 9 -12895805.03228  20803553.807
    231763.119 4    180608.52424  24738376.270
  -4781858.470 9  -3726105.75129  20767120.318
    534611.405 5    416601.76423  24675616.824
 92  5  7  5 54  0.0010000  0  5G23G 3G20G17G16
 -12868690.977 7 -10027542.90627  22211072.194
 -16541333.895 9 -12889327.31327  20805135.809
    344446.573 4    268413.76125  24759821.925
  -4796016.513 8  -3737137.98629  20764425.481
    636805.271 5    496233.33023  24695068.267
 92  5  7  5 54 30.0010000  0  5G23G 3G20G17G16
 -12947689.342 7 -10089100.02327  22196034.311
 -16532627.502 9 -12882543.11528  20806793.056
    457108.412 5    356202.14225  24781254.998
  -4809857.252 8  -3747922.95729  20761789.416
    739144.682 5    575978.26422  24714541.576
 92  5  7  5 55  0.0010000  0  5G23G 3G20G17G16
 -13026328.538 7 -10150377.26826  22181070.156
 -16523524.607 9 -12875449.93628  20808524.362
    569747.910 5    443973.10924  24802695.557
  -4823388.906 9  -3758467.08029  20759216.887
    841624.343 5    655832.51923  24734040.380
 92  5  7  5 55 30.0010000  0  5G23G 3G20G17G16
 -13104626.178 7 -10211388.35426  22166170.183
 -16514032.508 9 -12868053.48928  20810328.505
    682353.722 5    531717.85425  24824125.314
  -4836631.143 9  -3768785.70229  20756698.332
    944227.808 5    735783.20821  24753564.067
 92  5  7  5 56  0.0010000  0  5G23G 3G20G17G16
 -13182587.816 7 -10272137.64527  22151335.858
 -16504155.967 8 -12860357.47128  20812210.302
    794917.168 5    619429.56124  24845542.490
  -4849611.855 9  -3778900.53129  20754226.247
   1046940.312 5    815818.84322  24773113.529
 92  5  7  5 56 30.0010000  0  5G23G 3G20G17G16
 -13260242.837 7 -10332648.00726  22136557.286
 -16493907.865 8 -12852371.94428  20814156.856
    907421.207 6    707095.00023  24866950.975
  -4862358.127 9  -3788832.67329  20751801.522
   1149738.632 5    895921.50922  24792679.184
 92  5  7  5 57  0.0010000  0  5G23G 3G20G17G16
 -13337579.396 7 -10392910.21926  22121841.674
 -16483261.162 8 -12844075.79627  20816184.659
   1019889.401 6    794732.46523  24888350.456
  -4874848.921 9  -3798565.74029  20749423.581
   1252653.182 5    976114.63722  24812259.532
 92  5  7  5 57 30.0010000  0  5G23G 3G20G17G16
 -13414606.483 7 -10452931.28326  22107184.207
 -16472229.519 9 -12835479.72328  20818283.501
   1132303.851 6    882328.07923  24909745.750
  -4887089.581 9  -3808103.89029  20747093.593
   1355675.250 5   1056391.48922  24831859.058
 92  5  7  5 58  0.0010000  0  5G23G 3G20G17G16
 -13491305.705 7 -10512696.86326  22092588.217
 -16460795.318 9 -12826569.95228  20820459.700
   1244678.478 6    969892.67421  24931127.240
  -4899047.388 9  -3817421.63829  20744819.952
   1458801.389 5   1136749.51821  24851490.972
 92  5  7  5 58 30.0010000  0  5G23G 3G20G17G16
 -13567664.958 7 -10572197.53927  22078059.078
 -16448952.509 9 -12817341.80529  20822715.333
   1357015.189 6   1057427.69922  24952506.636
  -4910694.966 9  -3826497.64329  20742602.692
   1562026.332 5   1217184.46123  24871135.468
 92  5  7  5 59  0.0010000  0  5G23G 3G20G17G16
 -13643699.214 7 -10631444.97827  22063590.195
 -16436736.590 8 -12807822.90428  20825036.631
   1469274.400 5   1144902.38021  24973864.446
  -4922060.232 9  -3835353.68729  20740442.390
   1665310.881 5   1297665.92422  24890781.778
 92  5  7  5 59 30.0010000  0  5G23G 3G20G17G16
 -13719384.221 7 -10690420.25927  22049186.663
 -16424129.975 8 -12797999.57028  20827437.362
   1581469.872 6   1232327.3192   24995216.864
  -4933128.549 8  -3843978.35629  20738333.042
   1768658.408 5   1378196.37322  24910450.546
 92  5  7  6  0  0.0010000  0  6G23G21G 3G20G17G16
 -13794728.278 7 -10749129.86926  22034850.297
   -256772.057 5   -200081.85721  25185509.534
 -16411138.701 9 -12787876.50528  20829912.448
   1693592.199 6   1319695.26021  25016554.903
  -4943923.266 8  -3852389.81429  20736279.466
   1872047.777 5   1458759.42922  24930122.927
 92  5  7  6  0 30.0010000  0  6G23G21G 3G20G17G16
 -13869713.317 7 -10807559.72026  22020578.078
   -365152.785 5   -284534.25122  25164883.219
 -16397747.992 9 -12777442.18528  20832459.185
   1805652.053 5   1407014.64721  25037876.137
  -4954444.391 8  -3860588.08829  20734276.862
   1975511.213 5   1539380.29422  24949819.005
 92  5  7  6  1  0.0010000  0  6G23G21G 3G20G17G16
 -13944341.317 7 -10865711.36327  22006377.510
   -473441.113 5   -368914.69822  25144285.070
 -16383954.957 8 -12766694.35828  20835081.779
   1917649.071 5   1494285.14322  25059191.386
  -4964703.108 9  -3868581.87429  20732326.102
   2079064.119 5   1620070.85821  24969521.366
 92  5  7  6  1 30.0010000  0  6G23G21G 3G20G17G16
 -14018616.523 7 -10923588.10327  21992244.090
   -581634.745 5   -453221.29722  25123694.423
 -16369753.917 8 -12755628.61927  20837786.196
   2029584.513 5   1581507.38222  25080489.534
  -4974705.310 9  -3876375.78929  20730420.625
   2182707.048 5   1700831.52322  24989235.121
 92  5  7  6  2  0.0010000  0  6G23G21G 3G20G17G16
 -14092532.609 7 -10981185.01327  21978179.319
   -689758.226 5   -537473.28722  25103118.470
 -16355147.286 8 -12744246.82428  20840565.579
   2141452.177 5   1668676.88622  25101778.695
  -4984449.757 9  -3883968.85629  20728568.215
   2286437.313 5   1781660.23821  25008978.245
 92  5  7  6  2 30.0010000  0  6G23G21G 3G20G17G16
 -14166076.429 7 -11038491.85227  21964183.808
   -797823.341 5   -621679.81723  25082556.600
 -16340126.239 8 -12732542.11627  20843423.506
   2253257.444 5   1755797.77423  25123051.365
  -4993916.132 8  -3891345.23129  20726765.555
   2390280.679 5   1862577.05822  25028738.767
 92  5  7  6  3  0.0010000  0  6G23G21G 3G20G17G16
 -14239251.059 7 -11095510.99727  21950258.744
   -905828.579 5   -705839.69522  25062003.436
 -16324687.459 8 -12720511.89428  20846364.461
   2364999.632 5   1842869.44522  25144319.848
  -5003097.741 9  -3898499.71829  20725017.462
   2494229.544 5   1943576.06222  25048521.468
 92  5  7  6  3 30.0010000  0  6G23G21G 3G20G17G16
 -14312063.442 7 -11152247.87227  21936402.346
  -1013787.998 5   -789963.86124  25041454.758
 -16308829.990 8 -12708155.42828  20849378.271
   2476675.925 5   1929889.91422  25165579.640
  -5011983.215 9  -3905423.45629  20723327.845
   2598266.435 5   2024643.74022  25068318.269
 92  5  7  6  4  0.0010000  0  5G23G21G 3G17G16
 -14384516.144 7 -11208704.47527  21922614.598
  -1121698.022 5   -874049.56422  25020921.069
 -16292548.378 8 -12695468.45627  20852476.330
  -5020554.040 9  -3912102.01429  20721696.965
   2702402.623 5   2105788.79722  25088135.137
 92  5  7  6  4 30.0010000  0  4G23G21G 3G17
 -14456630.563 7 -11264897.48328  21908893.683
  -1229558.178 6   -958096.37024  25000395.495
 -16275852.519 8 -12682458.68127  20855652.933
  -5028818.076 9  -3918541.51929  20720125.747
 92  5  7  6  5  0.0010000  0  4G23G21G 3G17
 -14528400.514 7 -11320822.07427  21895235.747
  -1337365.399 5  -1042101.93824  24979882.782
 -16258735.664 8 -12669120.86628  20858908.672
  -5036778.036 9  -3924744.08829  20718612.098
 92  5  7  6  5 30.0010000  0  4G23G21G 3G17
 -14599807.156 7 -11376463.57627  21881647.646
  -1445100.594 5  -1126051.39124  24959383.278
 -16241183.530 9 -12655443.88328  20862250.162
  -5044422.341 9  -3930700.66329  20717157.203
 92  5  7  6  6  0.0010000  0  4G23G21G 3G17
 -14670831.894 7 -11431807.48927  21868132.104
  -1552755.404 5  -1209938.21025  24938890.667
 -16223195.616 8 -12641427.30927  20865671.993
  -5051766.073 9  -3936423.03729  20715755.986
 92  5  7  6  6 30.0010000  0  4G23G21G 3G17
 -14741472.199 7 -11486851.84727  21854689.119
  -1660326.045 5  -1293759.46224  24918424.738
 -16204779.813 8 -12627077.31427  20869177.777
  -5058830.012 9  -3941927.38629  20714411.411
 92  5  7  6  7  0.0010000  0  4G23G21G 3G17
 -14811734.627 8 -11541601.75227  21841319.268
  -1767813.302 5  -1377515.74024  24897974.984
 -16185946.783 8 -12612402.23127  20872761.196
  -5065627.772 9  -3947224.33729  20713123.498
 92  5  7  6  7 30.0010000  0  4G23G21G 3G17
 -14881618.644 7 -11596056.80627  21828019.881
  -1875195.047 4  -1461189.78922  24877530.937
 -16166699.121 8 -12597404.04127  20876425.550
  -5072150.470 9  -3952306.94829  20711880.868
 92  5  7  6  8  0.0010000  0  4G23G21G 3G17
 -14951127.533 7 -11650219.52228  21814790.034
  -1982462.940 4  -1544775.13523  24857120.779
 -16147040.472 8 -12582085.60127  20880165.463
  -5078399.352 8  -3957176.20029  20710689.193
 92  5  7  6  8 30.0010000  0  4G23G21G 3G17
 -15020278.523 8 -11704103.36627  21801634.838
  -2089614.567 4  -1628269.88324  24836736.080
 -16126970.732 8 -12566446.83328  20883986.310
  -5084374.376 9  -3961832.06229  20709551.177
 92  5  7  6  9  0.0010000  0  4G23G21G 3G17
 -15089072.542 8 -11757709.05828  21788542.899
  -2196653.311 4  -1711676.67623  24816362.183
 -16106485.255 8 -12550484.13728  20887884.811
  -5090068.602 9  -3966269.10429  20708465.930
 92  5  7  6  9 30.0010000  0  4G23G21G 3G17
 -15157492.266 8 -11811023.09027  21775523.816
  -2303585.094 5  -1795000.13124  24796016.172
 -16085576.284 8 -12534191.42527  20891861.559
  -5095482.109 8  -3970487.41029  20707440.032
 92  5  7  6 10  0.0010000  0  4G23G21G 3G17
 -15225544.715 8 -11864050.94827  21762571.583
  -2410436.300 5  -1878260.81421  24775680.944
 -16064244.174 8 -12517569.01227  20895921.055
  -5100634.753 9  -3974502.43129  20706458.213
 92  5  7  6 10 30.0010000  0  4G23G21G 3G17
 -15293229.123 8 -11916792.00927  21749693.096
  -2517219.931 5  -1961468.79623  24755364.912
 -16042489.283 8 -12500617.13527  20900059.392
  -5105521.932 9  -3978310.61029  20705531.851
 92  5  7  6 11  0.0010000  0  4G23G21G 3G17
 -15360506.826 7 -11969216.16027  21736889.871
  -2623917.830 5  -2044609.98521  24735055.180
 -16020295.438 8 -12483323.21727  20904287.370
  -5110105.976 9  -3981882.58329  20704655.867
 92  5  7  6 11 30.0010000  0  4G23G21G 3G17
 -15427371.825 7 -12021318.71428  21724167.266
  -2730536.179 5  -2127689.19122  24714762.827
 -15997666.732 8 -12465690.46327  20908590.280
  -5114389.032 9  -3985220.01529  20703841.937
 92  5  7  6 12  0.0010000  0  4G23G21G 3G17
 -15493823.781 8 -12073099.42927  21711522.332
  -2837061.330 5  -2210695.78822  24694494.155
 -15974591.280 8 -12447709.60226  20912984.035
  -5118356.096 9  -3988311.22729  20703084.353
 92  5  7  6 12 30.0010000  0  4G23G21G 3G17
 -15559859.707 8 -12124555.97227  21698954.721
  -2943479.825 5  -2293619.23322  24674245.568
 -15951079.497 8 -12429388.71728  20917456.055
  -5121997.002 9  -3991148.27829  20702396.029
 92  5  7  6 13  0.0010000  0  4G23G21G 3G17
 -15625473.708 8 -12175683.73527  21686468.671
  -3049785.126 5  -2376454.48522  24654023.069
 -15927126.258 8 -12410723.86627  20922013.493
  -5125324.865 9  -3993741.41629  20701762.569
 92  5  7  6 13 30.0010000  0  4G23G21G 3G17
 -15690673.390 8 -12226488.64027  21674060.868
  -3155970.349 5  -2459196.20922  24633808.371
 -15902725.294 8 -12391710.13028  20926660.574
  -5128363.001 9  -3996108.78629  20701184.565
 92  5  7  6 14  0.0010000  0  4G23G21G 3G17
 -15755475.899 8 -12276984.05027  21661733.389
  -3262031.223 5  -2541840.97422  24613625.449
 -15877879.801 8 -12372350.00526  20931385.604
  -5131115.752 9  -3998253.77029  20700656.330
 92  5  7  6 14 30.0010000  0  4G23G21G 3G17
 -15819883.863 8 -12327172.03328  21649474.279
  -3367969.412 5  -2624390.12721  24593466.800
 -15852592.336 8 -12352645.47227  20936199.962
  -5133589.128 9  -4000181.06729  20700186.866
 92  5  7  6 15  0.0010000  0  4G23G21G 3G17
 -15883911.985 8 -12377064.04827  21637291.008
  -3473802.733 5  -2706857.60722  24573331.238
 -15826860.706 8 -12332594.86027  20941093.788
  -5135802.016 9  -4001905.38129  20699767.154
 92  5  7  6 15 30.0010000  0  4G23G21G 3G17
 -15947582.147 8 -12426677.13227  21625174.310
  -3579531.464 5  -2789243.54022  24553213.667
 -15800689.055 8 -12312201.36727  20946071.829
  -5137750.012 9  -4003423.27329  20699396.913
 92  5  7  6 16  0.0010000  0  4G23G21G 3G17
 -16010891.546 7 -12476009.09628  21613125.947
  -3685147.087 5  -2871541.35223  24533110.179
 -15774070.144 8 -12291459.35226  20951140.420
  -5139410.968 9  -4004717.52729  20699079.127
 92  5  7  6 16 30.0010000  0  4G23G21G 3G17
 -16073821.755 7 -12525045.58227  21601151.642
  -3790638.084 4  -2953742.02122  24513036.077
 -15746991.657 8 -12270359.21827  20956292.352
  -5140784.607 9  -4005787.88129  20698818.612
 92  5  7  6 17  0.0010000  0  4G23G21G 3G17
 -16136379.085 8 -12573791.51827  21589247.470
  -3896003.505 4  -3035844.87222  24492988.359
 -15719465.843 8 -12248910.52927  20961531.536
  -5141878.117 9  -4006639.96029  20698609.943
 92  5  7  6 17 30.0010000  0  4G23G21G 3G17
 -16198536.432 8 -12622225.78328  21577418.264
  -4001226.501 4  -3117836.69023  24472961.913
 -15691482.209 8 -12227105.10027  20966855.248
  -5142674.920 9  -4007260.82829  20698457.061
 92  5  7  6 18  0.0010000  0  4G23G21G 3G17
 -16260268.567 8 -12670328.71527  21565670.289
  -4106310.906 4  -3199720.50023  24452970.263
 -15663043.976 8 -12204945.41826  20972267.695
  -5143179.894 9  -4007654.31229  20698363.825
 92  5  7  6 18 30.0010000  0  4G23G21G 3G17
 -16321562.111 7 -12718089.87827  21554006.267
  -4211250.075 4  -3281491.17623  24432992.992
 -15634149.484 8 -12182430.22927  20977766.189
  -5143401.878 9  -4007827.28929  20698318.245
 92  5  7  6 19  0.0010000  0  4G23G21G 3G17
 -16382406.446 8 -12765501.02028  21542430.979
  -4316039.074 4  -3363144.78322  24413053.501
 -15604789.322 8 -12159552.18027  20983353.731
  -5143325.844 8  -4007768.04229  20698336.236
 92  5  7  6 19 30.0010000  0  4G23G21G 3G17
 -16442816.316 7 -12812573.60428  21530933.641
  -4420697.824 4  -3444696.93824  24393139.487
 -15574972.136 8 -12136318.02327  20989026.692
  -5142962.723 9  -4007485.10429  20698405.199
 92  5  7  6 20  0.0010000  0  4G23G21G 3G17
 -16502804.177 8 -12859317.34927  21519515.458
  -4525215.691 5  -3526139.34822  24373244.948
 -15544702.159 8 -12112731.03026  20994788.405
  -5142315.246 9  -4006980.57229  20698528.415
 92  5  7  6 20 30.0010000  0  4G23G21G 3G17
 -16562381.044 8 -12905740.84327  21508180.599
  -4629594.763 5  -3607473.60724  24353387.001
 -15513975.972 8 -12088788.55427  21000633.460
  -5141375.993 9  -4006248.67529  20698705.884
 92  5  7  6 21  0.0010000  0  4G23G21G 3G17
 -16621544.266 7 -12951842.01828  21496921.300
  -4733830.026 5  -3688695.79223  24333562.332
 -15482788.305 8 -12064486.48226  21006571.752
  -5140126.301 9  -4005274.87629  20698943.312
 92  5  7  6 21 30.0010000  0  4G23G21G 3G17
 -16680279.392 8 -12997609.62028  21485745.325
  -4837900.345 5  -3769789.48424  24313747.837
 -15451134.772 8 -12039821.39727  21012595.776
  -5138556.862 9  -4004051.93829  20699243.420
 92  5  7  6 22  0.0010000  0  4G23G21G 3G17
 -16738579.818 8 -13043038.48127  21474649.116
  -4941806.337 5  -3850755.14323  24293974.140
 -15419022.225 8 -12014798.65126  21018703.457
  -5136678.531 9  -4002588.30029  20699599.562
 92  5  7  6 22 30.0010000  0  4G23G21G 3G17
 -16796441.290 8 -13088125.31027  21463631.432
  -5045553.984 5  -3931597.38423  24274233.093
 -15386447.451 8 -11989415.71326  21024899.558
  -5134492.681 9  -4000885.03229  20700023.777
 92  5  7  6 23  0.0010000  0  5G23G21G 3G28G17
 -16853857.176 8 -13132864.93427  21452713.599
  -5149130.391 5  -4012306.16523  24254518.151
 -15353405.900 8 -11963669.05026  21031189.210
   -279039.646 4   -217433.12122  25113262.247
  -5132003.238 9  -3998945.21129  20700490.849
 92  5  7  6 23 30.0010000  0  5G23G21G 3G28G17
 -16910838.285 8 -13177265.76528  21441870.993
  -5252552.239 4  -4092894.54922  24234841.268
 -15319905.522 8 -11937564.86726  21037565.502
   -387762.691 5   -302152.21122  25092560.984
  -5129229.897 9  -3996784.17029  20701017.287
 92  5  7  6 24  0.0010000  0  5G23G21G 3G28G17
 -16967390.839 8 -13221332.66028  21431110.543
  -5355821.048 4  -4173363.69723  24215185.971
 -15285937.438 8 -11911096.24126  21044029.621
   -496495.475 5   -386878.84622  25071869.301
  -5126165.328 9  -3994396.20429  20701599.776
 92  5  7  6 24 30.0010000  0  5G23G21G 3G28G17
 -17023527.673 8 -13265075.61928  21420425.042
  -5458939.558 5  -4253715.73622  24195569.361
 -15251504.438 8 -11884265.31526  21050579.787
   -605240.401 5   -471615.02521  25051177.932
  -5122804.957 9  -3991777.74529  20702241.630
 92  5  7  6 25  0.0010000  0  5G23G21G 3G28G17
 -17079251.372 8 -13308496.65028  21409823.790
  -5561916.184 5  -4333957.17322  24175972.819
 -15216608.791 8 -11857073.90627  21057219.595
   -713975.970 5   -556343.81021  25030484.452
  -5119154.570 9  -3988933.28729  20702934.752
 92  5  7  6 25 30.0010000  0  5G23G21G 3G28G17
 -17134538.587 8 -13351577.56528  21399301.676
  -5664726.944 5  -4414069.40621  24156406.570
 -15181233.468 8 -11829508.73427  21063953.233
   -822652.155 5   -641026.45522  25009806.275
  -5115199.152 9  -3985851.15129  20703686.944
 92  5  7  6 26  0.0010000  0  5G23G21G 3G28G17
 -17189405.259 8 -13394330.77428  21388860.791
  -5767380.752 5  -4494059.30721  24136871.784
 -15145394.530 8 -11801582.30426  21070772.010
   -931277.814 5   -725669.64522  24989138.883
  -5110963.581 9  -3982550.72529  20704494.575
 92  5  7  6 26 30.0010000  0  5G23G21G 3G28G17
 -17243833.690 8 -13436742.50428  21378504.471
  -5869870.021 4  -4573921.04222  24117371.498
 -15109085.562 8 -11773289.60527  21077683.727
  -1039839.688 6   -810263.16522  24968478.087
  -5106455.031 9  -3979037.58329  20705349.880
 92  5  7  6 27  0.0010000  0  5G23G21G 3G28G17
 -17297806.781 7 -13478799.42828  21368231.179
  -5972181.470 4  -4653644.27422  24097905.361
 -15072297.702 8 -11744623.74526  21084684.772
  -1148320.637 6   -894793.60722  24947837.080
  -5101672.628 9  -3975311.04729  20706261.252
 92  5  7  6 27 30.0010000  0  5G23G21G 3G28G17
 -17351325.100 7 -13520501.97728  21358046.935
  -6074310.117 5  -4733224.96821  24078460.827
 -15035032.555 8 -11715585.96926  21091772.771
  -1256744.160 6   -979279.34522  24927201.150
  -5096610.796 9  -3971366.76529  20707224.487
 92  5  7  6 28  0.0010000  0  5G23G21G 3G28G17
 -17404401.126 8 -13561859.88328  21347946.016
  -6176268.837 5  -4812673.31922  24059059.152
 -14997292.544 8 -11686178.18526  21098956.695
  -1365113.100 6  -1063722.55522  24906574.836
  -5091262.036 9  -3967198.92329  20708243.178
 92  5  7  6 28 30.0010000  0  5G23G21G 3G28G17
 -17457028.964 8 -13602868.56828  21337933.256
  -6278052.488 4  -4891985.13622  24039695.867
 -14959076.671 8 -11656399.60027  21106228.165
  -1473412.551 5  -1148111.57423  24885969.200
  -5085609.690 9  -3962794.50429  20709314.639
 92  5  7  6 29  0.0010000  0  5G23G21G 3G28G17
 -17509224.162 8 -13643540.10929  21328002.930
  -6379658.437 3  -4971158.59323  24020356.855
 -14920391.772 8 -11626255.54927  21113589.575
  -1581643.952 6  -1232447.61422  24865376.459
  -5079645.414 9  -3958147.02629  20710453.859
 92  5  7  6 29 30.0010000  0  4G23G 3G28G17
 -17560995.117 8 -13683881.07029  21318149.647
 -14881236.262 8 -11595744.77526  21121041.202
  -1689797.365 6  -1316722.86823  24844798.412
  -5073376.368 8  -3953262.07129  20711644.627
 92  5  7  6 30  0.0010000  0  4G23G 3G28G17
 -17612343.720 8 -13723892.92928  21308378.520
 -14841603.262 8 -11564861.91826  21128583.378
  -1797850.526 6  -1400920.03922  24824235.041
  -5066804.134 9  -3948140.82229  20712898.059
 92  5  7  6 30 30.0010000  0  4G23G 3G28G17
 -17663263.632 8 -13763570.75528  21298688.920
 -14801492.372 8 -11533606.68126  21136215.509
  -1905816.993 5  -1485049.62722  24803686.066
  -5059944.826 9  -3942795.89429  20714202.463
 92  5  7  6 31  0.0010000  0  5G23G21G 3G28G17
 -17713751.997 8 -13802912.30128  21289081.773
    -16793.74115    -13082.32822  23943382.444
 -14760905.660 8 -11501980.69226  21143937.859
  -2013728.015 5  -1569135.99622  24783154.785
  -5052806.553 9  -3937233.59129  20715561.119
 92  5  7  6 31 30.0010000  0  5G23G21G 3G28G17
 -17763803.404 8 -13841913.36929  21279559.171
   -117443.928 5    -91510.98123  23924226.903
 -14719841.777 8 -11469982.87626  21151751.351
  -2121590.144 5  -1653184.29922  24762628.897
  -5045395.145 9  -3931458.48129  20716973.138
 92  5  7  6 32  0.0010000  0  5G23G21G 3G28G17
 -17813409.620 8 -13880567.52429  21270116.911
   -217911.907 4   -169797.71321  23905113.628
 -14678299.713 8 -11437612.44226  21159658.970
  -2229419.699 5  -1737207.18722  24742111.385
  -5037696.123 9  -3925459.24029  20718435.222
 92  5  7  6 32 30.0010000  0  5G23G21G 3G28G17
 -17862553.394 8 -13918861.34729  21260765.776
   -318205.592 4   -247948.62622  23886031.239
 -14636279.535 8 -11404869.45125  21167653.839
  -2337221.141 5  -1821208.19522  24721593.593
  -5029693.422 9  -3919223.35629  20719956.375
 92  5  7  6 33  0.0010000  0  5G23G21G 3G28G17
 -17911234.383 8 -13956794.56028  21251502.484
   -418319.396 5   -325959.40622  23866971.936
 -14593777.487 8 -11371750.98627  21175740.148
  -2444984.180 4  -1905179.29223  24701080.600
  -5021365.243 9  -3912733.85329  20721541.082
 92  5  7  6 33 30.0010000  0  5G23G21G 3G28G17
 -17959466.418 8 -13994377.90428  21242324.350
   -518256.720 5   -403832.65322  23847961.198
 -14550802.780 8 -11338264.22726  21183922.381
  -2552694.155 4  -1989109.00422  24680587.082
  -5012723.318 9  -3905999.86529  20723187.231
 92  5  7  6 34  0.0010000  0  5G23G21G 3G28G17
 -18007238.927 8 -14031603.20329  21233233.433
   -618008.762 5   -481561.48922  23828978.938
 -14507347.090 8 -11304402.65226  21192188.252
  -2660336.438 5  -2072986.01824  24660101.364
  -5003758.111 9  -3899013.95729  20724895.153
 92  5  7  6 34 30.0010000  0  5G23G21G 3G28G17
 -18054560.979 8 -14068477.50529  21224227.672
   -717573.205 5   -559144.15722  23810032.050
 -14463413.838 8 -11270168.98625  21200548.564
  -2767897.001 5  -2156799.36023  24639638.436
  -4994478.748 9  -3891783.24829  20726658.829
 92  5  7  6 35  0.0010000  0  5G23G21G 3G28G17
 -18101449.028 8 -14105013.62529  21215305.254
   -816946.999 5   -636578.25922  23791119.644
 -14419002.667 8 -11235562.90025  21208999.408
  -2875365.263 5  -2240540.74222  24619190.184
  -4984903.277 9  -3884321.81529  20728482.168
 92  5  7  6 35 30.0010000  0  5G23G21G 3G28G17
 -18147906.586 8 -14141214.29928  21206464.066
   -916141.832 5   -713872.91523  23772248.612
 -14374113.936 8 -11200584.71526  21217544.099
  -2982731.436 5  -2324202.59323  24598758.736
  -4975051.289 9  -3876644.90329  20730356.478
 92  5  7  6 36  0.0010000  0  5G23G21G 3G28G17
 -18193930.446 8 -14177077.01728  21197706.238
  -1015145.930 5   -791018.95922  23753403.354
 -14328740.551 8 -11165228.87726  21226178.728
  -3089985.984 5  -2407777.47723  24578346.762
  -4964920.625 9  -3868750.86429  20732282.040
 92  5  7  6 36 30.0010000  0  5G23G21G 3G28G17
 -18239533.446 8 -14212611.78529  21189028.140
  -1113957.202 5   -868014.72924  23734602.769
 -14282893.791 8 -11129504.16226  21234902.686
  -3197135.402 5  -2491270.45121  24557956.078
  -4954523.829 9  -3860649.43929  20734262.465
 92  5  7  6 37  0.0010000  0  5G23G21G 3G28G17
 -18284701.248 8 -14247807.44028  21180432.197
  -1212560.929 5   -944848.76722  23715837.276
 -14236567.137 8 -11093405.50526  21243717.785
  -3304178.750 6  -2574680.78022  24537589.685
  -4943862.701 9  -3852342.03929  20736292.955
 92  5  7  6 37 30.0010000  0  5G23G21G 3G28G17
 -18329413.266 8 -14282647.93028  21171925.286
  -1310941.349 5  -1021508.79123  23697116.420
 -14189752.302 8 -11056926.42825  21252625.214
  -3411114.258 6  -2658007.08022  24517240.968
  -4932923.742 9  -3843818.15129  20738373.824
 92  5  7  6 38  0.0010000  0  5G23G21G 3G28G17
 -18373661.231 8 -14317126.84728  21163505.608
  -1409073.537 5  -1097975.41022  23678436.067
 -14142451.920 8 -11020069.04226  21261627.083
  -3517940.960 6  -2741248.64322  24496909.336
  -4921695.596 9  -3835068.92929  20740509.538
 92  5  7  6 38 30.0010000  0  5G23G21G 3G28G17
 -18417457.016 8 -14351253.41728  21155170.774
  -1506962.396 5  -1174252.47123  23659809.949
 -14094674.824 8 -10982840.16725  21270717.687
  -3624679.313 6  -2824421.36724  24476598.103
  -4910179.492 9  -3826095.32629  20742704.025
 92  5  7  6 39  0.0010000  0  5G23G21G 3G28G17
 -18460804.110 8 -14385030.36929  21146920.189
  -1604617.856 5  -1250347.62223  23641227.613
 -14046429.535 8 -10945246.46425  21279900.027
  -3731335.322 5  -2907529.90922  24456296.467
  -4898373.045 9  -3816895.47829  20744948.874
 92  5  7  6 39 30.0010000  0  5G23G21G 3G28G17
 -18503703.928 8 -14418458.76829  21138759.245
  -1702054.061 5  -1326271.90422  23622690.544
 -13997716.419 8 -10907288.19425  21289169.914
  -3837898.064 5  -2990565.76523  24436023.886
  -4886265.035 9  -3807460.67129  20747250.086
 92  5  7  6 40  0.0010000  0  5G23G21G 3G28G17
 -18546141.068 8 -14451526.64329  21130684.035
  -1799259.082 5  -1402016.06922  23604189.456
 -13948515.155 8 -10868949.56726  21298532.741
  -3944343.001 6  -3073509.75924  24415769.907
  -4873836.252 9  -3797775.90529  20749616.947
 92  5  7  6 40 30.0010000  0  5G23G21G 3G28G17
 -18588119.736 8 -14484237.29729  21122693.964
  -1896253.797 5  -1477596.30421  23585735.432
 -13898827.906 8 -10830232.24026  21307987.880
  -4050670.368 6  -3156362.21022  24395533.919
  -4861089.308 9  -3787843.22529  20752041.061
 92  5  7  6 41  0.0010000  0  5G23G21G 3G28G17
 -18629647.660 8 -14516596.67229  21114792.942
  -1993065.333 5  -1553033.86222  23567306.589
 -13848672.396 8 -10791150.03526  21317530.287
  -4156879.648 5  -3239122.64722  24375325.520
  -4848049.839 9  -3777682.59029  20754523.948
 92  5  7  6 41 30.0010000  0  5G23G21G 3G28G17
 -18670716.022 8 -14548597.94029  21106977.041
  -2089689.047 5  -1628325.03822  23548918.823
 -13798036.618 7 -10751693.60625  21327167.414
  -4262962.260 5  -3321784.36722  24355135.094
  -4834730.599 9  -3767303.97729  20757058.086
 92  5  7  6 42  0.0010000  0  5G23G21G 3G28G17
 -18711331.243 8 -14580246.09328  21099247.188
  -2186125.856 5  -1703470.61123  23530572.432
 -13746932.840 8 -10711872.49524  21336889.977
  -4368927.379 5  -3404354.53822  24334975.852
  -4821145.154 9  -3756717.92029  20759645.290
 92  5  7  6 42 30.0010000  0  5G23G21G 3G28G17
 -18751476.391 8 -14611527.94229  21091607.884
  -2282361.408 5  -1778459.33121  23512261.692
 -13695348.600 8 -10671677.00425  21346709.686
  -4474761.770 5  -3486822.79122  24314830.989
  -4807287.511 9  -3745919.75629  20762281.669
 92  5  7  6 43  0.0010000  0  5G23G21G 3G28G17
 -18791146.954 8 -14642440.04328  21084058.205
  -2378390.294 5  -1853286.97822  23493985.747
 -13643285.142 8 -10631108.11226  21356613.923
  -4580478.455 5  -3569199.37422  24294714.012
  -4793163.679 9  -3734914.19629  20764967.816
 92  5  7  6 43 30.0010000  0  5G23G21G 3G28G17
 -18830347.840 8 -14672986.15829  21076599.668
  -2474206.004 5  -1927948.50723  23475750.270
 -13590744.902 8 -10590167.67026  21366612.601
  -4686093.505 5  -3651496.72021  24274620.435
  -4778760.469 9  -3723690.90629  20767711.514
 92  5  7  6 44  0.0010000  0  5G23G21G 3G28G17
 -18869083.455 8 -14703169.72029  21069228.678
  -2569795.149 5  -2002433.53423  23457564.560
 -13537726.760 8 -10548854.84825  21376699.717
  -4791608.261 5  -3733715.92422  24254539.126
  -4764045.905 9  -3712225.01629  20770509.482
 92  5  7  6 44 30.0010000  0  5G23G21G 3G28G17
 -18907364.607 8 -14732999.16929  21061943.718
  -2665145.671 5  -2076732.61422  23439418.131
 -13484225.890 8 -10507165.88026  21386882.478
  -4897032.949 5  -3815864.90322  24234477.919
  -4749016.779 9  -3700514.01229  20773369.502
 92  5  7  6 45  0.0010000  0  5G23G21G 3G28G17
 -18945200.799 8 -14762481.90029  21054745.695
  -2760250.364 5  -2150840.13223  23421320.859
 -13430241.739 8 -10465100.31425  21397156.363
  -5002357.804 5  -3897936.13421  24214430.202
  -4733660.358 9  -3688547.97629  20776290.669
 92  5  7  6 45 30.0010000  0  5G23G21G 3G28G17
 -18982611.821 8 -14791633.35029  21047623.825
  -2855110.818 5  -2224757.32222  23403271.558
 -13375778.883 8 -10422661.73225  21407519.576
  -5107563.178 5  -3979914.26722  24194405.868
  -4717983.350 9  -3676332.13829  20779277.797
 92  5  7  6 46  0.0010000  0  5G23G21G 3G28G17
 -19019601.625 8 -14820456.58129  21040586.205
  -2949723.296 5  -2298481.29423  23385262.427
 -13320838.946 7 -10379851.41725  21417973.950
  -5212630.988 5  -4061785.17222  24174419.592
  -4702011.576 9  -3663886.61829  20782314.397
 92  5  7  6 46 30.0010000  0  5G23G21G 3G28G17
 -19056171.234 8 -14848952.37729  21033626.517
  -3044095.425 5  -2372017.96522  23367306.642
 -13265426.372 7 -10336672.78224  21428517.354
  -5317538.896 5  -4143531.47123  24154455.217
  -4685777.163 9  -3651236.43129  20785403.469
 92  5  7  6 47  0.0010000  0  5G23G21G 3G28G17
 -19092309.234 8 -14877111.84929  21026749.892
  -3138239.348 5  -2445376.82323  23349391.655
 -13209541.586 7 -10293126.20225  21439155.478
  -5422271.716 6  -4225141.36421  24134527.417
  -4669285.316 9  -3638385.64229  20788541.996
 92  5  7  6 47 30.0010000  0  5G23G21G 3G28G17
 -19127995.846 8 -14904919.56629  21019958.390
  -3232145.296 5  -2518550.24723  23331519.823
 -13153181.884 7 -10249209.56825  21449877.851
  -5526835.070 6  -4306619.17722  24114631.988
  -4652540.562 9  -3625337.78129  20791729.383
 92  5  7  6 48  0.0010000  0  5G23G21G 3G28G17
 -19163207.602 8 -14932357.31229  21013258.326
  -3325808.284 5  -2591534.33824  23313698.369
 -13096339.883 7 -10204917.09624  21460693.775
  -5631239.914 6  -4387973.50523  24094764.444
  -4635529.089 9  -3612082.08729  20794966.538
 92  5  7  6 48 30.0010000  0  5G23G21G 3G28G17
 -19197945.894 8 -14959426.12528  21006649.091
  -3419248.628 5  -2664344.93823  23295912.584
 -13039020.373 8 -10160252.58126  21471602.325
  -5735508.253 5  -4469221.47324  24074918.782
  -4618238.460 9  -3598608.87629  20798254.665
 92  5  7  6 49  0.0010000  0  5G23G21G 3G28G17
 -19232202.801 8 -14986119.81629  21000131.016
  -3512467.771 5  -2736983.17123  23278176.252
 -12981227.928 8 -10115219.53325  21482600.813
  -5839668.100 5  -4550384.90722  24055097.097
  -4600659.193 9  -3584910.75329  20801601.843
 92  5  7  6 49 30.0010000  0  5G23G21G 3G28G17
 -19265965.997 8 -15012428.77529  20993702.565
  -3605451.380 6  -2809437.89524  23260483.407
 -12922953.829 8 -10069811.18825  21493691.020
  -5943710.643 6  -4631456.90423  24035297.016
  -4582788.049 9  -3570985.19629  20805000.291
 92  5  7  6 50  0.0010000  0  5G23G21G 3G28G17
 -19299247.449 8 -15038362.35029  20987372.150
  -3698205.572 6  -2881713.84824  23242836.717
 -12864198.829 7 -10024028.08825  21504868.792
  -6047618.136 6  -4712423.69923  24015529.287
  -4564634.033 9  -3556839.21429  20808455.102
 92  5  7  6 50 30.0010000  0  5G23G21G 3G28G17
 -19332055.487 8 -15063927.02729  20981125.670
  -3790710.766 6  -2953795.79824  23225225.713
 -12804954.518 7  -9977863.71825  21516143.988
  -6151358.001 6  -4793259.83721  23995784.662
  -4546195.250 9  -3542471.34829  20811964.481
 92  5  7  6 51  0.0010000  0  5G23G21G 3G28G17
 -19364401.466 8 -15089131.65529  20974971.833
  -3882962.182 6  -3025679.98825  23207678.262
 -12745235.607 7  -9931329.53625  21527508.216
  -6254920.743 6  -4873957.95622  23976076.003
  -4527481.828 9  -3527889.46629  20815525.110
 92  5  7  6 51 30.0010000  0  5G23G21G 3G28G17
 -19396305.445 8 -15113991.86829  20968901.339
  -3974958.089 6  -3097365.07524  23190166.777
 -12685043.461 7  -9884426.57925  21538964.179
  -6358289.104 6  -4954504.64522  23956407.216
  -4508493.106 9  -3513093.04429  20819135.508
 92  5  7  6 52  0.0010000  0  5G23G21G 3G28G17
 -19427773.841 8 -15138512.67529  20962912.075
  -4066688.505 6  -3168843.27923  23172714.064
 -12624371.091 7  -9837149.43526  21550510.692
  -6461455.982 6  -5034894.33521  23936774.709
  -4489203.054 9  -3498061.81129  20822807.976
 92  5  7  6 52 30.0010000  0  5G23G21G 3G28G17
 -19458811.830 8 -15162698.11029  20957006.467
  -4158174.918 6  -3240131.36723  23155301.224
 -12563231.368 7  -9789508.10025  21562142.344
  -6564444.483 6  -5115145.03022  23917170.681
  -4469609.968 9  -3482794.46529  20826536.494
 92  5  7  6 53  0.0010000  0  5G23G21G 3G28G17
 -19489392.301 8 -15186527.05129  20951186.890
  -4249419.921 6  -3311231.33824  23137941.137
 -12501617.848 7  -9741497.58625  21573867.529
  -6667262.703 6  -5195262.98522  23897609.231
  -4449707.572 9  -3467286.10929  20830324.361
 92  5  7  6 53 30.0010000  0  5G23G21G 3G28G17
 -19519523.168 8 -15210005.65529  20945450.968
  -4340444.233 6  -3382159.34024  23120623.018
 -12439530.935 7  -9693118.18626  21585685.043
  -6769923.973 6  -5275258.67623  23878077.744
  -4429512.509 9  -3451549.70329  20834169.499
 92  5  7  6 54  0.0010000  0  5G23G21G 3G28G17
 -19549192.309 8 -15233124.46929  20939808.876
  -4431253.702 6  -3452919.92524  23103339.694
 -12376972.585 7  -9644371.42925  21597585.306
  -6872428.206 6  -5355132.00522  23858573.251
  -4409034.738 9  -3435592.99129  20838066.813
 92  5  7  6 54 30.0010000  0  5G23G21G 3G28G17
 -19578393.657 8 -15255878.76029  20934251.017
  -4521838.888 6  -3523505.73424  23086102.229
 -12313944.825 7  -9595258.92925  21609580.307
  -6974770.797 6  -5434879.35022  23839091.846
  -4388288.299 9  -3419426.94429  20842013.581
 92  5  7  6 55  0.0010000  0  5G23G21G 3G28G17
 -19607127.312 8 -15278268.60329  20928782.206
  -4612176.992 6  -3593899.01423  23068908.826
 -12250440.842 7  -9545775.32826  21621665.839
  -7076938.590 6  -5514490.55224  23819652.704
  -4367268.802 9  -3403048.11829  20846013.712
 92  5  7  6 55 30.0010000  0  5G23G21G 3G28G17
 -19635403.036 8 -15300301.60229  20923402.129
  -4702250.883 6  -3664086.42324  23051771.491
 -12186460.724 8  -9495920.72825  21633840.996
  -7178922.276 6  -5593958.27022  23800248.935
  -4345969.070 9  -3386450.92429  20850063.907
 92  5  7  6 56  0.0010000  0  5G23G21G 3G28G17
 -19663213.442 8 -15321972.03129  20918111.398
  -4792034.939 6  -3734047.99624  23034684.517
 -12122009.935 8  -9445699.38026  21646106.719
  -7280719.770 6  -5673280.87922  23780874.848
  -4324378.113 9  -3369626.80929  20854173.748
 92  5  7  6 56 30.0010000  0  5G23G21G 3G28G17
 -19690557.549 8 -15343279.10029  20912908.790
  -4881520.189 6  -3803776.71825  23017654.204
 -12057088.637 8  -9395111.38125  21658460.251
  -7382336.803 6  -5752462.88624  23761536.133
  -4302492.530 9  -3352573.11229  20858338.172
 92  5  7  6 57  0.0010000  0  5G23G21G 3G28G17
 -19717445.019 8 -15364230.34729  20907790.432
  -4970712.313 6  -3873277.02524  23000682.366
 -11991702.858 8  -9344161.48825  21670902.553
  -7483779.993 6  -5831509.44224  23742231.288
  -4280314.038 9  -3335291.17729  20862559.555
 92  5  7  6 57 30.0010000  0  5G23G21G 3G28G17
 -19743877.364 8 -15384826.96129  20902760.529
  -5059618.182 6  -3942554.28622  22983764.171
 -11925855.084 8  -9292851.56025  21683432.368
  -7585055.548 6  -5910425.38123  23722959.128
  -4257846.965 9  -3317784.36029  20866837.598
 92  5  7  6 58  0.0010000  0  5G23G21G 3G28G17
 -19769852.087 8 -15405066.99029  20897816.934
  -5148252.658 6  -4011620.07224  22966894.557
 -11859544.858 8  -9241181.28324  21696047.933
  -7686157.804 6  -5989206.25023  23703725.045
  -4235093.202 9  -3300054.17429  20871166.892
 92  5  7  6 58 30.0010000  0  5G23G21G 3G28G17
 -19795373.516 8 -15424953.80629  20892961.498
  -5236628.164 6  -4080484.06724  22950079.492
 -11792763.718 7  -9189144.06725  21708758.846
  -7787073.160 6  -6067841.49724  23684514.658
  -4212059.179 9  -3282105.58329  20875547.752
 92  5  7  6 59  0.0010000  0  5G23G21G 3G28G17
 -19820450.795 8 -15444494.52929  20888187.904
  -5324766.367 6  -4149163.12325  22933308.210
 -11725517.514 8  -9136744.44823  21721553.677
  -7887793.910 6  -6146325.15321  23665347.427
  -4188744.750 9  -3263938.50629  20879986.790
 92  5  7  6 59 30.0010000  0  5G23G21G 3G28G17
 -19845080.073 8 -15463686.17329  20883503.952
  -5412687.239 6  -4217672.84122  22916577.691
 -11657809.385 7  -9083984.90224  21734437.854
  -7988310.000 6  -6224649.29622  23646221.866
  -4165152.870 9  -3245555.22029  20884475.580
 92  5  7  7  0  0.0010000  0  5G23G21G 3G28G17
 -19869256.646 8 -15482525.03529  20878901.841
  -5500383.437 6  -4286007.48623  22899893.329
 -11589642.344 7  -9030867.76524  21747411.078
  -8088609.675 6  -6302804.78922  23627135.568
  -4141289.507 9  -3226960.40529  20889015.341
 92  5  7  7  0 30.0010000  0  5G23G21G 3G28G17
 -19892983.925 8 -15501013.80929  20874389.057
  -5587847.118 6  -4354160.96825  22883244.652
 -11521017.713 7  -8977394.05423  21760470.944
  -8188688.293 6  -6380788.02624  23608094.553
  -4117151.206 9  -3208151.31629  20893609.652
 92  5  7  7  1  0.0010000  0  5G23G21G 3G28G17
 -19916254.461 8 -15519146.68829  20869959.634
  -5675058.819 6  -4422118.09124  22866649.948
 -11451933.912 7  -8923562.53925  21773617.432
  -8288548.374 6  -6458601.01023  23589090.708
  -4092729.052 9  -3189121.06929  20898257.343
 92  5  7  7  1 30.0010000  0  5G23G21G 3G28G17
 -19939066.718 8 -15536922.45029  20865618.037
  -5761989.724 6  -4489856.39324  22850105.606
 -11382387.732 7  -8869370.71424  21786850.874
  -8388188.316 6  -6536242.47424  23570128.237
  -4068034.687 9  -3169878.69629  20902955.988
 92  5  7  7  2  0.0010000  0  5G23G21G 3G28G17
 -19961430.749 8 -15554348.93029  20861360.376
  -5848622.680 6  -4557362.54024  22833621.520
 -11312380.085 7  -8814819.33025  21800175.145
  -8487612.414 6  -6613715.69122  23551209.234
  -4043074.899 9  -3150429.51029  20907704.699
 92  5  7  7  2 30.0010000  0  5G23G21G 3G28G17
 -19983368.296 8 -15571443.11429  20857186.667
  -5934963.048 6  -4624640.68724  22817191.686
 -11241915.475 7  -8759911.88823  21813578.273
  -8586822.992 6  -6691022.56022  23532331.606
  -4017850.891 9  -3130774.42229  20912503.770
 92  5  7  7  3  0.0010000  0  5G23G21G 3G28G17
 -20004878.018 8 -15588203.93229  20853093.911
  -6020995.959 6  -4691679.25825  22800815.233
 -11170991.507 7  -8704646.48625  21827078.826
  -8685812.237 6  -6768156.97323  23513490.850
  -3992364.775 9  -3110915.11629  20917355.612
 92  5  7  7  3 30.0010000  0  5G23G21G 3G28G17
 -20025964.939 8 -15604635.27929  20849082.385
  -6106737.210 6  -4758490.55825  22784503.223
 -11099610.414 7  -8649024.87524  21840658.830
  -8784571.542 6  -6845112.23323  23494699.252
  -3966614.402 9  -3090849.88229  20922255.423
 92  5  7  7  4  0.0010000  0  5G23G21G 3G28G17
 -20046616.442 8 -15620727.34029  20845151.497
  -6192193.783 6  -4825080.05824  22768240.981
 -11027770.456 7  -8593045.72624  21854330.866
  -8883098.137 6  -6921886.11821  23475952.029
  -3940580.072 9  -3070563.39429  20927209.191
 92  5  7  7  4 30.0010000  0  5G23G21G 3G28G17
 -20066813.733 8 -15636465.48729  20841305.172
  -6277371.070 6  -4891451.92924  22752033.289
 -10955471.803 7  -8536709.15524  21868094.341
  -8981396.376 6  -6998482.09722  23457246.181
  -3914257.457 9  -3050052.26429  20932220.527
 92  5  7  7  5  0.0010000  0  5G23G21G 3G28G17
 -20086548.309 8 -15651843.06629  20837551.159
  -6362296.891 6  -4957627.83226  22735872.084
 -10882722.331 7  -8480021.29223  21881934.859
  -9079480.925 6  -7074911.56422  23438577.502
  -3887659.354 9  -3029326.47929  20937281.317
 92  5  7  7  5 30.0010000  0  5G23G21G 3G28G17
 -20105811.831 8 -15666853.59329  20833884.694
  -6446977.217 6  -5023612.44824  22719757.942
 -10809522.115 7  -8422982.17124  21895863.204
  -9177363.257 6  -7151183.47424  23419952.309
  -3860776.276 9  -3008378.61229  20942397.285
 92  5  7  7  6  0.0010000  0  5G23G21G 3G28G17
 -20124603.310 8 -15681496.30329  20830309.685
  -6531392.404 6  -5089390.47424  22703692.364
 -10735869.332 7  -8365590.40923  21909878.800
  -9275038.255 6  -7227293.80322  23401366.972
  -3833610.809 9  -2987210.71629  20947566.301
 92  5  7  7  6 30.0010000  0  5G23G21G 3G28G17
 -20142934.408 8 -15695780.26929  20826823.393
  -6615544.597 6  -5154963.55523  22687681.946
 -10661766.171 7  -8307847.75223  21923982.834
  -9372491.892 6  -7303231.64423  23382819.414
  -3806165.152 9  -2965824.49529  20952787.179
 92  5  7  7  7  0.0010000  0  5G23G21G 3G28G17
 -20160823.544 8 -15709719.84629  20823418.943
  -6699429.974 6  -5220328.72424  22671717.998
 -10587220.171 7  -8249759.98123  21938167.226
  -9469718.256 6  -7378992.38722  23364320.421
  -3778437.077 9  -2944218.21329  20958065.329
 92  5  7  7  7 30.0010000  0  5G23G21G 3G28G17
 -20178259.579 8 -15723306.34029  20820099.947
  -6783012.514 6  -5285457.93625  22655811.916
 -10512222.925 6  -8191320.58323  21952435.851
  -9566695.184 6  -7454558.75423  23345862.802
  -3750409.455 9  -2922378.50529  20963398.343
 92  5  7  7  8  0.0010000  0  5G23G21G 3G28G17
 -20195244.930 8 -15736541.65329  20816867.590
  -6866294.090 6  -5350352.63725  22639968.479
 -10436772.240 6  -8132527.85323  21966794.413
  -9663394.669 6  -7529908.97124  23327464.532
  -3722084.830 9  -2900307.36729  20968787.406
 92  5  7  7  8 30.0010000  0  5G23G21G 3G28G17
 -20211782.431 8 -15749428.00629  20813721.560
  -6949291.532 6  -5415025.92523  22624169.122
 -10360870.720 6  -8073383.82722  21981237.801
  -9759813.113 6  -7605040.18023  23309118.141
  -3693465.289 9  -2878006.42229  20974230.740
 92  5  7  7  9  0.0010000  0  5G23G21G 3G28G17
 -20227880.627 8 -15761972.04229  20810656.779
  -7032009.765 6  -5479481.65624  22608430.910
 -10284523.402 6  -8013892.47222  21995766.940
  -9855964.591 6  -7679963.35524  23290820.593
  -3664564.443 9  -2855486.30329  20979733.736
 92  5  7  7  9 30.0010000  0  5G23G21G 3G28G17
 -20243543.248 8 -15774176.66929  20807677.137
  -7114455.494 6  -5543725.03924  22592741.873
 -10207730.309 6  -7954053.69222  22010381.236
  -9951843.660 6  -7754674.26224  23272574.331
  -3635394.975 9  -2832756.85229  20985284.982
 92  5  7  7 10  0.0010000  0  5G23G21G 3G28G17
 -20258778.082 8 -15786047.95329  20804777.556
  -7196643.091 7  -5607767.27925  22577101.400
 -10130492.129 6  -7893868.12022  22025079.746
 -10047456.237 6  -7829177.52923  23254380.228
  -3605969.070 9  -2809827.57229  20990884.512
 92  5  7  7 10 30.0010000  0  5G23G21G 3G28G17
 -20273577.964 8 -15797580.31429  20801962.504
  -7278578.166 7  -5671612.76425  22561509.491
 -10052813.133 6  -7833339.05222  22039861.913
 -10142822.034 6  -7903488.51423  23236234.095
  -3576294.363 9  -2786704.40829  20996530.198
 92  5  7  7 11  0.0010000  0  5G23G21G 3G28G17
 -20287931.354 8 -15808764.77229  20799228.998
  -7360248.525 7  -5735251.96024  22545971.241
  -9974693.998 6  -7772467.04623  22054725.624
 -10237948.085 6  -7977612.69424  23218129.023
  -3546379.723 9  -2763394.30829  21002222.966
 92  5  7  7 11 30.0010000  0  5G23G21G 3G28G17
 -20301826.027 8 -15819591.78329  20796586.022
  -7441634.718 7  -5798669.72025  22530482.480
  -9896132.986 6  -7711250.74523  22069677.773
 -10332829.745 6  -8051546.42525  23200075.517
  -3516215.556 9  -2739889.75729  21007965.187
 92  5  7  7 12  0.0010000  0  5G23G21G 3G28G17
 -20315265.729 8 -15830064.27329  20794031.188
  -7522732.725 7  -5861862.93224  22515051.846
  -9817134.650 6  -7649693.63824  22084706.669
 -10427472.341 6  -8125293.87724  23182066.997
  -3485788.549 9  -2716180.40029  21013752.080
 92  5  7  7 12 30.0010000  0  5G23G21G 3G28G17
 -20328249.901 8 -15840181.80329  20791558.196
  -7603523.059 7  -5924816.39625  22499673.998
  -9737695.806 6  -7587793.26324  22099824.316
 -10521863.474 7  -8198845.37724  23164103.428
  -3455084.736 9  -2692255.34129  21019596.228
 92  5  7  7 13  0.0010000  0  5G23G21G 3G28G17
 -20340790.493 8 -15849953.67729  20789170.360
  -7683983.983 7  -5987513.19525  22484365.097
  -9657814.512 6  -7525548.15523  22115025.584
 -10615992.755 7  -8272192.83924  23146192.019
  -3424092.096 9  -2668105.24129  21025495.257
 92  5  7  7 13 30.0010000  0  5G23G21G 3G28G17
 -20352914.699 8 -15859401.10329  20786865.850
  -7764123.202 7  -6049959.32325  22469112.559
  -9577501.625 6  -7462966.68522  22130307.805
 -10709864.264 7  -8345339.44024  23128326.189
  -3392812.874 9  -2643731.81329  21031444.926
 92  5  7  7 14  0.0010000  0  5G23G21G 3G28G17
 -20364619.921 8 -15868522.05029  20784637.789
  -7843964.194 7  -6112173.04925  22453919.667
  -9496756.981 6  -7400048.86322  22145672.163
 -10803463.749 6  -8418274.08624  23110519.115
  -3361255.611 9  -2619141.73429  21037450.383
 92  5  7  7 14 30.0010000  0  5G23G21G 3G28G17
 -20375892.627 8 -15877305.96929  20782492.476
  -7923501.587 7  -6174150.21124  22438781.952
  -9415575.406 6  -7336790.46223  22161125.273
 -10896775.516 6  -8490984.52724  23092760.307
  -3329426.653 9  -2594339.94829  21043507.982
 92  5  7  7 15  0.0010000  0  5G23G21G 3G28G17
 -20386716.233 8 -15885739.93729  20780432.007
  -8002745.438 7  -6235898.63925  22423705.994
  -9333957.604 6  -7273192.23423  22176651.831
 -10989790.521 6  -8563463.71724  23075060.272
  -3297328.525 9  -2569328.43329  21049618.054
 92  5  7  7 15 30.0010000  0  5G23G21G 3G28G17
 -20397087.874 8 -15893821.73029  20778456.974
  -8081715.597 7  -6297433.79225  22408678.599
  -9251910.576 6  -7209259.51223  22192266.809
 -11082500.554 6  -8635705.26823  23057416.880
  -3264968.897 9  -2544113.15729  21055773.094
 92  5  7  7 16  0.0010000  0  5G23G21G 3G28G17
 -20406990.802 8 -15901538.29329  20776573.676
  -8160410.263 7  -6358754.29425  22393703.956
  -9169433.502 6  -7144991.67822  22207963.647
 -11174888.512 6  -8707695.85823  23039834.355
  -3232343.206 9  -2518690.54129  21061979.701
 92  5  7  7 16 30.0010000  0  5G23G21G 3G28G17
 -20416428.063 8 -15908892.00229  20774777.020
  -8238809.562 7  -6419844.63725  22378783.584
  -9086523.372 6  -7080386.40222  22223741.418
 -11266957.947 6  -8779438.23724  23022314.476
  -3199437.800 9  -2493049.95329  21068244.765
 92  5  7  7 17  0.0010000  0  5G23G21G 3G28G17
 -20425409.078 8 -15915890.19329  20773070.301
  -8316914.351 7  -6480705.47525  22363922.874
  -9003180.660 6  -7015444.07022  22239600.141
 -11358714.924 6  -8850937.14424  23004857.575
  -3166248.702 8  -2467188.30829  21074561.081
 92  5  7  7 17 30.0010000  0  5G23G21G 3G28G17
 -20433969.798 8 -15922560.87529  20771437.030
  -8394716.077 7  -6541330.19324  22349115.526
  -8919409.158 6  -6950167.63521  22255539.816
 -11450174.571 6  -8922204.37725  22987453.723
  -3132780.456 9  -2441109.15429  21080929.276
 92  5  7  7 18  0.0010000  0  5G23G21G 3G28G17
 -20442116.049 8 -15928908.60029  20769888.899
  -8472205.521 7  -6601711.55025  22334367.545
  -8835207.270 6  -6884555.83123  22271562.815
 -11541347.611 6  -8993248.26624  22970105.327
  -3099030.044 9  -2414810.12529  21087351.427
 92  5  7  7 18 30.0010000  0  5G23G21G 3G28G17
 -20449871.764 8 -15934951.99929  20768416.031
  -8549391.729 7  -6661856.60425  22319682.209
  -8750580.787 6  -6818613.15322  22287665.562
 -11632256.014 6  -9064085.94023  22952801.307
  -3065006.239 9  -2388298.05729  21093826.941
 92  5  7  7 19  0.0010000  0  5G23G21G 3G28G17
 -20457235.734 8 -15940690.15529  20767009.997
  -8626267.384 7  -6721759.67025  22305053.535
  -8665531.255 6  -6752340.82322  22303849.871
 -11722898.215 6  -9134716.15523  22935555.152
  -3030715.437 9  -2361577.96629  21100351.630
 92  5  7  7 19 30.0010000  0  5G23G21G 3G28G17
 -20464187.958 8 -15946107.46529  20765687.009
  -8702830.684 7  -6781419.36526  22290483.022
  -8580061.793 6  -6685741.29523  22320112.113
 -11813260.779 6  -9205128.53022  22918360.545
  -2996160.266 9  -2334651.85529  21106929.071
 92  5  7  7 20  0.0010000  0  5G23G21G 3G28G17
 -20470701.013 8 -15951182.56029  20764448.271
  -8779088.035 7  -6840840.63826  22275972.468
  -8494176.214 6  -6618817.54522  22336459.791
 -11903334.746 7  -9275316.01923  22901216.910
  -2961336.455 9  -2307516.42029  21113553.592
 92  5  7  7 20 30.0010000  0  5G23G21G 3G28G17
 -20476760.697 8 -15955904.38829  20763298.860
  -8855032.087 7  -6900017.79526  22261521.262
  -8407870.851 5  -6551566.68122  22352882.121
 -11993103.436 7  -9345265.60724  22884132.048
  -2926246.088 9  -2280173.28429  21120232.366
 92  5  7  7 21  0.0010000  0  5G23G21G 3G28G17
 -20482348.472 8 -15960258.49829  20762234.012
  -8930660.283 7  -6958948.80526  22247129.125
  -8321147.641 6  -6483990.12022  22369382.401
 -12082539.016 7  -9414955.63324  22867115.520
  -2890884.347 8  -2252618.70829  21126960.909
 92  5  7  7 21 30.0010000  0  5G23G21G 3G28G17
 -20487476.674 8 -15964254.49629  20761259.679
  -9005975.625 7  -7017636.04026  22232796.354
  -8234008.841 6  -6416089.81421  22385969.618
 -12171636.831 7  -9484382.47624  22850161.360
  -2855246.227 8  -2224848.74329  21133741.906
 92  5  7  7 22  0.0010000  0  5G23G21G 3G28G17
 -20492174.834 8 -15967915.39929  20760363.907
  -9080982.838 7  -7076083.18426  22218522.337
  -8146456.862 6  -6347867.53322  22402629.080
 -12260408.576 7  -9553555.21323  22833268.066
  -2819332.029 8  -2196863.66329  21140576.581
 92  5  7  7 22 30.0010000  0  5G23G21G 3G28G17
 -20496446.151 8 -15971243.69029  20759553.258
  -9155684.085 7  -7134291.90226  22204309.170
  -8058490.119 5  -6279322.11822  22419369.492
 -12348840.496 7  -9622463.17624  22816441.013
  -2783139.521 8  -2168661.71529  21147462.820
 92  5  7  7 23  0.0010000  0  5G23G21G 3G28G17
 -20500289.692 8 -15974238.65429  20758819.668
  -9230072.831 7  -7192257.12426  22190152.384
  -7970111.326 6  -6210455.51421  22436185.744
 -12436936.526 7  -9691109.42224  22799677.217
  -2746653.326 8  -2140230.93329  21154406.611
 92  5  7  7 23 30.0010000  0  5G23G21G 3G28G17
 -20503708.188 8 -15976902.40529  20758170.921
  -9304142.183 7  -7249973.47225  22176058.541
  -7881324.082 6  -6141270.71323  22453084.151
 -12524712.718 7  -9759506.42524  22782974.566
  -2709889.433 9  -2111583.75029  21161402.560
 92  5  7  7 24  0.0010000  0  5G23G21G 3G28G17
 -20506687.207 8 -15979223.70629  20757603.109
  -9377895.011 7  -7307443.17325  22162021.952
  -7792129.548 6  -6071768.54222  22470054.801
 -12612158.115 7  -9827645.67624  22766333.690
  -2672856.434 9  -2082726.87529  21168449.779
 92  5  7  7 24 30.0010000  0  5G23G21G 3G28G17
 -20509212.356 8 -15981191.36029  20757121.640
  -9451318.354 7  -7364656.12526  22148052.530
  -7702527.159 6  -6001948.53322  22487106.997
 -12699258.117 7  -9895515.78224  22749759.962
  -2635555.892 9  -2053661.52429  21175547.079
 92  5  7  7 25  0.0010000  0  5G23G21G 3G28G17
 -20511298.601 8 -15982817.00829  20756724.124
  -9524419.318 7  -7421617.87626  22134139.454
  -7612518.644 6  -5931812.06721  22504233.845
 -12786023.327 7  -9963125.01124  22733248.007
  -2598002.284 8  -2024398.98929  21182694.130
 92  5  7  7 25 30.0010000  0  5G23G21G 3G28G17
 -20512966.708 8 -15984116.82129  20756407.542
  -9597220.655 7  -7478346.13625  22120285.150
  -7522103.355 6  -5861358.58721  22521437.142
 -12872451.708 7 -10030471.77025  22716796.884
  -2560204.962 8  -1994946.54129  21189886.743
 92  5  7  7 26  0.0010000  0  5G23G21G 3G28G17
 -20514229.794 8 -15985101.03629  20756170.097
  -9669738.632 7  -7534853.60425  22106485.692
  -7431277.682 6  -5790585.35122  22538725.265
 -12958533.368 7 -10097548.38024  22700419.227
  -2522139.670 8  -1965285.29929  21197129.124
 92  5  7  7 26 30.0010000  0  5G23G21G 3G28G17
 -20515105.011 8 -15985783.01129  20756001.021
  -9741981.225 7  -7591146.48326  22092737.817
  -7340048.516 6  -5719497.78124  22556089.837
 -13044286.586 7 -10164369.05124  22684104.529
  -2483801.759 8  -1935411.59929  21204425.776
 92  5  7  7 27  0.0010000  0  5G23G21G 3G28G17
 -20515601.004 8 -15986169.49429  20755906.284
  -9813951.748 7  -7647227.37226  22079042.398
  -7248418.475 6  -5648097.76021  22573521.575
 -13129718.332 7 -10230939.21524  22667844.678
  -2445184.694 8  -1905320.39829  21211774.289
 92  5  7  7 27 30.0010000  0  5G23G21G 3G28G17
 -20515705.957 8 -15986251.31829  20755885.902
  -9885610.121 7  -7703065.04426  22065407.845
  -7156385.818 6  -5576384.04022  22591038.749
 -13214803.824 7 -10297239.58224  22651654.384
  -2406275.585 8  -1875001.63629  21219178.277
 92  5  7  7 28  0.0010000  0  5G23G21G 3G28G17
 -20515404.964 8 -15986016.72729  20755944.361
  -9956925.664 7  -7758635.56326  22051837.125
  -7063955.595 6  -5504360.50022  22608619.477
 -13299527.762 7 -10363258.20725  22635532.738
  -2367087.900 8  -1844465.77629  21226636.500
 92  5  7  7 28 30.0010000  0  5G23G21G 3G28G17
 -20514685.988 8 -15985456.46229  20756078.972
 -10027885.811 7  -7813929.14626  22038333.274
  -6971132.880 6  -5432031.14422  22626287.142
 -13383891.081 7 -10428995.81925  22619477.369
  -2327631.929 8  -1813720.86028  21234145.713
 92  5  7  7 29  0.0010000  0  5G23G21G 3G28G17
 -20513539.154 8 -15984562.80629  20756297.815
 -10098483.179 7  -7868940.04326  22024900.183
  -6877920.709 6  -5359398.30322  22644025.271
 -13467874.431 7 -10494437.36123  22603495.727
  -2287911.991 8  -1782770.27228  21241701.674
 92  5  7  7 29 30.0010000  0  5G23G21G 3G28G17
 -20511953.495 8 -15983327.23229  20756600.611
 -10168714.780 7  -7923665.93225  22011535.428
  -6784314.734 6  -5286458.60722  22661835.329
 -13551461.445 7 -10559570.07724  22587588.440
  -2247923.924 8  -1751610.75029  21249311.313
 92  5  7  7 30  0.0010000  0  5G23G21G 3G28G17
 -20509922.978 8 -15981745.00929  20756987.639
 -10238618.131 7  -7978136.06226  21998233.336
  -6690318.838 6  -5213215.12022  22679723.059
 -13634680.337 7 -10624415.94425  22571754.601
  -2207669.535 8  -1720243.70129  21256973.407
 92  5  7  7 30 30.0010000  0  5G23G21G 3G28G17
 -20507456.735 8 -15979823.23829  20757456.806
 -10308211.076 7  -8032364.28726  21984987.906
  -6595935.386 6  -5139669.62922  22697682.718
 -13717544.363 7 -10688985.27424  22555985.816
  -2167132.090 8  -1688656.06729  21264684.972
 92  5  7  7 31  0.0010000  0  5G23G21G 3G28G17
 -20504568.701 8 -15977572.83529  20758007.535
 -10377493.519 7  -8086350.57625  21971803.341
  -6501171.284 6  -5065827.52323  22715716.733
 -13800050.888 7 -10753276.03925  22540282.679
  -2126324.696 8  -1656858.09429  21272451.384
 92  5  7  7 31 30.0010000  0  5G23G21G 3G28G17
 -20501260.035 8 -15974994.65729  20758634.102
 -10446470.075 7  -8140098.50226  21958678.422
  -6406024.447 6  -4991687.18922  22733825.103
 -13882198.438 7 -10817287.08524  22524652.711
  -2085253.020 8  -1624854.20128  21280266.673
 92  5  7  7 32  0.0010000  0  5G23G21G 3G28G17
 -20497527.910 8 -15972086.52529  20759346.106
 -10515141.183 7  -8193608.41926  21945608.976
  -6310491.706 6  -4917246.11422  22751998.825
 -13963981.189 7 -10881013.86825  22509088.391
  -2043925.353 8  -1592650.83228  21288132.935
 92  5  7  7 32 30.0010000  0  5G23G21G 3G28G17
 -20493389.873 8 -15968862.08829  20760131.854
 -10583485.896 7  -8246864.00226  21932603.678
  -6214575.210 7  -4842506.05123  22770252.887
 -14045369.414 7 -10944433.25026  22493604.097
  -2002346.461 8  -1560251.69229  21296043.554
 92  5  7  7 33  0.0010000  0  5G23G21G 3G28G17
 -20488843.083 8 -15965319.14929  20760996.460
 -10651498.512 7  -8299860.80126  21919662.527
  -6118279.433 7  -4767470.45722  22788576.802
 -14126359.104 7 -11007542.07426  22478188.173
  -1960534.655 8  -1527671.05529  21304001.255
 92  5  7  7 33 30.0010000  0  5G23G21G 3G28G17
 -20483893.066 8 -15961462.00029  20761940.500
 -10719180.178 7  -8352599.71826  21906784.947
  -6021607.048 7  -4692141.35722  22806975.055
 -14206952.579 7 -11070342.16825  22462851.683
  -1918484.387 8  -1494904.61629  21311999.405
 92  5  7  7 34  0.0010000  0  5G23G21G 3G28G17
 -20478548.732 8 -15957297.59429  20762959.209
 -10786523.903 7  -8405075.31726  21893967.622
  -5924558.770 7  -4616519.36721  22825441.381
 -14287159.585 7 -11132841.11725  22447589.252
  -1876184.146 8  -1461943.39328  21320051.529
 92  5  7  7 34 30.0010000  0  5G23G21G 3G28G17
 -20472818.037 8 -15952832.12829  20764046.846
 -10853523.628 7  -8457282.84826  21881220.447
  -5827137.531 7  -4540606.73822  22843983.232
 -14366987.198 7 -11195044.43625  22432396.970
  -1833613.940 8  -1428771.80728  21328151.624
 92  5  7  7 35  0.0010000  0  5G23G21G 3G28G17
 -20466689.332 8 -15948056.50429  20765214.544
 -10920181.743 7  -8509224.20426  21868532.324
  -5729340.948 7  -4464401.68824  22862590.155
 -14446439.903 7 -11256955.61325  22417279.933
  -1790763.516 8  -1395381.87228  21336305.988
 92  5  7  7 35 30.0010000  0  5G23G21G 3G28G17
 -20460170.454 8 -15942976.85929  20766453.876
 -10986513.152 7  -8560910.97827  21855911.070
  -5631169.811 6  -4387904.77424  22881275.622
 -14525510.593 7 -11318569.11925  22402234.251
  -1747617.556 8  -1361761.63228  21344516.996
 92  5  7  7 36  0.0010000  0  5G23G21G 3G28G17
 -20453255.188 8 -15937588.34329  20767767.878
 -11052525.793 7  -8612349.35726  21843351.259
  -5532631.597 6  -4311121.81624  22900021.640
 -14604199.825 7 -11379885.39726  22387259.922
  -1704188.334 8  -1327920.68528  21352781.681
 92  5  7  7 36 30.0010000  0  5G23G21G 3G28G17
 -20445935.285 8 -15931884.51029  20769163.407
 -11118213.541 7  -8663534.57926  21830850.219
  -5433725.388 6  -4234052.10424  22918847.406
 -14682491.796 7 -11440892.11925  22372360.543
  -1660482.240 8  -1293863.97528  21361098.821
 92  5  7  7 37  0.0010000  0  5G23G21G 3G28G17
 -20438211.877 8 -15925866.26129  20770631.790
 -11183584.436 7  -8714472.90426  21818409.436
  -5334458.038 7  -4156700.94824  22937734.929
 -14760375.133 7 -11501580.41026  22357540.893
  -1616516.179 8  -1259604.72428  21369463.321
 92  5  7  7 37 30.0010000  0  5G23G21G 3G28G17
 -20430077.252 8 -15919527.59129  20772181.422
 -11248637.381 7  -8765163.48626  21806030.705
  -5234824.030 6  -4079064.12926  22956693.508
 -14837841.606 7 -11561943.87526  22342796.803
  -1572280.566 8  -1225135.41328  21377882.999
 92  5  7  7 38  0.0010000  0  5G23G21G 3G28G17
 -20421535.396 8 -15912871.58429  20773803.891
 -11313369.959 7  -8815604.43226  21793715.231
  -5134832.010 6  -4001148.32925  22975721.941
 -14914903.284 7 -11621991.91425  22328135.147
  -1527795.030 8  -1190471.37128  21386350.333
 92  5  7  7 38 30.0010000  0  5G23G21G 3G28G17
 -20412599.081 8 -15905908.22029  20775506.421
 -11377784.189 7  -8865797.31327  21781455.214
  -5034479.821 6  -3922951.87223  22994820.210
 -14991553.867 7 -11681719.62225  22313548.458
  -1483043.306 8  -1155599.90029  21394862.951
 92  5  7  7 39  0.0010000  0  5G23G21G 3G28G17
 -20403259.734 8 -15898630.79229  20777285.680
 -11441890.156 7  -8915750.00126  21769255.750
  -4933768.149 6  -3844475.28923  23013982.957
 -15067785.710 7 -11741121.04825  22299041.795
  -1438013.537 8  -1120511.78628  21403432.212
 92  5  7  7 39 30.0010000  0  5G23G21G 3G28G17
 -20393523.391 8 -15891044.03029  20779139.609
 -11505672.556 7  -8965450.53525  21757118.355
  -4832696.695 6  -3765718.33623  23033219.728
 -15143603.974 7 -11800200.21125  22284611.878
  -1392704.734 8  -1085206.23229  21412053.946
 92  5  7  7 40  0.0010000  0  5G23G21G 3G28G17
 -20383391.350 8 -15883148.92229  20781064.874
 -11569111.586 7  -9014883.49526  21745046.016
  -4731264.976 6  -3686680.69725  23052520.663
 -15219006.735 7 -11858955.59825  22270266.212
  -1347125.107 8  -1049689.63228  21420726.931
 92  5  7  7 40 30.0010000  0  5G23G21G 3G28G17
 -20372865.198 8 -15874946.70329  20783071.387
 -11632208.230 7  -9064049.69126  21733038.137
  -4629476.785 6  -3607365.28724  23071888.765
 -15293980.853 7 -11917376.96026  22255995.790
  -1301260.874 8  -1013951.27328  21429455.093
 92  5  7  7 41  0.0010000  0  5G23G21G 3G28G17
 -20361940.021 8 -15866433.55129  20785146.846
 -11694946.990 7  -9112937.01226  21721100.687
  -4527333.628 6  -3527773.26923  23091325.812
 -15368517.839 7 -11975457.71725  22241814.120
  -1255125.127 8   -978001.36828  21438234.525
 92  5  7  7 41 30.0010000  0  5G23G21G 3G28G17
 -20350628.195 8 -15857619.12729  20787299.959
 -11757308.609 7  -9161530.43826  21709231.608
  -4424838.454 6  -3447906.95823  23110833.602
 -15442624.874 7 -12033203.45225  22227714.571
  -1208735.166 8   -941853.35628  21447064.003
 92  5  7  7 42  0.0010000  0  5G23G21G 3G28G17
 -20338925.603 8 -15848500.19029  20789528.317
 -11819308.381 7  -9209841.89626  21697435.976
  -4321992.004 6  -3367766.90623  23130401.055
 -15516295.856 7 -12090609.37326  22213692.379
  -1162093.205 8   -905508.98728  21455937.265
 92  5  7  7 42 30.0010000  0  5G23G21G 3G28G17
 -20326841.311 8 -15839083.85229  20791826.214
 -11880965.739 7  -9257886.53426  21685702.694
  -4218798.877 6  -3287356.71123  23150038.361
 -15589517.672 7 -12147665.31425  22199761.329
  -1115202.667 8   -868970.92329  21464859.683
 92  5  7  7 43  0.0010000  0  5G23G21G 3G28G17
 -20314375.467 8 -15829370.22729  20794197.576
 -11942276.650 7  -9305661.22627  21674035.984
  -4115265.210 6  -3206681.15123  23169740.721
 -15662307.828 7 -12204384.91426  22185908.212
  -1068087.505 8   -832257.83228  21473827.682
 92  5  7  7 43 30.0010000  0  5G23G21G 3G28G17
 -20301523.840 8 -15819355.96429  20796642.683
 -12003250.713 7  -9353173.43226  21662431.607
  -4011390.957 6  -3125740.23021  23189504.541
 -15734673.387 7 -12260773.65326  22172139.048
  -1020729.166 8   -795355.25527  21482840.946
 92  5  7  7 44  0.0010000  0  5G23G21G 3G28G17
 -20288278.294 8 -15809034.74129  20799164.833
 -12063906.039 7  -9400437.26927  21650890.504
  -3907181.068 6  -3044537.73423  23209337.010
 -15806604.570 7 -12316823.90025  22158449.631
   -973111.509 8   -758250.60327  21491898.865
 92  5  7  7 44 30.0010000  0  6G23G21G 3G28G17G11
 -20274629.026 8 -15798398.93129  20801759.244
 -12124227.997 7  -9447441.33526  21639412.047
  -3802635.833 6  -2963073.98023  23229231.532
 -15878098.650 7 -12372533.55226  22144841.445
   -925220.772 8   -720933.14827  21501013.463
   -149425.846 5   -116435.60921  25459573.510
 92  5  7  7 45  0.0010000  0  6G23G21G 3G28G17G11
 -20260568.438 8 -15787442.61129  20804437.294
 -12184196.960 7  -9494170.35126  21627999.256
  -3697754.525 6  -2881348.32623  23249189.922
 -15949161.014 7 -12427906.80325  22131321.697
   -877038.221 8   -683388.32928  21510182.907
   -258797.519 5   -201660.16922  25438757.407
 92  5  7  7 45 30.0010000  0  6G23G21G 3G28G17G11
 -20246108.956 8 -15776175.49829  20807187.588
 -12243826.544 7  -9540634.91827  21616651.502
  -3592544.731 6  -2799366.74323  23269207.957
 -16019775.722 7 -12482931.22626  22117884.105
   -828555.070 8   -645609.27527  21519409.029
   -368202.444 5   -286910.74421  25417937.726
 92  5  7  7 46  0.0010000  0  6G23G21G 3G28G17G11
 -20231251.657 8 -15764598.36829  20810015.832
 -12303113.850 7  -9586832.76727  21605370.913
  -3487003.838 6  -2717127.10622  23289296.159
 -16089928.299 7 -12537595.54926  22104534.042
   -779785.226 8   -607606.81428  21528691.794
   -477634.140 5   -372182.42122  25397111.153
 92  5  7  7 46 30.0010000  0  6G23G21G 3G28G17G11
 -20216015.428 8 -15752725.98729  20812915.116
 -12362061.922 7  -9632766.27326  21594152.674
  -3381137.522 6  -2634633.90122  23309440.708
 -16159629.754 7 -12591908.36826  22091272.732
   -730745.387 8   -569393.94826  21538022.845
   -587094.466 5   -457476.10822  25376282.172
 92  5  7  7 47  0.0010000  0  6G23G21G 3G28G17G11
 -20200411.388 8 -15740566.99629  20815884.567
 -12420682.461 7  -9678444.56327  21582996.209
  -3274949.152 6  -2551889.77923  23329647.013
 -16228871.318 7 -12645862.81826  22078094.746
   -681446.710 8   -530979.42127  21547404.849
   -696582.334 5   -542791.23721  25355447.188
 92  5  7  7 47 30.0010000  0  6G23G21G 3G28G17G11
 -20184459.330 8 -15728136.82529  20818919.666
 -12478992.066 7  -9723880.55827  21571903.577
  -3168442.010 5  -2468897.23423  23349918.983
 -16297646.472 7 -12699453.82425  22065007.921
   -631912.085 8   -492381.03127  21556825.524
   -806096.814 5   -628127.05021  25334612.518
 92  5  7  7 48  0.0010000  0  6G23G21G 3G28G17G11
 -20168161.282 8 -15715437.05329  20822024.008
 -12536971.955 7  -9769059.58726  21560868.827
  -3061615.040 5  -2385655.46221  23370241.018
 -16365964.710 7 -12752688.79426  22052006.810
   -582145.175 8   -453601.64727  21566298.357
   -915632.641 5   -713479.56822  25313771.234
 92  5  7  7 48 30.0010000  0  6G23G21G 3G28G17G11
 -20151519.338 8 -15702469.31829  20825188.919
 -12594617.118 7  -9813977.82926  21549898.520
  -2954470.862 5  -2302166.50623  23390635.297
 -16433821.062 7 -12805563.85825  22039094.155
   -532137.646 8   -414634.76427  21575814.380
  -1025188.413 5   -798847.58322  25292925.466
 92  5  7  7 49  0.0010000  0  6G23G21G 3G28G17G11
 -20134530.082 8 -15689230.93229  20828420.385
 -12651919.601 8  -9858629.07427  21538996.270
  -2847009.868 5  -2218430.72523  23411078.454
 -16501203.618 7 -12858069.72626  22026272.032
   -481877.182 8   -375470.78628  21585383.154
  -1134760.300 4   -884228.20522  25272067.709
 92  5  7  7 49 30.0010000  0  6G23G21G 3G28G17G11
 -20117187.258 8 -15675717.04229  20831723.502
 -12708860.920 8  -9902998.91127  21528158.760
  -2739229.186 5  -2134445.79022  23431592.354
 -16568119.717 7 -12910212.12426  22013537.142
   -431354.067 8   -336102.17127  21594992.693
  -1244341.194 4   -969615.77522  25251216.845
 92  5  7  7 50  0.0010000  0  6G23G21G 3G28G17G11
 -20099468.139 8 -15661909.94029  20835095.564
 -12765449.804 7  -9947094.09327  21517392.621
  -2631135.607 5  -2050217.03222  23452161.414
 -16634578.634 7 -12961998.28126  22000891.894
   -380561.025 8   -296523.20526  21604659.502
  -1353933.239 4  -1055012.04622  25230358.181
 92  5  7  7 50 30.0010000  0  6G23G21G 3G28G17G11
 -20081364.427 8 -15647803.15729  20838537.777
 -12821703.751 8  -9990928.28927  21506687.628
  -2522725.868 5  -1965741.94523  23472792.824
 -16700569.880 7 -13013420.01726  21988333.287
   -329491.219 8   -256728.57527  21614376.970
  -1463529.187 3  -1140411.48221  25209506.724
 92  5  7  7 51  0.0010000  0  5G23G21G 3G28G17
 -20062881.132 8 -15633400.61029  20842054.641
 -12877618.410 8 -10034498.09527  21496046.503
  -2414006.214 5  -1881025.35422  23493480.598
 -16766103.634 7 -13064485.25526  21975863.728
   -278152.229 8   -216724.18127  21624147.522
 92  5  7  7 51 30.0010000  0  5G23G21G 3G28G17
 -20044007.129 8 -15618693.60429  20845647.362
 -12933197.071 8 -10077806.11328  21485469.821
  -2304977.172 5  -1796067.67822  23514224.737
 -16831181.808 7 -13115195.50826  21963479.901
   -226545.482 8   -176511.13628  21633968.714
 92  5  7  7 52  0.0010000  0  5G23G21G 3G28G17
 -20024730.827 8 -15603673.14329  20849316.218
 -12988436.845 8 -10120850.07027  21474956.990
  -2195627.786 6  -1710860.36621  23535032.429
 -16895771.349 7 -13165525.00126  21951188.701
   -174652.662 8   -136075.21827  21643844.176
 92  5  7  7 52 30.0010000  0  6G23G21G 3G28G17G11
 -20005084.729 8 -15588364.51429  20853054.037
 -13043329.946 7 -10163623.87527  21464508.934
  -2085977.475 6  -1625418.64621  23555900.394
 -16959872.257 7 -13215473.74626  21938988.346
   -122490.757 8    -95429.56327  21653769.703
    -65756.17814    -51237.49922  25126084.074
 92  5  7  7 53  0.0010000  0  6G23G21G 3G28G17G11
 -19985069.164 8 -15572768.00029  20856863.786
 -13097866.946 8 -10206120.19726  21454133.104
  -1976026.278 6  -1539742.43222  23576823.205
 -17023470.949 7 -13265031.16227  21926887.824
    -70057.428 8    -54572.43127  21663747.091
   -175345.701 5   -136631.89822  25105230.208
 92  5  7  7 53 30.0010000  0  6G23G21G 3G28G17G11
 -19964689.704 8 -15556887.92729  20860740.718
 -13152058.722 8 -10248347.51927  21443821.753
  -1865776.542 6  -1453833.68022  23597805.382
 -17086558.407 7 -13314190.20526  21914881.743
    -17355.803 8    -13506.23427  21673775.156
   -284930.469 5   -222022.54322  25084381.439
 92  5  7  7 54  0.0010000  0  6G23G21G 3G28G17G11
 -19943963.012 8 -15540737.25929  20864686.876
 -13205893.720 8 -10290296.85727  21433579.941
  -1755230.838 6  -1367694.09523  23618840.014
 -17149130.736 7 -13362947.84626  21902975.180
     35600.900 8     27758.69427  21683852.377
   -394508.216 5   -307407.73621  25063534.169
 92  5  7  7 54 30.0010000  0  6G23G21G 3G28G17G11
 -19922889.795 8 -15524316.57929  20868694.196
 -13259367.474 7 -10331964.66927  21423399.885
  -1644389.282 6  -1281324.11022  23639934.622
 -17211195.184 7 -13411309.73626  21891163.669
     88806.119 7     69217.30227  21693977.866
   -504075.121 5   -392784.39622  25042680.008
 92  5  7  7 55  0.0010000  0  6G23G21G 3G28G17G11
 -19901469.428 8 -15507625.38729  20872772.277
 -13312497.934 8 -10373365.01727  21413292.091
  -1533255.732 6  -1194726.62022  23661081.075
 -17272760.270 7 -13459282.52326  21879445.673
    142252.191 7    110863.59427  21704145.933
   -613630.665 5   -478152.30221  25021830.644
 92  5  7  7 55 30.0010000  0  6G23G21G 3G28G17G11
 -19879698.711 8 -15490661.20429  20876913.022
 -13365276.546 8 -10414491.18927  21403246.332
  -1421831.049 6  -1107902.21021  23682290.489
 -17333829.017 7 -13506868.54626  21867826.917
    195943.734 8    152701.15727  21714364.066
   -723171.017 6   -563508.37521  25000986.377
 92  5  7  7 56  0.0010000  0  6G23G21G 3G28G17G11
 -19857577.853 8 -15473424.17329  20881124.196
 -13417700.765 8 -10455341.19027  21393271.351
  -1310120.492 6  -1020855.07722  23703546.372
 -17394410.548 7 -13554074.92027  21856298.396
    249881.189 8    194730.33628  21724630.151
   -832696.803 6   -648853.02823  24980146.611
 92  5  7  7 56 30.0010000  0  6G23G21G 3G28G17G11
 -19835092.143 8 -15455902.84429  20885402.239
 -13469769.853 7 -10495914.46528  21383363.205
  -1198121.016 6   -933582.79622  23724852.931
 -17454502.007 7 -13600899.42826  21844862.221
    304080.998 8    236963.95427  21734942.113
   -942200.525 6   -734180.51222  24959307.125
 92  5  7  7 57  0.0010000  0  6G23G21G 3G28G17G11
 -19812241.845 8 -15438097.41329  20889751.932
 -13521474.313 8 -10536203.63027  21373523.411
  -1085834.770 6   -846087.10422  23746222.432
 -17514099.644 7 -13647339.12926  21833521.359
    358548.299 8    279406.01826  21745307.141
  -1051679.761 6   -819488.93322  24938475.160
 92  5  7  7 57 30.0010000  0  6G23G21G 3G28G17G11
 -19789034.123 8 -15420013.46929  20894167.867
 -13572805.665 8 -10576202.05627  21363755.879
   -973264.681 6   -758370.25422  23767642.610
 -17573204.667 7 -13693394.97927  21822274.362
    413280.340 8    322054.34826  21755721.919
  -1161132.755 6   -904776.96422  24917646.475
 92  5  7  7 58  0.0010000  0  6G23G21G 3G28G17G11
 -19765468.245 8 -15401650.46429  20898652.171
 -13623763.257 8 -10615909.23827  21354058.793
   -860411.836 6   -670433.07321  23789114.335
 -17631812.112 7 -13739063.11526  21811123.272
    468274.296 8    364906.75327  21766190.078
  -1270556.340 5   -990041.96621  24896818.384
 92  5  7  7 58 30.0010000  0  6G23G21G 3G28G17G11
 -19741544.526 8 -15383008.62329  20903204.514
 -13674358.883 8 -10655334.36828  21344431.857
   -747285.756 6   -582282.81921  23810644.239
 -17689908.558 8 -13784333.06326  21800067.826
    523523.289 8    407957.90826  21776700.205
  -1379954.978 5  -1075287.63521  24876002.909
 92  5  7  7 59  0.0010000  0  6G23G21G 3G28G17G11
 -19717272.830 8 -15364095.61329  20907822.819
 -13724592.690 8 -10694477.55027  21334869.975
   -633885.639 6   -493919.24621  23832227.488
 -17747482.367 8 -13829195.75026  21789111.009
    579031.018 7    451210.68527  21787262.490
  -1489323.459 5  -1160509.74122  24855188.604
 92  5  7  7 59 30.0010000  0  6G23G21G 3G28G17G11
 -19692656.054 8 -15344913.71329  20912505.271
 -13774472.912 8 -10733345.21527  21325377.353
   -520214.262 6   -405344.20122  23853851.222
 -17804528.206 8 -13873647.04326  21778257.619
    634798.401 7    494665.77127  21797873.950
  -1598659.977 5  -1245707.01022  24834381.522
 92  5  7  8  0  0.0010000  0  6G23G21G 3G28G17G11
 -19667686.994 8 -15325457.31529  20917258.780
 -13823999.823 8 -10771937.56028  21315954.270
   -406269.366 6   -316556.01623  23875540.307
 -17861036.807 8 -13917679.70326  21767502.875
    690839.040 7    538333.77326  21808540.570
  -1707957.232 5  -1330873.66921  24813585.208
 92  5  7  8  0 30.0010000  0  6G23G21G 3G28G17G11
 -19642381.106 8 -15305738.43529  20922073.452
 -13873180.090 8 -10810259.81228  21306595.945
   -292055.887 6   -227558.59521  23897271.360
 -17917019.614 7 -13961302.65426  21756848.540
    747151.927 8    582213.93626  21819256.347
  -1817215.701 5  -1416010.05222  24792794.914
 92  5  7  8  1  0.0010000  0  6G23G21G 3G28G17G11
 -19616756.950 8 -15285771.58329  20926951.678
 -13922017.034 8 -10848314.53827  21297300.581
   -177578.945 6   -138355.85623  23919058.184
 -17972499.745 7 -14004533.90926  21746291.054
    803735.001 7    626304.63726  21830024.283
  -1926435.978 5  -1501116.72722  24772016.294
 92  5  7  8  1 30.0010000  0  6G23G21G 3G28G17G11
 -19590800.179 8 -15265545.52429  20931891.346
 -13970514.634 8 -10886104.85128  21288072.976
    -62838.848 6    -48948.05323  23940894.165
 -18027469.782 7 -14047367.69027  21735831.603
    860574.034 7    670594.75027  21840838.410
  -2035613.294 5  -1586189.88422  24751229.577
 92  5  7  8  2  0.0010000  0  6G23G21G 3G28G17G11
 -19564515.650 8 -15245064.07029  20936893.085
 -14018689.342 8 -10923643.56227  21278907.720
     52158.182 6     40659.94722  23962779.006
 -18081934.816 7 -14089807.96726  21725467.168
    917652.078 7    715071.11727  21851701.677
  -2144749.208 5  -1671230.81023  24730466.854
 92  5  7  8  2 30.0010000  0  6G23G21G 3G28G17G11
 -19537904.838 8 -15224328.37729  20941957.784
 -14066543.238 8 -10960932.26227  21269798.828
    167413.426 6    130469.14122  23984709.428
 -18135877.811 8 -14131841.46727  21715204.677
    974968.237 8    759733.03526  21862607.836
  -2253837.731 5  -1756234.83822  24709707.430
 92  5  7  8  3  0.0010000  0  6G23G21G 3G28G17G11
 -19510951.174 8 -15203325.51929  20947086.333
 -14114067.168 8 -10997963.86127  21260757.382
    282930.511 5    220482.37522  24006695.306
 -18189261.405 8 -14173439.06527  21705044.410
   1032515.697 8    804575.20826  21873562.542
  -2362870.242 5  -1841195.18423  24688957.882
 92  5  7  8  3 30.0010000  0  6G23G21G 3G28G17G11
 -19483648.602 8 -15182050.78329  20952278.436
 -14161255.198 8 -11034733.71528  21251775.598
    398704.587 5    310695.89421  24028722.262
 -18242063.466 8 -14214583.51827  21694996.872
   1090289.696 7    849593.90326  21884555.341
  -2471847.278 5  -1926112.31421  24668221.247
 92  5  7  8  4  0.0010000  0  6G23G21G 3G28G17G11
 -19456007.667 8 -15160512.39529  20957541.299
 -14208093.055 8 -11071230.69528  21242861.870
    514731.359 5    401106.3202   24050803.175
 -18294291.488 8 -14255280.66327  21685057.542
   1148313.910 7    894807.53926  21895590.998
  -2580767.616 5  -2010985.25223  24647489.394
 92  5  7  8  4 30.0010000  0  6G23G21G 3G28G17G11
 -19428022.573 8 -15138705.81929  20962865.605
 -14254557.887 8 -11107437.03727  21234020.385
    631007.285 5    491710.89121  24072924.257
 -18345946.917 8 -14295531.63827  21675227.660
   1206600.108 7    940225.36826  21906681.223
  -2689630.421 5  -2095813.32023  24626780.330
 92  5  7  8  5  0.0010000  0  6G23G21G 3G28G17G11
 -19399681.765 8 -15116622.09329  20968257.373
 -14300641.660 8 -11143346.44827  21225249.958
    747530.795 5    582508.31422  24095100.518
 -18397041.685 8 -14335345.74527  21665504.485
   1265146.561 7    985845.96126  21917826.607
  -2798432.256 5  -2180593.95921  24606073.064
 92  5  7  8  5 30.0010000  0  6G23G21G 3G28G17G11
 -19370989.337 8 -15094264.35129  20973720.199
 -14346349.949 8 -11178963.26927  21216551.792
    864298.192 5    673495.82422  24117327.418
 -18447608.173 8 -14374748.18726  21655882.348
   1323977.684 7   1031688.37326  21929021.759
  -2907171.862 5  -2265326.08222  24585373.599
 92  5  7  8  6  0.0010000  0  6G23G21G 3G28G17G11
 -19341953.356 8 -15071638.89429  20979243.873
 -14391689.273 8 -11214292.58628  21207927.354
    981303.490 5    764668.76523  24139587.317
 -18497676.202 8 -14413762.23426  21646354.948
   1383098.837 7   1077756.78726  21940274.759
  -3015850.372 5  -2350010.61722  24564692.124
 92  5  7  8  6 30.0010000  0  6G23G21G 3G28G17G11
 -19312573.248 8 -15048745.29229  20984832.602
 -14436668.401 8 -11249341.24128  21199365.282
   1098550.826 5    856030.29622  24161894.576
 -18547229.965 8 -14452375.55127  21636926.473
   1442492.169 7   1124037.30626  21951573.949
  -3124458.982 5  -2434640.55323  24544034.923
 92  5  7  8  7  0.0010000  0  6G23G21G 3G28G17G11
 -19282873.528 8 -15025602.63429  20990484.885
 -14481306.219 8 -11284123.94028  21190870.673
   1216031.641 5    947573.67522  24184256.385
 -18596271.006 8 -14490589.34427  21627594.830
   1502144.942 7   1170519.99126  21962926.782
  -3233001.041 5  -2519218.74321  24523381.910
 92  5  7  8  7 30.0010000  0  6G23G21G 3G28G17G11
 -19252866.262 8 -15002220.32429  20996195.643
 -14525599.396 8 -11318638.08528  21182445.900
   1333741.888 5   1039295.82622  24206651.785
 -18644787.330 8 -14528394.26328  21618361.815
   1562060.474 7   1217207.40026  21974326.398
  -3341475.479 5  -2603744.23823  24502737.901
 92  5  7  8  8  0.0010000  0  6G23G21G 3G28G17G11
 -19222560.155 8 -14978605.16729  21001962.451
 -14569539.712 8 -11352877.28027  21174084.087
   1451682.250 5   1131197.34722  24229102.048
 -18692760.084 8 -14565775.62626  21609231.948
   1622210.938 7   1264077.87125  21985776.062
  -3449877.117 5  -2688213.01322  24482113.977
 92  5  7  8  8 30.0010000  0  6G23G21G 3G28G17G11
 -19191957.461 8 -14954758.91329  21007786.514
 -14613126.271 8 -11386840.81328  21165787.329
   1569850.312 5   1223276.25922  24251586.479
 -18740164.395 8 -14602714.04627  21600212.088
   1682578.049 7   1311117.15925  21997262.005
  -3558203.061 5  -2772622.81523  24461495.759
 92  5  7  8  9  0.0010000  0  6G23G21G 3G28G17G11
 -19161054.710 8 -14930678.84729  21013667.534
 -14656343.257 8 -11420516.37127  21157561.925
   1688244.910 5   1315531.73522  24274119.771
 -18787000.100 8 -14639209.38827  21591300.453
   1743185.703 7   1358343.91726  22008792.323
  -3666449.629 5  -2856970.70722  24440894.922
 92  5  7  8  9 30.0010000  0  6G23G21G 3G28G17G11
 -19129849.230 8 -14906362.88529  21019603.731
 -14699190.504 8 -11453903.82528  21149411.766
   1806864.155 5   1407962.29522  24296683.653
 -18833269.537 8 -14675263.49727  21582494.044
   1804027.578 7   1405753.14726  22020372.113
  -3774613.295 5  -2941254.01422  24420313.263
 92  5  7  8 10  0.0010000  0  6G23G21G 3G28G17G11
 -19098359.164 8 -14881825.16929  21025597.183
 -14741684.365 8 -11487015.90428  21141325.771
   1925702.015 5   1500563.15922  24319297.896
 -18878977.667 8 -14710880.21327  21573795.267
   1865093.398 7   1453336.89826  22031995.075
  -3882695.597 5  -3025473.95622  24399748.111
 92  5  7  8 10 30.0010000  0  6G23G21G 3G28G17G11
 -19066561.607 8 -14857047.85329  21031649.093
 -14783827.119 8 -11519854.37828  21133305.110
   2044760.998 5   1593336.25021  24341958.609
 -18924105.676 8 -14746044.88226  21565207.422
   1926405.260 7   1501112.36626  22043659.394
  -3990688.653 6  -3109624.37623  24379191.336
 92  5  7  8 11  0.0010000  0  6G23G21G 3G28G17G11
 -19034446.414 8 -14832023.00529  21037760.666
 -14825622.522 8 -11552422.20128  21125350.131
   2164041.557 5   1686282.09822  24364656.195
 -18968649.266 8 -14780754.16927  21556729.879
   1987971.842 7   1549086.32825  22055377.076
  -4098586.960 6  -3193700.91922  24358660.352
 92  5  7  8 11 30.0010000  0  6G23G21G 3G28G17G11
 -19002009.090 8 -14806747.16429  21043932.493
 -14867084.146 8 -11584729.92728  21117462.581
   2283537.125 5   1779395.52421  24387394.265
 -19012611.160 8 -14815010.18827  21548365.379
   2049774.389 7   1597244.13225  22067138.540
  -4206391.911 6  -3277704.7472   24338148.843
 92  5  7  8 12  0.0010000  0  6G23G21G 3G28G17G11
 -18969231.777 8 -14781206.39129  21050172.377
 -14908209.028 8 -11616775.26628  21109634.396
   2403246.287 5   1872675.29522  24410176.082
 -19055983.451 8 -14848806.77427  21540110.589
   2111828.412 7   1645597.88426  22078948.254
  -4314100.090 6  -3361633.11921  24317651.433
 92  5  7  8 12 30.0010000  0  6G23G21G 3G28G17G11
 -18936100.411 8 -14755389.76929  21056476.111
 -14948994.535 8 -11648556.14927  21101876.081
   2523164.265 5   1966117.79423  24432996.587
 -19098777.948 8 -14882153.13128  21531969.120
   2174144.949 7   1694156.22825  22090801.157
  -4421710.971 6  -3445485.72623  24297172.625
 92  5  7  8 13  0.0010000  0  6G23G21G 3G28G17G11
 -18902636.211 8 -14729313.77529  21062840.991
 -14989441.776 8 -11680073.45728  21094177.708
   2643290.456 4   2059722.52622  24455852.167
 -19141019.884 8 -14915068.92528  21523930.799
   2236739.475 7   1742931.19026  22102715.503
  -4529220.274 6  -3529259.16922  24276713.885
 92  5  7  8 13 30.0010000  0  6G23G21G 3G28G17G11
 -18868855.195 8 -14702990.91029  21069270.053
 -15029553.300 8 -11711329.17328  21086546.780
   2763619.297 4   2153485.19822  24478753.920
 -19182720.258 8 -14947562.71827  21515995.592
   2299613.146 7   1791923.63526  22114680.821
  -4636627.985 6  -3612953.45225  24256274.637
 92  5  7  8 14  0.0010000  0  6G23G21G 3G28G17G11
 -18834769.843 9 -14676430.88129  21075757.852
 -15069324.899 8 -11742320.00428  21078976.736
   2884150.234 4   2247405.30823  24501685.338
 -19223877.742 8 -14979633.46927  21508162.608
   2362769.007 7   1841136.00026  22126697.110
  -4743929.841 6  -3696565.25722  24235857.569
 92  5  7  8 14 30.0010000  0  6G23G21G 3G28G17G11
 -18800400.979 9 -14649649.96929  21082297.530
 -15108753.157 8 -11773043.31428  21071475.027
   3004879.816 4   2341480.30822  24524661.133
 -19264487.954 8 -15011277.78827  21500433.365
   2426187.516 7   1890553.05425  22138761.946
  -4851124.022 5  -3780093.11222  24215460.882
 92  5  7  8 15  0.0010000  0  6G23G21G 3G28G17G11
 -18765761.627 9 -14622658.27829  21088889.961
 -15147827.371 8 -11803490.73728  21064036.279
   3125803.993 3   2435706.85922  24547674.393
 -19304536.165 8 -15042484.17826  21492815.927
   2489835.673 7   1940149.01625  22150876.568
  -4958209.223 5  -3863536.04622  24195079.498
 92  5  7  8 15 30.0010000  0  5G23G21G28G17G11
 -18730838.440 8 -14595445.40729  21095533.363
 -15186534.985 8 -11833652.48927  21056675.463
 -19343990.012 8 -15073227.42127  21485304.341
   2553692.054 7   1989907.23025  22163027.155
  -5065179.920 5  -3946889.80424  24174723.593
 92  5  7  8 16  0.0010000  0  5G23G21G28G17G11
 -18695621.324 9 -14568003.47629  21102235.835
 -15224864.451 8 -11863519.57928  21049377.328
 -19382833.579 8 -15103495.13928  21477915.657
   2617759.841 7   2039830.20025  22175222.414
  -5172027.838 5  -4030147.88924  24154388.069
 92  5  7  8 16 30.0010000  0  5G23G21G28G17G11
 -18660114.600 9 -14540335.92629  21108994.042
 -15262815.925 8 -11893092.12828  21042154.718
 -19421066.408 8 -15133286.95527  21470638.183
   2682036.161 7   2089915.64926  22187451.841
  -5278755.322 5  -4113312.12222  24134079.523
 92  5  7  8 17  0.0010000  0  5G23G21G28G17G11
 -18624310.270 9 -14512436.44929  21115805.630
 -15300392.648 8 -11922372.66727  21035005.573
 -19458701.114 8 -15162612.69126  21463478.551
   2746548.638 7   2140185.08626  22199723.846
  -5385360.550 5  -4196381.09123  24113795.267
 92  5  7  8 17 30.0010000  0  6G23G21G 3G28G17G11
 -18588214.283 8 -14484309.70729  21122673.582
 -15337608.342 8 -11951371.87628  21027921.465
     20319.21914     15848.83423  24663273.779
 -19495752.797 8 -15191484.12727  21456428.331
   2811323.475 7   2190658.99824  22212058.812
  -5491848.770 6  -4279358.82922  24093530.801
 92  5  7  8 18  0.0010000  0  6G23G21G 3G28G17G11
 -18551821.764 9 -14455951.89129  21129600.882
 -15374452.452 8 -11980081.55528  21020910.823
    142371.410 4    110954.44421  24686503.194
 -19532222.123 8 -15219901.77526  21449487.821
   2876381.817 7   2241353.80825  22224433.040
  -5598210.581 6  -4362238.13422  24073292.998
 92  5  7  8 18 30.0010000  0  6G23G21G 3G28G17G11
 -18515126.412 9 -14427358.13229  21136584.250
 -15410919.997 8 -12008497.82328  21013973.628
    264613.285 5    206207.78222  24709764.684
 -19568103.903 8 -15247861.59027  21442658.853
   2941740.770 7   2292282.84526  22236872.934
  -5704431.800 6  -4445007.86523  24053076.798
 92  5  7  8 19  0.0010000  0  6G23G21G 3G28G17G11
 -18478125.108 9 -14398525.96029  21143625.779
 -15447021.043 8 -12036628.51929  21007102.081
    387041.283 5    301606.24422  24733066.658
 -19603391.043 8 -15275358.05627  21435945.597
   3007393.211 7   2343440.58225  22249367.377
  -5810510.660 5  -4527666.68623  24032893.266
 92  5  7  8 19 30.0010000  0  6G23G21G 3G28G17G11
 -18440817.443 9 -14369455.05529  21150726.064
 -15482760.851 8 -12064477.72728  21000300.388
    509655.495 5    397149.67822  24756401.001
 -19638069.199 8 -15302379.99128  21429345.366
   3073314.189 7   2394807.59125  22261908.308
  -5916441.667 6  -4610210.30722  24012733.134
 92  5  7  8 20  0.0010000  0  6G23G21G 3G28G17G11
 -18403201.129 9 -14340143.64929  21157882.398
 -15518156.292 8 -12092058.59928  20993565.860
    632448.465 5    492832.64121  24779766.826
 -19672139.595 8 -15328928.34527  21422863.553
   3139474.230 7   2446360.89925  22274500.193
  -6022227.032 6  -4692640.43222  23992603.557
 92  5  7  8 20 30.0010000  0  6G23G21G 3G28G17G11
 -18365277.982 9 -14310593.15529  21165101.710
 -15553216.187 8 -12119378.01829  20986895.776
    755416.326 5    588651.71221  24803161.722
 -19705612.734 8 -15355011.29928  21416491.466
   3205860.246 7   2498090.24425  22287133.732
  -6127865.072 6  -4774955.73822  23972500.976
 92  5  7  8 21  0.0010000  0  6G23G21G 3G28G17G11
 -18327042.523 9 -14280799.27229  21172375.275
 -15587933.272 8 -12146430.31628  20980287.745
    878557.001 5    684605.66721  24826600.104
 -19738478.432 8 -15380620.93227  21410240.205
   3272462.726 7   2549988.25726  22299808.959
  -6233352.667 6  -4857153.83222  23952430.469
 92  5  7  8 21 30.0010000  0  6G23G21G 3G28G17G11
 -18288500.299 9 -14250766.37429  21179708.485
 -15622306.851 8 -12173214.91829  20973747.473
   1001865.610 5    780690.29522  24850058.571
 -19770744.129 8 -15405763.02327  21404097.152
   3339281.371 7   2602054.73425  22312523.467
  -6338689.193 6  -4939234.21422  23932385.753
 92  5  7  8 22  0.0010000  0  6G23G21G 3G28G17G11
 -18249663.275 9 -14220503.74829  21187099.577
 -15656329.869 8 -12199726.34528  20967274.053
   1125337.278 5    876902.05022  24873561.100
 -19802403.876 8 -15430432.94828  21398071.627
   3406325.698 7   2654297.05226  22325279.332
  -6443874.426 6  -5021196.71023  23912371.313
 92  5  7  8 22 30.0010000  0  6G23G21G 3G28G17G11
 -18210550.048 9 -14190025.92829  21194543.421
 -15689986.853 8 -12225952.57429  20960868.096
   1248975.773 5    973243.75322  24897087.013
 -19833446.551 8 -15454622.04328  21392164.816
   3473623.026 7   2706736.50225  22338087.059
  -6548898.819 6  -5103033.86223  23892386.538
 92  5  7  8 23  0.0010000  0  6G23G21G 3G28G17G11
 -18171166.852 9 -14159337.72428  21202036.736
 -15723271.524 8 -12251888.68828  20954532.585
   1372776.407 5   1069711.55621  24920640.200
 -19863863.006 8 -15478323.16727  21386379.423
   3541182.826 7   2759380.49025  22350943.960
  -6653761.679 6  -5184745.17523  23872428.166
 92  5  7  8 23 30.0010000  0  6G23G21G 3G28G17G11
 -18131519.839 9 -14128443.94529  21209582.507
 -15756189.451 8 -12277539.02628  20948271.115
   1496736.755 5   1166303.97221  24944233.575
 -19893657.050 8 -15501539.30228  21380709.742
   3609015.629 7   2812237.16725  22363848.222
  -6758460.099 6  -5266328.29022  23852502.163
 92  5  7  8 24  0.0010000  0  5G23G21G28G17G11
 -18091612.736 9 -14097347.47929  21217176.563
 -15788740.039 8 -12302903.13728  20942075.904
 -19922836.061 8 -15524276.18928  21375155.792
   3677132.636 7   2865315.33525  22376816.351
  -6862991.988 6  -5347781.68322  23832613.923
 92  5  7  8 24 30.0010000  0  5G23G21G28G17G11
 -18051445.623 9 -14066048.44529  21224819.165
 -15820926.619 8 -12327983.61429  20935950.249
 -19951413.984 8 -15546544.69026  21369718.444
   3745525.303 7   2918608.26326  22389827.949
  -6967356.206 6  -5429104.44323  23812754.180
 92  5  7  8 25  0.0010000  0  5G23G21G28G17G11
 -18010988.229 9 -14034523.20129  21232517.538
 -15852751.811 8 -12352782.47829  20929895.635
 -19979387.379 8 -15568342.13028  21364391.433
   3814174.255 7   2972100.88425  22402890.501
  -7071545.656 6  -5510290.96822  23792923.508
 92  5  7  8 25 30.0010000  0  5G23G21G28G17G11
 -17970245.600 9 -14002775.69429  21240272.868
 -15884236.789 8 -12377316.22029  20923903.090
 -20006760.105 8 -15589671.53028  21359187.342
   3883069.216 7   3025785.23126  22416003.118
  -7175560.560 6  -5591341.52922  23773124.910
 92  5  7  8 26  0.0010000  0  5G23G21G28G17G11
 -17929217.253 9 -13970805.55629  21248078.856
 -15915369.509 8 -12401575.48629  20917978.881
 -20033524.285 8 -15610526.72528  21354092.664
   3952199.489 6   3079652.95124  22429157.424
  -7279392.711 6  -5672249.68623  23753373.375
 92  5  7  8 26 30.0010000  0  5G23G21G28G17G11
 -17887897.146 9 -13938608.07729  21255941.820
 -15946150.166 8 -12425560.40729  20912120.337
 -20059668.832 8 -15630899.09328  21349116.420
   4021544.753 6   3133688.19125  22442353.087
  -7383036.151 6  -5753010.77222  23733653.634
 92  5  7  8 27  0.0010000  0  5G23G21G28G17G11
 -17846288.878 9 -13906186.04629  21263859.943
 -15976592.466 8 -12449281.66228  20906327.754
 -20085193.132 8 -15650788.16428  21344259.169
   4091106.696 6   3187892.24025  22455591.311
  -7486493.826 6  -5833627.12522  23713964.169
 92  5  7  8 27 30.0010000  0  5G23G21G28G17G11
 -17804410.783 9 -13873553.76429  21271828.114
 -16006691.025 8 -12472735.07829  20900603.507
 -20110096.682 8 -15670193.51728  21339519.760
   4160901.053 6   3242277.38825  22468870.019
  -7589763.579 6  -5914097.01422  23694313.374
 92  5  7  8 28  0.0010000  0  5G23G21G28G17G11
 -17762258.750 9 -13840708.02629  21279851.166
 -16036438.846 8 -12495915.19429  20894939.830
 -20134371.570 8 -15689109.02428  21334902.048
   4230933.853 6   3296848.37524  22482199.106
  -7692839.512 6  -5994415.87723  23674699.155
 92  5  7  8 28 30.0010000  0  5G23G21G28G17G11
 -17719827.525 9 -13807644.74029  21287924.876
 -16065850.586 8 -12518833.41929  20889342.707
 -20158013.699 8 -15707531.46428  21330401.271
   4301218.558 6   3351615.63624  22495570.440
  -7795720.071 6  -6074582.51523  23655119.400
 92  5  7  8 29  0.0010000  0  5G23G21G28G17G11
 -17677126.490 9 -13774371.20029  21296050.447
 -16094920.934 8 -12541485.64128  20883813.641
 -20181015.657 8 -15725455.06628  21326024.302
   4371765.785 6   3406587.46523  22508996.638
  -7898403.523 6  -6154595.56024  23635581.334
 92  5  7  8 29 30.0010000  0  5G23G21G28G17G11
 -17634170.542 9 -13740899.03829  21304225.194
 -16123646.790 8 -12563869.42729  20878344.515
 -20203384.834 8 -15742885.60128  21321768.753
   4442557.481 6   3461749.79224  22522468.118
  -8000894.694 6  -6234458.79623  23616078.028
 92  5  7  8 30  0.0010000  0  5G23G21G28G17G11
 -17590956.053 9 -13707225.41729  21312447.597
 -16152022.688 8 -12585980.51029  20872946.465
 -20225112.785 8 -15759816.45628  21317636.402
   4513585.152 6   3517095.96824  22535986.069
  -8103186.014 6  -6314166.29023  23596611.909
 92  5  7  8 30 30.0010000  0  5G23G21G28G17G11
 -17547482.117 8 -13673349.63429  21320720.972
 -16180016.823 8 -12607794.10429  20867617.343
 -20246200.200 8 -15776248.19428  21313620.094
   4584844.533 6   3572622.73724  22549546.267
  -8205266.146 6  -6393709.20422  23577183.848
 92  5  7  8 31  0.0010000  0  5G23G21G28G17G11
 -17503752.468 9 -13639274.58529  21329042.003
 -16207607.580 8 -12629293.39729  20862370.377
 -20266668.139 8 -15792197.22628  21309726.986
   4656328.079 6   3628324.16323  22563147.560
  -8307132.237 6  -6473085.33922  23557800.775
 92  5  7  8 31 30.0010000  0  5G23G21G28G17G11
 -17459759.027 9 -13604993.99129  21337414.007
 -16234796.359 8 -12650479.46229  20857193.560
 -20286524.256 8 -15807669.53028  21305945.995
   4728046.905 6   3684208.94324  22576796.509
  -8408780.308 6  -6552291.59823  23538459.966
 92  5  7  8 32  0.0010000  0  5G23G21G28G17G11
 -17415499.841 9 -13570506.32329  21345836.686
 -16261591.996 8 -12671359.20329  20852095.898
 -20305773.709 8 -15822669.09727  21302285.236
   4800000.098 7   3740276.31524  22590488.334
  -8510215.692 6  -6631332.12523  23519156.029
 92  5  7  8 32 30.0010000  0  5G23G21G28G17G11
 -17370960.921 9 -13535800.67629  21354310.913
 -16287984.583 8 -12691924.86729  20847074.964
 -20324414.340 8 -15837194.26928  21298738.688
   4872200.001 7   3796535.94325  22604228.112
  -8611430.621 6  -6710200.88624  23499893.170
 92  5  7  8 33  0.0010000  0  5G23G21G28G17G11
 -17326145.799 9 -13500879.80929  21362839.411
 -16314004.180 8 -12712199.87629  20842124.495
 -20342435.359 8 -15851236.61927  21295309.371
   4944665.483 7   3853002.52722  22618014.377
  -8712422.859 6  -6788896.11324  23480675.873
 92  5  7  8 33 30.0010000  0  5G23G21G28G17G11
 -17281058.714 9 -13465747.01229  21371417.973
 -16339681.129 8 -12732207.89828  20837236.374
 -20359807.400 8 -15864773.26728  21292001.753
   5017395.428 7   3909675.20624  22631856.693
  -8813188.131 6  -6867414.49023  23461499.340
 92  5  7  8 34  0.0010000  0  5G23G21G28G17G11
 -17235718.789 8 -13430417.20029  21380047.507
 -16365019.180 8 -12751951.84828  20832416.014
 -20376527.851 8 -15877802.18628  21288820.351
   5090370.697 7   3966539.01325  22645743.070
  -8913726.313 6  -6945755.87922  23442368.387
 92  5  7  8 34 30.0010000  0  5G23G21G28G17G11
 -17190150.169 8 -13394909.18729  21388718.694
 -16390027.688 8 -12771439.02429  20827655.315
 -20392605.569 8 -15890330.28328  21285761.275
   5163582.396 7   4023587.04124  22659675.341
  -9014036.755 6  -7023919.83224  23423279.402
 92  5  7  8 35  0.0010000  0  5G23G21G28G17G11
 -17144356.380 8 -13359225.71129  21397433.665
 -16414710.474 8 -12790672.38429  20822955.169
 -20408035.765 8 -15902353.80628  21282823.915
   5237028.259 7   4080817.56025  22673650.453
  -9114111.840 6  -7101900.38824  23404239.888
 92  5  7  8 35 30.0010000  0  5G23G21G28G17G11
 -17098329.021 8 -13323360.23229  21406193.308
 -16439044.693 8 -12809634.10729  20818327.877
 -20422811.525 8 -15913867.38728  21280013.959
   5310690.993 6   4138217.08123  22687669.661
  -9213948.796 6  -7179695.38624  23385238.137
 92  5  7  8 36  0.0010000  0  5G23G21G28G17G11
 -17052063.317 8 -13287309.04229  21414994.011
 -16463008.027 8 -12828306.83529  20813768.624
 -20436938.514 8 -15924875.43527  21277325.718
   5384577.734 7   4195791.14824  22701726.318
  -9313541.949 6  -7257300.41423  23366286.153
 92  5  7  8 36 30.0010000  0  5G23G21G28G17G11
 -17005545.896 8 -13251061.70529  21423847.780
 -16486616.064 8 -12846702.70228  20809274.442
 -20450431.445 8 -15935389.40228  21274757.988
   5458691.120 7   4253541.79924  22715830.666
  -9412894.959 6  -7334718.33823  23347383.048
 92  5  7  8 37  0.0010000  0  5G23G21G28G17G11
 -16958760.455 8 -13214605.52329  21432750.724
 -16509873.064 8 -12864825.01129  20804848.596
 -20463280.184 8 -15945401.41928  21272315.289
   5533049.130 7   4311483.10623  22729984.467
  -9512002.841 6  -7411945.20523  23328520.706
 92  5  7  8 37 30.0010000  0  5G23G21G28G17G11
 -16911707.054 8 -13177940.54929  21441704.919
 -16532783.279 8 -12882677.10629  20800488.729
 -20475491.635 8 -15954916.84829  21269987.989
   5607665.382 7   4369625.61924  22744179.626
  -9610862.480 6  -7488978.65223  23309709.616
 92  5  7  8 38  0.0010000  0  5G23G21G28G17G11
 -16864384.977 8 -13141066.22129  21450711.273
 -16555361.804 8 -12900270.75829  20796191.805
 -20487075.242 8 -15963943.04427  21267786.016
   5682555.468 6   4427981.49325  22758429.963
  -9709468.030 6  -7565814.10623  23290947.421
 92  5  7  8 38 30.0010000  0  5G23G21G28G17G11
 -16816808.359 8 -13103993.51029  21459762.911
 -16577611.052 8 -12917607.82129  20791959.621
 -20498032.479 8 -15972481.17028  21265697.661
   5757713.400 6   4486546.07024  22772733.958
  -9807818.891 6  -7642451.13023  23272229.270
 92  5  7  8 39  0.0010000  0  5G23G21G28G17G11
 -16768988.691 8 -13066731.46928  21468862.815
 -16599526.553 8 -12934684.82629  20787787.117
 -20508352.656 8 -15980522.87428  21263734.930
   5833128.785 6   4545311.28324  22787089.834
  -9905915.214 6  -7718889.79425  23253561.202
 92  5  7  8 39 30.0010000  0  5G23G21G28G17G11
 -16720925.648 8 -13029279.74728  21478009.190
 -16621097.743 8 -12951493.52029  20783685.356
 -20518033.453 8 -15988066.34827  21261891.507
   5908779.096 6   4604259.53025  22801483.454
 -10003753.317 6  -7795127.26323  23234942.587
 92  5  7  8 40  0.0010000  0  5G23G21G28G17G11
 -16672628.128 8 -12991645.32929  21487199.016
 -16642322.312 8 -12968032.13129  20779645.944
 -20527070.816 8 -15995108.44728  21260174.283
   5984640.456 6   4663372.25424  22815918.763
 -10101332.821 6  -7871163.21323  23216377.929
 92  5  7  8 40 30.0010000  0  5G23G21G28G17G11
 -16624094.142 8 -12953826.63828  21496435.329
 -16663181.528 8 -12984286.03928  20775675.496
 -20535461.759 8 -16001646.85728  21258578.792
   6060713.596 6   4722649.99624  22830393.648
 -10198642.634 6  -7946989.01625  23197860.351
 92  5  7  8 41  0.0010000  0  5G23G21G28G17G11
 -16575323.820 8 -12915823.81128  21505717.797
 -16683686.651 8 -13000264.03828  20771771.307
 -20543218.377 8 -16007690.99128  21257101.422
   6136987.264 6   4782083.97224  22844908.391
 -10295686.344 6  -8022607.45923  23179390.447
 92  5  7  8 41 30.0010000  0  5G23G21G28G17G11
 -16526337.967 8 -12877653.01528  21515037.749
 -16703830.759 8 -13015960.75329  20767942.345
 -20550339.444 8 -16013239.87728  21255744.563
   6213476.034 6   4841685.58024  22859463.914
 -10392454.089 6  -8098010.89123  23160980.782
 92  5  7  8 42  0.0010000  0  5G23G21G28G17G11
 -16477158.905 8 -12839331.67029  21524395.778
 -16723620.424 8 -13031381.29529  20764172.470
 -20556827.782 8 -16018295.73828  21254511.513
   6290186.896 6   4901460.22723  22874062.609
 -10488948.201 6  -8173201.09123  23142614.602
 92  5  7  8 42 30.0010000  0  5G23G21G28G17G11
 -16427781.962 8 -12800856.13128  21533790.661
 -16743056.370 8 -13046526.18129  20760476.025
 -20562670.551 8 -16022848.55528  21253398.677
   6367140.010 6   4961423.67625  22888704.773
 -10585165.073 6  -8248175.25824  23124306.270
 92  5  7  8 43  0.0010000  0  5G23G21G28G17G11
 -16378200.236 8 -12762221.02428  21543229.326
 -16762139.200 8 -13061395.92829  20756843.134
 -20567857.261 8 -16026890.16528  21252410.856
   6444344.621 6   5021583.04623  22903397.315
 -10681100.498 6  -8322930.14024  23106051.318
 92  5  7  8 43 30.0010000  0  5G23G21G28G17G11
 -16328404.214 8 -12723418.93128  21552702.177
 -16780861.722 8 -13075984.88729  20753281.597
 -20572383.337 8 -16030416.98228  21251553.160
   6521806.907 6   5081943.25724  22918141.999
 -10776752.138 6  -8397463.88025  23087849.711
 92  5  7  8 44  0.0010000  0  5G23G21G28G17G11
 -16278349.974 8 -12684415.64328  21562229.281
 -16799223.829 8 -13090293.06028  20749787.522
 -20576257.177 8 -16033435.56928  21250813.271
   6599529.622 6   5142506.39424  22932929.261
 -10872114.812 6  -8471772.44924  23069698.483
 92  5  7  8 44 30.0010000  0  5G23G21G28G17G11
 -16228017.000 8 -12645195.14128  21571807.356
 -16817224.562 8 -13104319.64228  20746362.394
 -20579485.877 8 -16035951.45428  21250200.489
   6677510.726 6   5203270.90024  22947768.088
 -10967182.460 7  -8545851.11823  23051609.902
 92  5  7  8 45  0.0010000  0  5G23G21G28G17G11
 -16177413.560 8 -12605763.89828  21581434.589
 -16834874.344 8 -13118072.71629  20743002.913
 -20582088.130 8 -16037979.19828  21249703.140
   6755714.228 6   5264208.64025  22962651.292
 -11061956.669 6  -8619701.13823  23033573.182
